Wetterdaten: Montag, 24.09.2018
Datum Zeit Temp. A. Feuchte A. Luftdruck Regen Wind Richtung Richtung Sonnenschein ET UV Solar Taupunkt Windchill Windböen
24.09.2018 00:00 10,7 °C 91 % 1015,4 hPa 0,2 mm 13,5 km/h (3 Bft) W 281 ° 0 min 0,000 mm 0,0 UV-I 0 W/m² 9,3 °C 10,7 °C 19,3 km/h (3 Bft)
24.09.2018 00:01 10,7 °C 91 % 1015,5 hPa 0,0 mm 8,4 km/h (2 Bft) W-NW 291 ° 0 min 0,000 mm 0,0 UV-I 0 W/m² 9,3 °C 10,7 °C 12,9 km/h (3 Bft)
24.09.2018 00:02 10,7 °C 91 % 1015,5 hPa 0,0 mm 10,9 km/h (2 Bft) W 273 ° 0 min 0,000 mm 0,0 UV-I 0 W/m² 9,3 °C 10,7 °C 14,5 km/h (3 Bft)
24.09.2018 00:03 10,7 °C 91 % 1015,7 hPa 0,2 mm 17,9 km/h (3 Bft) W-NW 300 ° 0 min 0,000 mm 0,0 UV-I 0 W/m² 9,3 °C 10,7 °C 24,1 km/h (4 Bft)
24.09.2018 00:04 10,7 °C 91 % 1015,7 hPa 0,2 mm 13,1 km/h (3 Bft) W 277 ° 0 min 0,000 mm 0,0 UV-I 0 W/m² 9,3 °C 10,7 °C 19,3 km/h (3 Bft)
24.09.2018 00:05 10,7 °C 91 % 1015,9 hPa 0,2 mm 12,2 km/h (2 Bft) W-NW 294 ° 0 min 0,000 mm 0,0 UV-I 0 W/m² 9,3 °C 10,7 °C 19,3 km/h (3 Bft)
24.09.2018 00:06 10,7 °C 91 % 1016,0 hPa 0,2 mm 12,1 km/h (2 Bft) W-NW 289 ° 0 min 0,000 mm 0,0 UV-I 0 W/m² 9,3 °C 10,7 °C 19,3 km/h (3 Bft)
24.09.2018 00:07 10,7 °C 91 % 1016,0 hPa 0,4 mm 11,7 km/h (2 Bft) W-NW 288 ° 0 min 0,000 mm 0,0 UV-I 0 W/m² 9,3 °C 10,7 °C 14,5 km/h (3 Bft)
24.09.2018 00:08 10,7 °C 91 % 1016,1 hPa 0,2 mm 15,5 km/h (3 Bft) W-NW 282 ° 0 min 0,000 mm 0,0 UV-I 0 W/m² 9,3 °C 10,7 °C 20,9 km/h (4 Bft)
24.09.2018 00:09 10,6 °C 91 % 1016,5 hPa 0,2 mm 8,4 km/h (2 Bft) W-NW 297 ° 0 min 0,000 mm 0,0 UV-I 0 W/m² 9,2 °C 10,6 °C 12,9 km/h (3 Bft)
24.09.2018 00:10 10,7 °C 91 % 1016,5 hPa 0,0 mm 9,8 km/h (2 Bft) W 263 ° 0 min 0,000 mm 0,0 UV-I 0 W/m² 9,3 °C 10,7 °C 20,9 km/h (4 Bft)
24.09.2018 00:11 10,7 °C 91 % 1016,6 hPa 0,2 mm 13,8 km/h (3 Bft) W-NW 286 ° 0 min 0,000 mm 0,0 UV-I 0 W/m² 9,3 °C 10,7 °C 20,9 km/h (4 Bft)
24.09.2018 00:12 10,6 °C 92 % 1017,0 hPa 0,0 mm 14,8 km/h (3 Bft) W 272 ° 0 min 0,000 mm 0,0 UV-I 0 W/m² 9,4 °C 10,6 °C 20,9 km/h (4 Bft)
24.09.2018 00:13 10,6 °C 92 % 1017,0 hPa 0,2 mm 8,5 km/h (2 Bft) W 267 ° 0 min 0,000 mm 0,0 UV-I 0 W/m² 9,4 °C 10,6 °C 14,5 km/h (3 Bft)
24.09.2018 00:14 10,6 °C 92 % 1017,1 hPa 0,0 mm 10,1 km/h (2 Bft) W-SW 252 ° 0 min 0,000 mm 0,0 UV-I 0 W/m² 9,4 °C 10,6 °C 16,1 km/h (3 Bft)
24.09.2018 00:15 10,5 °C 92 % 1017,1 hPa 0,0 mm 8,8 km/h (2 Bft) W 271 ° 0 min 0,000 mm 0,0 UV-I 0 W/m² 9,3 °C 10,5 °C 17,7 km/h (3 Bft)
24.09.2018 00:16 10,4 °C 92 % 1016,9 hPa 0,2 mm 12,5 km/h (3 Bft) W-SW 240 ° 0 min 0,000 mm 0,0 UV-I 0 W/m² 9,2 °C 10,4 °C 20,9 km/h (4 Bft)
24.09.2018 00:17 10,4 °C 92 % 1016,8 hPa 0,0 mm 7,2 km/h (2 Bft) W 270 ° 0 min 0,000 mm 0,0 UV-I 0 W/m² 9,2 °C 10,4 °C 12,9 km/h (3 Bft)
24.09.2018 00:18 10,4 °C 92 % 1016,7 hPa 0,0 mm 22,3 km/h (4 Bft) W 259 ° 0 min 0,000 mm 0,0 UV-I 0 W/m² 9,2 °C 10,4 °C 30,6 km/h (5 Bft)
24.09.2018 00:19 10,4 °C 92 % 1016,8 hPa 0,0 mm 6,9 km/h (2 Bft) W-NW 284 ° 0 min 0,000 mm 0,0 UV-I 0 W/m² 9,2 °C 10,4 °C 16,1 km/h (3 Bft)
24.09.2018 00:20 10,4 °C 92 % 1016,8 hPa 0,2 mm 19,3 km/h (3 Bft) W-NW 296 ° 0 min 0,000 mm 0,0 UV-I 0 W/m² 9,2 °C 10,4 °C 29,0 km/h (5 Bft)
24.09.2018 00:21 10,4 °C 92 % 1016,8 hPa 0,0 mm 12,1 km/h (2 Bft) W 278 ° 0 min 0,000 mm 0,0 UV-I 0 W/m² 9,2 °C 10,4 °C 19,3 km/h (3 Bft)
24.09.2018 00:22 10,4 °C 92 % 1017,2 hPa 0,0 mm 21,9 km/h (4 Bft) W 275 ° 0 min 0,000 mm 0,0 UV-I 0 W/m² 9,2 °C 10,4 °C 30,6 km/h (5 Bft)
24.09.2018 00:23 10,3 °C 91 % 1017,2 hPa 0,0 mm 23,3 km/h (4 Bft) W-SW 257 ° 0 min 0,000 mm 0,0 UV-I 0 W/m² 8,9 °C 10,3 °C 37,0 km/h (5 Bft)
24.09.2018 00:24 10,3 °C 91 % 1017,4 hPa 0,0 mm 16,2 km/h (3 Bft) N-NW 336 ° 0 min 0,000 mm 0,0 UV-I 0 W/m² 8,9 °C 10,3 °C 33,8 km/h (5 Bft)
24.09.2018 00:25 10,3 °C 91 % 1017,4 hPa 0,0 mm 14,0 km/h (3 Bft) W-NW 298 ° 0 min 0,000 mm 0,0 UV-I 0 W/m² 8,9 °C 10,3 °C 20,9 km/h (4 Bft)
24.09.2018 00:26 10,3 °C 91 % 1017,4 hPa 0,0 mm 16,6 km/h (3 Bft) SW 221 ° 0 min 0,000 mm 0,0 UV-I 0 W/m² 8,9 °C 10,3 °C 24,1 km/h (4 Bft)
24.09.2018 00:27 10,3 °C 91 % 1017,5 hPa 0,2 mm 20,9 km/h (4 Bft) W 273 ° 0 min 0,000 mm 0,0 UV-I 0 W/m² 8,9 °C 10,3 °C 29,0 km/h (5 Bft)
24.09.2018 00:28 10,3 °C 91 % 1017,6 hPa 0,0 mm 17,6 km/h (3 Bft) W 261 ° 0 min 0,000 mm 0,0 UV-I 0 W/m² 8,9 °C 10,3 °C 22,5 km/h (4 Bft)
24.09.2018 00:29 10,3 °C 91 % 1017,7 hPa 0,0 mm 13,3 km/h (3 Bft) NW 321 ° 0 min 0,000 mm 0,0 UV-I 0 W/m² 8,9 °C 10,3 °C 16,1 km/h (3 Bft)
24.09.2018 00:30 10,3 °C 91 % 1017,7 hPa 0,0 mm 24,1 km/h (4 Bft) W-NW 290 ° 0 min 0,000 mm 0,0 UV-I 0 W/m² 8,9 °C 10,3 °C 35,4 km/h (5 Bft)
24.09.2018 00:31 10,2 °C 91 % 1017,7 hPa 0,0 mm 15,1 km/h (3 Bft) W 275 ° 0 min 0,000 mm 0,0 UV-I 0 W/m² 8,8 °C 10,2 °C 27,4 km/h (4 Bft)
24.09.2018 00:32 10,2 °C 91 % 1017,8 hPa 0,0 mm 10,7 km/h (2 Bft) NW 309 ° 0 min 0,000 mm 0,0 UV-I 0 W/m² 8,8 °C 10,2 °C 16,1 km/h (3 Bft)
24.09.2018 00:33 10,2 °C 91 % 1017,9 hPa 0,0 mm 10,9 km/h (2 Bft) W-SW 239 ° 0 min 0,000 mm 0,0 UV-I 0 W/m² 8,8 °C 10,2 °C 29,0 km/h (5 Bft)
24.09.2018 00:34 10,1 °C 91 % 1017,9 hPa 0,0 mm 22,4 km/h (4 Bft) W-NW 300 ° 0 min 0,000 mm 0,0 UV-I 0 W/m² 8,7 °C 10,1 °C 35,4 km/h (5 Bft)
24.09.2018 00:35 10,1 °C 91 % 1018,1 hPa 0,0 mm 21,7 km/h (4 Bft) W-NW 284 ° 0 min 0,000 mm 0,0 UV-I 0 W/m² 8,7 °C 10,1 °C 27,4 km/h (4 Bft)
24.09.2018 00:36 10,1 °C 91 % 1018,2 hPa 0,0 mm 18,4 km/h (3 Bft) W 273 ° 0 min 0,000 mm 0,0 UV-I 0 W/m² 8,7 °C 10,1 °C 27,4 km/h (4 Bft)
24.09.2018 00:37 10,0 °C 91 % 1018,1 hPa 0,0 mm 13,9 km/h (3 Bft) W-NW 288 ° 0 min 0,000 mm 0,0 UV-I 0 W/m² 8,6 °C 8,1 °C 19,3 km/h (3 Bft)
24.09.2018 00:38 10,0 °C 91 % 1018,1 hPa 0,0 mm 13,5 km/h (3 Bft) W 270 ° 0 min 0,000 mm 0,0 UV-I 0 W/m² 8,6 °C 8,1 °C 20,9 km/h (4 Bft)
24.09.2018 00:39 10,0 °C 91 % 1018,2 hPa 0,2 mm 11,7 km/h (2 Bft) W-NW 284 ° 0 min 0,000 mm 0,0 UV-I 0 W/m² 8,6 °C 8,4 °C 17,7 km/h (3 Bft)
24.09.2018 00:40 9,9 °C 91 % 1018,2 hPa 0,0 mm 15,1 km/h (3 Bft) W 272 ° 0 min 0,000 mm 0,0 UV-I 0 W/m² 8,5 °C 7,8 °C 20,9 km/h (4 Bft)
24.09.2018 00:41 9,9 °C 91 % 1018,2 hPa 0,0 mm 17,5 km/h (3 Bft) W 271 ° 0 min 0,000 mm 0,0 UV-I 0 W/m² 8,5 °C 7,5 °C 24,1 km/h (4 Bft)
24.09.2018 00:42 9,8 °C 91 % 1018,1 hPa 0,0 mm 14,4 km/h (3 Bft) W 261 ° 0 min 0,000 mm 0,0 UV-I 0 W/m² 8,4 °C 7,7 °C 22,5 km/h (4 Bft)
24.09.2018 00:43 9,8 °C 91 % 1018,1 hPa 0,0 mm 15,9 km/h (3 Bft) W-NW 283 ° 0 min 0,000 mm 0,0 UV-I 0 W/m² 8,4 °C 7,6 °C 24,1 km/h (4 Bft)
24.09.2018 00:44 9,8 °C 91 % 1018,1 hPa 0,2 mm 14,0 km/h (3 Bft) W-NW 298 ° 0 min 0,000 mm 0,0 UV-I 0 W/m² 8,4 °C 7,8 °C 19,3 km/h (3 Bft)
24.09.2018 00:45 9,7 °C 91 % 1018,0 hPa 0,0 mm 16,3 km/h (3 Bft) W 261 ° 0 min 0,000 mm 0,0 UV-I 0 W/m² 8,3 °C 7,4 °C 27,4 km/h (4 Bft)
24.09.2018 00:46 9,7 °C 91 % 1018,0 hPa 0,0 mm 17,6 km/h (3 Bft) W-NW 283 ° 0 min 0,000 mm 0,0 UV-I 0 W/m² 8,3 °C 7,2 °C 27,4 km/h (4 Bft)
24.09.2018 00:47 9,7 °C 91 % 1017,9 hPa 0,0 mm 11,7 km/h (2 Bft) W 268 ° 0 min 0,000 mm 0,0 UV-I 0 W/m² 8,3 °C 8,0 °C 19,3 km/h (3 Bft)
24.09.2018 00:48 9,6 °C 91 % 1017,9 hPa 0,2 mm 12,7 km/h (3 Bft) W 268 ° 0 min 0,000 mm 0,0 UV-I 0 W/m² 8,2 °C 7,7 °C 17,7 km/h (3 Bft)
24.09.2018 00:49 9,6 °C 91 % 1017,8 hPa 0,0 mm 11,7 km/h (2 Bft) W-NW 301 ° 0 min 0,000 mm 0,0 UV-I 0 W/m² 8,2 °C 7,9 °C 17,7 km/h (3 Bft)
24.09.2018 00:50 9,6 °C 91 % 1017,8 hPa 0,0 mm 11,0 km/h (2 Bft) W-NW 294 ° 0 min 0,000 mm 0,0 UV-I 0 W/m² 8,2 °C 8,0 °C 16,1 km/h (3 Bft)
24.09.2018 00:51 9,6 °C 91 % 1017,9 hPa 0,0 mm 8,3 km/h (2 Bft) W 265 ° 0 min 0,000 mm 0,0 UV-I 0 W/m² 8,2 °C 8,5 °C 12,9 km/h (3 Bft)
24.09.2018 00:52 9,5 °C 91 % 1017,9 hPa 0,0 mm 10,3 km/h (2 Bft) W-SW 255 ° 0 min 0,000 mm 0,0 UV-I 0 W/m² 8,1 °C 8,0 °C 14,5 km/h (3 Bft)
24.09.2018 00:53 9,5 °C 91 % 1017,8 hPa 0,0 mm 9,3 km/h (2 Bft) NW 313 ° 0 min 0,000 mm 0,0 UV-I 0 W/m² 8,1 °C 8,2 °C 17,7 km/h (3 Bft)
24.09.2018 00:54 9,4 °C 92 % 1017,8 hPa 0,0 mm 4,6 km/h (1 Bft) S-SW 207 ° 0 min 0,000 mm 0,0 UV-I 0 W/m² 8,2 °C 9,2 °C 8,0 km/h (2 Bft)
24.09.2018 00:55 9,4 °C 92 % 1017,6 hPa 0,0 mm 5,8 km/h (2 Bft) W 269 ° 0 min 0,000 mm 0,0 UV-I 0 W/m² 8,2 °C 8,8 °C 12,9 km/h (3 Bft)
24.09.2018 00:56 9,4 °C 92 % 1017,6 hPa 0,0 mm 5,3 km/h (1 Bft) SW 235 ° 0 min 0,000 mm 0,0 UV-I 0 W/m² 8,2 °C 9,0 °C 9,7 km/h (2 Bft)
24.09.2018 00:57 9,3 °C 92 % 1017,5 hPa 0,0 mm 5,7 km/h (1 Bft) W-SW 258 ° 0 min 0,000 mm 0,0 UV-I 0 W/m² 8,1 °C 8,8 °C 11,3 km/h (2 Bft)
24.09.2018 00:58 9,4 °C 92 % 1017,7 hPa 0,0 mm 8,0 km/h (2 Bft) W 279 ° 0 min 0,000 mm 0,0 UV-I 0 W/m² 8,2 °C 8,3 °C 12,9 km/h (3 Bft)
24.09.2018 00:59 9,3 °C 92 % 1017,7 hPa 0,2 mm 9,0 km/h (2 Bft) W 259 ° 0 min 0,000 mm 0,0 UV-I 0 W/m² 8,1 °C 8,0 °C 12,9 km/h (3 Bft)
24.09.2018 01:00 9,3 °C 92 % 1017,7 hPa 0,0 mm 9,2 km/h (2 Bft) W-SW 250 ° 0 min 0,000 mm 0,0 UV-I 0 W/m² 8,1 °C 7,9 °C 16,1 km/h (3 Bft)
24.09.2018 01:01 9,3 °C 92 % 1017,8 hPa 0,0 mm 7,3 km/h (2 Bft) SW 224 ° 0 min 0,025 mm 0,0 UV-I 0 W/m² 8,1 °C 8,3 °C 14,5 km/h (3 Bft)
24.09.2018 01:02 9,3 °C 92 % 1017,7 hPa 0,0 mm 5,9 km/h (2 Bft) W-SW 244 ° 0 min 0,000 mm 0,0 UV-I 0 W/m² 8,1 °C 8,7 °C 19,3 km/h (3 Bft)
24.09.2018 01:03 9,2 °C 92 % 1017,7 hPa 0,0 mm 7,8 km/h (2 Bft) S-SW 209 ° 0 min 0,000 mm 0,0 UV-I 0 W/m² 8,0 °C 8,1 °C 16,1 km/h (3 Bft)
24.09.2018 01:04 9,2 °C 92 % 1017,8 hPa 0,0 mm 16,2 km/h (3 Bft) W-NW 286 ° 0 min 0,000 mm 0,0 UV-I 0 W/m² 8,0 °C 6,8 °C 22,5 km/h (4 Bft)
24.09.2018 01:05 9,2 °C 92 % 1017,8 hPa 0,0 mm 13,9 km/h (3 Bft) W 269 ° 0 min 0,000 mm 0,0 UV-I 0 W/m² 8,0 °C 7,1 °C 17,7 km/h (3 Bft)
24.09.2018 01:06 9,2 °C 92 % 1017,8 hPa 0,0 mm 11,3 km/h (2 Bft) SW 233 ° 0 min 0,000 mm 0,0 UV-I 0 W/m² 8,0 °C 7,5 °C 24,1 km/h (4 Bft)
24.09.2018 01:07 9,2 °C 92 % 1017,8 hPa 0,0 mm 10,8 km/h (2 Bft) SW 229 ° 0 min 0,000 mm 0,0 UV-I 0 W/m² 8,0 °C 7,5 °C 17,7 km/h (3 Bft)
24.09.2018 01:08 9,1 °C 92 % 1017,8 hPa 0,0 mm 5,0 km/h (1 Bft) SW 228 ° 0 min 0,000 mm 0,0 UV-I 0 W/m² 7,9 °C 8,7 °C 11,3 km/h (2 Bft)
24.09.2018 01:09 9,1 °C 92 % 1018,0 hPa 0,0 mm 8,2 km/h (2 Bft) W 280 ° 0 min 0,000 mm 0,0 UV-I 0 W/m² 7,9 °C 7,9 °C 11,3 km/h (2 Bft)
24.09.2018 01:10 9,1 °C 92 % 1018,2 hPa 0,0 mm 16,8 km/h (3 Bft) W 274 ° 0 min 0,000 mm 0,0 UV-I 0 W/m² 7,9 °C 6,6 °C 24,1 km/h (4 Bft)
24.09.2018 01:11 9,1 °C 92 % 1018,2 hPa 0,0 mm 15,0 km/h (3 Bft) W-SW 252 ° 0 min 0,000 mm 0,0 UV-I 0 W/m² 7,9 °C 6,8 °C 22,5 km/h (4 Bft)
24.09.2018 01:12 9,0 °C 92 % 1018,2 hPa 0,0 mm 14,8 km/h (3 Bft) W 269 ° 0 min 0,000 mm 0,0 UV-I 0 W/m² 7,8 °C 6,7 °C 17,7 km/h (3 Bft)
24.09.2018 01:13 9,0 °C 92 % 1018,5 hPa 0,0 mm 11,5 km/h (2 Bft) W-SW 250 ° 0 min 0,000 mm 0,0 UV-I 0 W/m² 7,8 °C 7,2 °C 16,1 km/h (3 Bft)
24.09.2018 01:14 9,0 °C 92 % 1018,5 hPa 0,0 mm 9,8 km/h (2 Bft) W-SW 245 ° 0 min 0,000 mm 0,0 UV-I 0 W/m² 7,8 °C 7,5 °C 16,1 km/h (3 Bft)
24.09.2018 01:15 9,0 °C 92 % 1018,7 hPa 0,0 mm 11,9 km/h (2 Bft) W-NW 290 ° 0 min 0,000 mm 0,0 UV-I 0 W/m² 7,8 °C 7,1 °C 19,3 km/h (3 Bft)
24.09.2018 01:16 8,9 °C 92 % 1018,6 hPa 0,0 mm 6,6 km/h (2 Bft) W 271 ° 0 min 0,000 mm 0,0 UV-I 0 W/m² 7,7 °C 8,0 °C 11,3 km/h (2 Bft)
24.09.2018 01:17 8,9 °C 92 % 1018,6 hPa 0,0 mm 7,2 km/h (2 Bft) W 275 ° 0 min 0,000 mm 0,0 UV-I 0 W/m² 7,7 °C 7,9 °C 12,9 km/h (3 Bft)
24.09.2018 01:18 8,9 °C 92 % 1018,6 hPa 0,0 mm 5,8 km/h (2 Bft) W-SW 255 ° 0 min 0,000 mm 0,0 UV-I 0 W/m² 7,7 °C 8,3 °C 9,7 km/h (2 Bft)
24.09.2018 01:19 8,9 °C 92 % 1018,5 hPa 0,0 mm 12,3 km/h (3 Bft) W 265 ° 0 min 0,000 mm 0,0 UV-I 0 W/m² 7,7 °C 6,9 °C 17,7 km/h (3 Bft)
24.09.2018 01:20 8,9 °C 92 % 1018,7 hPa 0,0 mm 11,9 km/h (2 Bft) W-NW 286 ° 0 min 0,000 mm 0,0 UV-I 0 W/m² 7,7 °C 7,0 °C 16,1 km/h (3 Bft)
24.09.2018 01:21 8,9 °C 92 % 1018,8 hPa 0,0 mm 11,6 km/h (2 Bft) W-NW 285 ° 0 min 0,000 mm 0,0 UV-I 0 W/m² 7,7 °C 7,0 °C 16,1 km/h (3 Bft)
24.09.2018 01:22 8,9 °C 92 % 1018,8 hPa 0,0 mm 7,8 km/h (2 Bft) W-NW 296 ° 0 min 0,000 mm 0,0 UV-I 0 W/m² 7,7 °C 7,8 °C 14,5 km/h (3 Bft)
24.09.2018 01:23 8,8 °C 92 % 1018,8 hPa 0,0 mm 10,8 km/h (2 Bft) W 261 ° 0 min 0,000 mm 0,0 UV-I 0 W/m² 7,6 °C 7,1 °C 19,3 km/h (3 Bft)
24.09.2018 01:24 8,9 °C 92 % 1018,8 hPa 0,0 mm 15,4 km/h (3 Bft) W 266 ° 0 min 0,000 mm 0,0 UV-I 0 W/m² 7,7 °C 6,5 °C 20,9 km/h (4 Bft)
24.09.2018 01:25 8,9 °C 92 % 1018,8 hPa 0,0 mm 10,4 km/h (2 Bft) SW 235 ° 0 min 0,000 mm 0,0 UV-I 0 W/m² 7,7 °C 7,2 °C 16,1 km/h (3 Bft)
24.09.2018 01:26 8,8 °C 92 % 1018,8 hPa 0,0 mm 4,8 km/h (1 Bft) W-SW 240 ° 0 min 0,000 mm 0,0 UV-I 0 W/m² 7,6 °C 8,5 °C 11,3 km/h (2 Bft)
24.09.2018 01:27 8,8 °C 92 % 1018,7 hPa 0,0 mm 8,1 km/h (2 Bft) W-NW 286 ° 0 min 0,000 mm 0,0 UV-I 0 W/m² 7,6 °C 7,6 °C 12,9 km/h (3 Bft)
24.09.2018 01:28 8,9 °C 92 % 1018,8 hPa 0,0 mm 7,6 km/h (2 Bft) W-SW 247 ° 0 min 0,000 mm 0,0 UV-I 0 W/m² 7,7 °C 7,8 °C 11,3 km/h (2 Bft)
24.09.2018 01:29 8,8 °C 92 % 1018,9 hPa 0,0 mm 6,8 km/h (2 Bft) SW 235 ° 0 min 0,000 mm 0,0 UV-I 0 W/m² 7,6 °C 7,9 °C 11,3 km/h (2 Bft)
24.09.2018 01:30 8,8 °C 92 % 1018,9 hPa 0,0 mm 5,3 km/h (1 Bft) SW 236 ° 0 min 0,000 mm 0,0 UV-I 0 W/m² 7,6 °C 8,3 °C 11,3 km/h (2 Bft)
24.09.2018 01:31 8,8 °C 92 % 1018,9 hPa 0,0 mm 10,7 km/h (2 Bft) W 268 ° 0 min 0,000 mm 0,0 UV-I 0 W/m² 7,6 °C 7,1 °C 16,1 km/h (3 Bft)
24.09.2018 01:32 8,8 °C 92 % 1018,9 hPa 0,0 mm 6,8 km/h (2 Bft) W 269 ° 0 min 0,000 mm 0,0 UV-I 0 W/m² 7,6 °C 7,9 °C 11,3 km/h (2 Bft)
24.09.2018 01:33 8,8 °C 92 % 1018,9 hPa 0,0 mm 8,2 km/h (2 Bft) SW 236 ° 0 min 0,000 mm 0,0 UV-I 0 W/m² 7,6 °C 7,6 °C 12,9 km/h (3 Bft)
24.09.2018 01:34 8,8 °C 92 % 1019,0 hPa 0,0 mm 10,3 km/h (2 Bft) W 269 ° 0 min 0,000 mm 0,0 UV-I 0 W/m² 7,6 °C 7,1 °C 16,1 km/h (3 Bft)
24.09.2018 01:35 8,8 °C 92 % 1018,9 hPa 0,0 mm 15,3 km/h (3 Bft) W 279 ° 0 min 0,000 mm 0,0 UV-I 0 W/m² 7,6 °C 6,4 °C 22,5 km/h (4 Bft)
24.09.2018 01:36 8,8 °C 92 % 1018,9 hPa 0,0 mm 7,8 km/h (2 Bft) W 271 ° 0 min 0,000 mm 0,0 UV-I 0 W/m² 7,6 °C 7,6 °C 12,9 km/h (3 Bft)
24.09.2018 01:37 8,8 °C 92 % 1018,9 hPa 0,0 mm 11,0 km/h (2 Bft) W 267 ° 0 min 0,000 mm 0,0 UV-I 0 W/m² 7,6 °C 7,0 °C 16,1 km/h (3 Bft)
24.09.2018 01:38 8,8 °C 92 % 1018,9 hPa 0,0 mm 18,8 km/h (3 Bft) W 269 ° 0 min 0,000 mm 0,0 UV-I 0 W/m² 7,6 °C 6,0 °C 22,5 km/h (4 Bft)
24.09.2018 01:39 8,8 °C 92 % 1019,1 hPa 0,0 mm 12,0 km/h (2 Bft) W 278 ° 0 min 0,000 mm 0,0 UV-I 0 W/m² 7,6 °C 6,9 °C 16,1 km/h (3 Bft)
24.09.2018 01:40 8,8 °C 92 % 1019,1 hPa 0,0 mm 7,9 km/h (2 Bft) W 269 ° 0 min 0,000 mm 0,0 UV-I 0 W/m² 7,6 °C 7,6 °C 14,5 km/h (3 Bft)
24.09.2018 01:41 8,8 °C 92 % 1019,1 hPa 0,0 mm 12,8 km/h (3 Bft) SW 229 ° 0 min 0,000 mm 0,0 UV-I 0 W/m² 7,6 °C 6,7 °C 16,1 km/h (3 Bft)
24.09.2018 01:42 8,8 °C 92 % 1019,1 hPa 0,0 mm 7,2 km/h (2 Bft) SW 232 ° 0 min 0,000 mm 0,0 UV-I 0 W/m² 7,6 °C 7,8 °C 16,1 km/h (3 Bft)
24.09.2018 01:43 8,8 °C 92 % 1019,2 hPa 0,2 mm 11,0 km/h (2 Bft) W 262 ° 0 min 0,000 mm 0,0 UV-I 0 W/m² 7,6 °C 7,0 °C 16,1 km/h (3 Bft)
24.09.2018 01:44 8,8 °C 92 % 1019,2 hPa 0,0 mm 10,2 km/h (2 Bft) W 275 ° 0 min 0,000 mm 0,0 UV-I 0 W/m² 7,6 °C 7,2 °C 17,7 km/h (3 Bft)
24.09.2018 01:45 8,8 °C 92 % 1019,2 hPa 0,0 mm 9,2 km/h (2 Bft) W-SW 258 ° 0 min 0,000 mm 0,0 UV-I 0 W/m² 7,6 °C 7,3 °C 16,1 km/h (3 Bft)
24.09.2018 01:46 8,8 °C 92 % 1019,1 hPa 0,0 mm 5,9 km/h (2 Bft) NW 311 ° 0 min 0,000 mm 0,0 UV-I 0 W/m² 7,6 °C 8,1 °C 9,7 km/h (2 Bft)
24.09.2018 01:47 8,8 °C 92 % 1019,1 hPa 0,0 mm 10,3 km/h (2 Bft) W-SW 246 ° 0 min 0,000 mm 0,0 UV-I 0 W/m² 7,6 °C 7,1 °C 17,7 km/h (3 Bft)
24.09.2018 01:48 8,8 °C 92 % 1019,3 hPa 0,0 mm 8,8 km/h (2 Bft) W 269 ° 0 min 0,000 mm 0,0 UV-I 0 W/m² 7,6 °C 7,4 °C 14,5 km/h (3 Bft)
24.09.2018 01:49 8,8 °C 92 % 1019,1 hPa 0,0 mm 13,8 km/h (3 Bft) W-NW 298 ° 0 min 0,000 mm 0,0 UV-I 0 W/m² 7,6 °C 6,6 °C 17,7 km/h (3 Bft)
24.09.2018 01:50 8,8 °C 92 % 1019,1 hPa 0,0 mm 3,8 km/h (1 Bft) W-SW 258 ° 0 min 0,000 mm 0,0 UV-I 0 W/m² 7,6 °C 8,8 °C 8,0 km/h (2 Bft)
24.09.2018 01:51 8,8 °C 92 % 1019,1 hPa 0,0 mm 6,8 km/h (2 Bft) W 268 ° 0 min 0,000 mm 0,0 UV-I 0 W/m² 7,6 °C 7,9 °C 16,1 km/h (3 Bft)
24.09.2018 01:52 8,8 °C 92 % 1019,1 hPa 0,0 mm 3,2 km/h (1 Bft) W 272 ° 0 min 0,000 mm 0,0 UV-I 0 W/m² 7,6 °C 8,8 °C 6,4 km/h (2 Bft)
24.09.2018 01:53 8,8 °C 92 % 1019,1 hPa 0,0 mm 4,2 km/h (1 Bft) W 271 ° 0 min 0,000 mm 0,0 UV-I 0 W/m² 7,6 °C 8,8 °C 6,4 km/h (2 Bft)
24.09.2018 01:54 8,8 °C 92 % 1019,1 hPa 0,0 mm 6,4 km/h (2 Bft) W-SW 254 ° 0 min 0,000 mm 0,0 UV-I 0 W/m² 7,6 °C 8,0 °C 11,3 km/h (2 Bft)
24.09.2018 01:55 8,9 °C 92 % 1019,2 hPa 0,0 mm 4,9 km/h (1 Bft) W-NW 295 ° 0 min 0,000 mm 0,0 UV-I 0 W/m² 7,7 °C 8,5 °C 11,3 km/h (2 Bft)
24.09.2018 01:56 8,9 °C 93 % 1019,2 hPa 0,0 mm 7,4 km/h (2 Bft) W-NW 293 ° 0 min 0,000 mm 0,0 UV-I 0 W/m² 7,8 °C 7,9 °C 11,3 km/h (2 Bft)
24.09.2018 01:57 8,9 °C 93 % 1019,2 hPa 0,0 mm 3,5 km/h (1 Bft) W 273 ° 0 min 0,000 mm 0,0 UV-I 0 W/m² 7,8 °C 8,9 °C 6,4 km/h (2 Bft)
24.09.2018 01:58 8,9 °C 93 % 1019,0 hPa 0,0 mm 2,1 km/h (1 Bft) W 271 ° 0 min 0,000 mm 0,0 UV-I 0 W/m² 7,8 °C 8,9 °C 4,8 km/h (1 Bft)
24.09.2018 01:59 8,9 °C 93 % 1019,0 hPa 0,0 mm 10,6 km/h (2 Bft) W-SW 254 ° 0 min 0,000 mm 0,0 UV-I 0 W/m² 7,8 °C 7,2 °C 16,1 km/h (3 Bft)
24.09.2018 02:00 8,9 °C 92 % 1019,0 hPa 0,0 mm 7,4 km/h (2 Bft) W 279 ° 0 min 0,000 mm 0,0 UV-I 0 W/m² 7,7 °C 7,9 °C 11,3 km/h (2 Bft)
24.09.2018 02:01 8,8 °C 92 % 1019,1 hPa 0,0 mm 3,5 km/h (1 Bft) W 271 ° 0 min 0,000 mm 0,0 UV-I 0 W/m² 7,6 °C 8,8 °C 6,4 km/h (2 Bft)
24.09.2018 02:02 8,8 °C 93 % 1019,0 hPa 0,0 mm 6,8 km/h (2 Bft) W 267 ° 0 min 0,000 mm 0,0 UV-I 0 W/m² 7,7 °C 7,9 °C 12,9 km/h (3 Bft)
24.09.2018 02:03 8,8 °C 93 % 1019,0 hPa 0,0 mm 8,0 km/h (2 Bft) W-NW 289 ° 0 min 0,000 mm 0,0 UV-I 0 W/m² 7,7 °C 7,6 °C 11,3 km/h (2 Bft)
24.09.2018 02:04 8,8 °C 93 % 1019,0 hPa 0,0 mm 5,1 km/h (1 Bft) W 261 ° 0 min 0,000 mm 0,0 UV-I 0 W/m² 7,7 °C 8,4 °C 9,7 km/h (2 Bft)
24.09.2018 02:05 8,8 °C 92 % 1019,0 hPa 0,0 mm 11,0 km/h (2 Bft) W 267 ° 0 min 0,000 mm 0,0 UV-I 0 W/m² 7,6 °C 7,0 °C 17,7 km/h (3 Bft)
24.09.2018 02:06 8,8 °C 93 % 1019,0 hPa 0,0 mm 6,8 km/h (2 Bft) W-SW 249 ° 0 min 0,000 mm 0,0 UV-I 0 W/m² 7,7 °C 7,9 °C 12,9 km/h (3 Bft)
24.09.2018 02:07 8,8 °C 93 % 1019,0 hPa 0,0 mm 13,4 km/h (3 Bft) W-SW 250 ° 0 min 0,000 mm 0,0 UV-I 0 W/m² 7,7 °C 6,7 °C 19,3 km/h (3 Bft)
24.09.2018 02:08 8,8 °C 92 % 1019,0 hPa 0,0 mm 11,8 km/h (2 Bft) W 261 ° 0 min 0,000 mm 0,0 UV-I 0 W/m² 7,6 °C 6,9 °C 17,7 km/h (3 Bft)
24.09.2018 02:09 8,8 °C 92 % 1018,9 hPa 0,0 mm 7,7 km/h (2 Bft) W-NW 288 ° 0 min 0,000 mm 0,0 UV-I 0 W/m² 7,6 °C 7,7 °C 11,3 km/h (2 Bft)
24.09.2018 02:10 8,8 °C 92 % 1018,9 hPa 0,0 mm 8,4 km/h (2 Bft) W-SW 249 ° 0 min 0,000 mm 0,0 UV-I 0 W/m² 7,6 °C 7,5 °C 12,9 km/h (3 Bft)
24.09.2018 02:11 8,8 °C 92 % 1018,8 hPa 0,0 mm 8,4 km/h (2 Bft) W-NW 286 ° 0 min 0,000 mm 0,0 UV-I 0 W/m² 7,6 °C 7,5 °C 12,9 km/h (3 Bft)
24.09.2018 02:12 8,8 °C 92 % 1018,8 hPa 0,0 mm 4,3 km/h (1 Bft) W 273 ° 0 min 0,000 mm 0,0 UV-I 0 W/m² 7,6 °C 8,8 °C 9,7 km/h (2 Bft)
24.09.2018 02:13 8,7 °C 92 % 1018,7 hPa 0,0 mm 0,4 km/h (0 Bft) W 273 ° 0 min 0,000 mm 0,0 UV-I 0 W/m² 7,5 °C 8,7 °C 1,6 km/h (1 Bft)
24.09.2018 02:14 8,7 °C 92 % 1018,8 hPa 0,0 mm 1,5 km/h (1 Bft) W 269 ° 0 min 0,000 mm 0,0 UV-I 0 W/m² 7,5 °C 8,7 °C 4,8 km/h (1 Bft)
24.09.2018 02:15 8,7 °C 92 % 1018,8 hPa 0,0 mm 5,8 km/h (2 Bft) W-SW 257 ° 0 min 0,000 mm 0,0 UV-I 0 W/m² 7,5 °C 8,0 °C 12,9 km/h (3 Bft)
24.09.2018 02:16 8,7 °C 92 % 1018,8 hPa 0,0 mm 7,5 km/h (2 Bft) W 277 ° 0 min 0,000 mm 0,0 UV-I 0 W/m² 7,5 °C 7,6 °C 16,1 km/h (3 Bft)
24.09.2018 02:17 8,7 °C 92 % 1018,7 hPa 0,0 mm 6,8 km/h (2 Bft) W-NW 284 ° 0 min 0,000 mm 0,0 UV-I 0 W/m² 7,5 °C 7,8 °C 11,3 km/h (2 Bft)
24.09.2018 02:18 8,7 °C 92 % 1018,8 hPa 0,0 mm 2,7 km/h (1 Bft) W-SW 254 ° 0 min 0,000 mm 0,0 UV-I 0 W/m² 7,5 °C 8,7 °C 4,8 km/h (1 Bft)
24.09.2018 02:19 8,7 °C 92 % 1018,9 hPa 0,0 mm 9,3 km/h (2 Bft) W-NW 290 ° 0 min 0,000 mm 0,0 UV-I 0 W/m² 7,5 °C 7,2 °C 12,9 km/h (3 Bft)
24.09.2018 02:20 8,7 °C 92 % 1018,9 hPa 0,0 mm 8,2 km/h (2 Bft) W-NW 300 ° 0 min 0,000 mm 0,0 UV-I 0 W/m² 7,5 °C 7,4 °C 12,9 km/h (3 Bft)
24.09.2018 02:21 8,7 °C 92 % 1018,9 hPa 0,0 mm 9,5 km/h (2 Bft) NW 304 ° 0 min 0,000 mm 0,0 UV-I 0 W/m² 7,5 °C 7,2 °C 12,9 km/h (3 Bft)
24.09.2018 02:22 8,7 °C 92 % 1019,0 hPa 0,0 mm 8,1 km/h (2 Bft) W 267 ° 0 min 0,000 mm 0,0 UV-I 0 W/m² 7,5 °C 7,5 °C 12,9 km/h (3 Bft)
24.09.2018 02:23 8,7 °C 92 % 1019,0 hPa 0,0 mm 5,0 km/h (1 Bft) W-NW 289 ° 0 min 0,000 mm 0,0 UV-I 0 W/m² 7,5 °C 8,3 °C 6,4 km/h (2 Bft)
24.09.2018 02:24 8,7 °C 92 % 1019,0 hPa 0,0 mm 4,1 km/h (1 Bft) W-NW 292 ° 0 min 0,000 mm 0,0 UV-I 0 W/m² 7,5 °C 8,7 °C 9,7 km/h (2 Bft)
24.09.2018 02:25 8,7 °C 92 % 1019,0 hPa 0,0 mm 10,9 km/h (2 Bft) W-NW 296 ° 0 min 0,000 mm 0,0 UV-I 0 W/m² 7,5 °C 6,9 °C 16,1 km/h (3 Bft)
24.09.2018 02:26 8,7 °C 92 % 1019,0 hPa 0,0 mm 8,1 km/h (2 Bft) W-SW 253 ° 0 min 0,000 mm 0,0 UV-I 0 W/m² 7,5 °C 7,5 °C 14,5 km/h (3 Bft)
24.09.2018 02:27 8,7 °C 92 % 1019,0 hPa 0,0 mm 9,8 km/h (2 Bft) W 267 ° 0 min 0,000 mm 0,0 UV-I 0 W/m² 7,5 °C 7,1 °C 12,9 km/h (3 Bft)
24.09.2018 02:28 8,7 °C 92 % 1019,2 hPa 0,0 mm 10,7 km/h (2 Bft) W 279 ° 0 min 0,000 mm 0,0 UV-I 0 W/m² 7,5 °C 7,0 °C 14,5 km/h (3 Bft)
24.09.2018 02:29 8,7 °C 92 % 1019,2 hPa 0,0 mm 5,1 km/h (1 Bft) W-SW 248 ° 0 min 0,000 mm 0,0 UV-I 0 W/m² 7,5 °C 8,2 °C 11,3 km/h (2 Bft)
24.09.2018 02:30 8,7 °C 92 % 1019,2 hPa 0,0 mm 7,8 km/h (2 Bft) W-NW 288 ° 0 min 0,000 mm 0,0 UV-I 0 W/m² 7,5 °C 7,5 °C 11,3 km/h (2 Bft)
24.09.2018 02:31 8,7 °C 92 % 1019,4 hPa 0,0 mm 13,5 km/h (3 Bft) W-NW 286 ° 0 min 0,000 mm 0,0 UV-I 0 W/m² 7,5 °C 6,5 °C 19,3 km/h (3 Bft)
24.09.2018 02:32 8,7 °C 92 % 1019,4 hPa 0,0 mm 5,0 km/h (1 Bft) W-NW 284 ° 0 min 0,000 mm 0,0 UV-I 0 W/m² 7,5 °C 8,3 °C 6,4 km/h (2 Bft)
24.09.2018 02:33 8,7 °C 92 % 1019,4 hPa 0,0 mm 11,1 km/h (2 Bft) W-NW 297 ° 0 min 0,000 mm 0,0 UV-I 0 W/m² 7,5 °C 6,9 °C 14,5 km/h (3 Bft)
24.09.2018 02:34 8,7 °C 92 % 1019,5 hPa 0,0 mm 4,6 km/h (1 Bft) NW 308 ° 0 min 0,000 mm 0,0 UV-I 0 W/m² 7,5 °C 8,4 °C 6,4 km/h (2 Bft)
24.09.2018 02:35 8,7 °C 92 % 1019,5 hPa 0,0 mm 5,3 km/h (1 Bft) W-NW 293 ° 0 min 0,000 mm 0,0 UV-I 0 W/m² 7,5 °C 8,2 °C 9,7 km/h (2 Bft)
24.09.2018 02:36 8,7 °C 92 % 1019,6 hPa 0,0 mm 10,8 km/h (2 Bft) W-NW 292 ° 0 min 0,000 mm 0,0 UV-I 0 W/m² 7,5 °C 6,9 °C 14,5 km/h (3 Bft)
24.09.2018 02:37 8,7 °C 92 % 1019,7 hPa 0,0 mm 11,3 km/h (2 Bft) W-NW 293 ° 0 min 0,000 mm 0,0 UV-I 0 W/m² 7,5 °C 6,9 °C 16,1 km/h (3 Bft)
24.09.2018 02:38 8,6 °C 92 % 1019,7 hPa 0,0 mm 8,9 km/h (2 Bft) W 259 ° 0 min 0,000 mm 0,0 UV-I 0 W/m² 7,4 °C 7,2 °C 17,7 km/h (3 Bft)
24.09.2018 02:39 8,6 °C 92 % 1019,7 hPa 0,0 mm 8,2 km/h (2 Bft) W-NW 297 ° 0 min 0,000 mm 0,0 UV-I 0 W/m² 7,4 °C 7,3 °C 12,9 km/h (3 Bft)
24.09.2018 02:40 8,6 °C 92 % 1019,7 hPa 0,0 mm 10,7 km/h (2 Bft) W 271 ° 0 min 0,000 mm 0,0 UV-I 0 W/m² 7,4 °C 6,8 °C 16,1 km/h (3 Bft)
24.09.2018 02:41 8,4 °C 92 % 1019,7 hPa 0,0 mm 14,2 km/h (3 Bft) W-NW 296 ° 0 min 0,000 mm 0,0 UV-I 0 W/m² 7,2 °C 6,0 °C 19,3 km/h (3 Bft)
24.09.2018 02:42 8,4 °C 92 % 1019,8 hPa 0,0 mm 8,9 km/h (2 Bft) W-NW 291 ° 0 min 0,000 mm 0,0 UV-I 0 W/m² 7,2 °C 6,9 °C 12,9 km/h (3 Bft)
24.09.2018 02:43 8,4 °C 92 % 1019,8 hPa 0,0 mm 9,9 km/h (2 Bft) W-NW 289 ° 0 min 0,000 mm 0,0 UV-I 0 W/m² 7,2 °C 6,7 °C 14,5 km/h (3 Bft)
24.09.2018 02:44 8,4 °C 92 % 1019,9 hPa 0,0 mm 6,3 km/h (2 Bft) W 281 ° 0 min 0,000 mm 0,0 UV-I 0 W/m² 7,2 °C 7,5 °C 14,5 km/h (3 Bft)
24.09.2018 02:45 8,4 °C 92 % 1019,9 hPa 0,0 mm 10,5 km/h (2 Bft) W 273 ° 0 min 0,000 mm 0,0 UV-I 0 W/m² 7,2 °C 6,6 °C 17,7 km/h (3 Bft)
24.09.2018 02:46 8,3 °C 92 % 1019,9 hPa 0,0 mm 12,0 km/h (2 Bft) W-NW 290 ° 0 min 0,000 mm 0,0 UV-I 0 W/m² 7,1 °C 6,3 °C 17,7 km/h (3 Bft)
24.09.2018 02:47 8,3 °C 92 % 1020,0 hPa 0,0 mm 8,1 km/h (2 Bft) W-NW 299 ° 0 min 0,000 mm 0,0 UV-I 0 W/m² 7,1 °C 7,0 °C 14,5 km/h (3 Bft)
24.09.2018 02:48 8,3 °C 92 % 1020,0 hPa 0,0 mm 9,8 km/h (2 Bft) W 268 ° 0 min 0,000 mm 0,0 UV-I 0 W/m² 7,1 °C 6,6 °C 14,5 km/h (3 Bft)
24.09.2018 02:49 8,3 °C 92 % 1020,0 hPa 0,0 mm 10,9 km/h (2 Bft) W 268 ° 0 min 0,000 mm 0,0 UV-I 0 W/m² 7,1 °C 6,4 °C 16,1 km/h (3 Bft)
24.09.2018 02:50 8,3 °C 92 % 1020,0 hPa 0,0 mm 8,0 km/h (2 Bft) W-NW 291 ° 0 min 0,000 mm 0,0 UV-I 0 W/m² 7,1 °C 7,0 °C 14,5 km/h (3 Bft)
24.09.2018 02:51 8,3 °C 92 % 1020,0 hPa 0,0 mm 8,3 km/h (2 Bft) W 263 ° 0 min 0,000 mm 0,0 UV-I 0 W/m² 7,1 °C 6,9 °C 12,9 km/h (3 Bft)
24.09.2018 02:52 8,2 °C 91 % 1020,0 hPa 0,0 mm 11,6 km/h (2 Bft) W-NW 290 ° 0 min 0,000 mm 0,0 UV-I 0 W/m² 6,8 °C 6,2 °C 14,5 km/h (3 Bft)
24.09.2018 02:53 8,2 °C 91 % 1019,9 hPa 0,0 mm 7,8 km/h (2 Bft) W 265 ° 0 min 0,000 mm 0,0 UV-I 0 W/m² 6,8 °C 6,9 °C 12,9 km/h (3 Bft)
24.09.2018 02:54 8,2 °C 91 % 1019,9 hPa 0,0 mm 5,5 km/h (1 Bft) W 277 ° 0 min 0,000 mm 0,0 UV-I 0 W/m² 6,8 °C 7,6 °C 9,7 km/h (2 Bft)
24.09.2018 02:55 8,2 °C 91 % 1020,0 hPa 0,0 mm 4,4 km/h (1 Bft) W-SW 238 ° 0 min 0,000 mm 0,0 UV-I 0 W/m² 6,8 °C 8,2 °C 8,0 km/h (2 Bft)
24.09.2018 02:56 8,1 °C 91 % 1020,0 hPa 0,0 mm 7,0 km/h (2 Bft) S 172 ° 0 min 0,000 mm 0,0 UV-I 0 W/m² 6,7 °C 7,0 °C 11,3 km/h (2 Bft)
24.09.2018 02:57 8,1 °C 91 % 1020,0 hPa 0,0 mm 9,7 km/h (2 Bft) W 277 ° 0 min 0,000 mm 0,0 UV-I 0 W/m² 6,7 °C 6,4 °C 14,5 km/h (3 Bft)
24.09.2018 02:58 8,1 °C 91 % 1020,0 hPa 0,0 mm 8,4 km/h (2 Bft) W-SW 248 ° 0 min 0,000 mm 0,0 UV-I 0 W/m² 6,7 °C 6,7 °C 12,9 km/h (3 Bft)
24.09.2018 02:59 8,1 °C 91 % 1020,0 hPa 0,0 mm 8,7 km/h (2 Bft) SW 229 ° 0 min 0,000 mm 0,0 UV-I 0 W/m² 6,7 °C 6,6 °C 16,1 km/h (3 Bft)
24.09.2018 03:00 8,0 °C 91 % 1020,0 hPa 0,0 mm 10,6 km/h (2 Bft) W 275 ° 0 min 0,000 mm 0,0 UV-I 0 W/m² 6,6 °C 6,1 °C 20,9 km/h (4 Bft)
24.09.2018 03:01 8,0 °C 91 % 1020,0 hPa 0,0 mm 9,3 km/h (2 Bft) W 279 ° 0 min 0,000 mm 0,0 UV-I 0 W/m² 6,6 °C 6,4 °C 14,5 km/h (3 Bft)
24.09.2018 03:02 8,0 °C 91 % 1020,0 hPa 0,0 mm 9,3 km/h (2 Bft) W-SW 257 ° 0 min 0,000 mm 0,0 UV-I 0 W/m² 6,6 °C 6,4 °C 14,5 km/h (3 Bft)
24.09.2018 03:03 7,9 °C 91 % 1020,0 hPa 0,0 mm 9,7 km/h (2 Bft) W-NW 294 ° 0 min 0,000 mm 0,0 UV-I 0 W/m² 6,5 °C 6,2 °C 14,5 km/h (3 Bft)
24.09.2018 03:04 7,9 °C 91 % 1020,0 hPa 0,0 mm 4,4 km/h (1 Bft) W-NW 298 ° 0 min 0,000 mm 0,0 UV-I 0 W/m² 6,5 °C 7,9 °C 8,0 km/h (2 Bft)
24.09.2018 03:05 7,9 °C 91 % 1020,0 hPa 0,0 mm 5,2 km/h (1 Bft) W-NW 302 ° 0 min 0,000 mm 0,0 UV-I 0 W/m² 6,5 °C 7,3 °C 11,3 km/h (2 Bft)
24.09.2018 03:06 7,9 °C 92 % 1020,0 hPa 0,0 mm 6,0 km/h (2 Bft) W 261 ° 0 min 0,000 mm 0,0 UV-I 0 W/m² 6,7 °C 7,1 °C 16,1 km/h (3 Bft)
24.09.2018 03:07 7,9 °C 92 % 1020,0 hPa 0,0 mm 12,0 km/h (2 Bft) W 267 ° 0 min 0,000 mm 0,0 UV-I 0 W/m² 6,7 °C 5,8 °C 16,1 km/h (3 Bft)
24.09.2018 03:08 7,9 °C 92 % 1020,0 hPa 0,0 mm 9,2 km/h (2 Bft) W 261 ° 0 min 0,000 mm 0,0 UV-I 0 W/m² 6,7 °C 6,3 °C 17,7 km/h (3 Bft)
24.09.2018 03:09 7,8 °C 92 % 1019,9 hPa 0,0 mm 12,6 km/h (3 Bft) W 261 ° 0 min 0,000 mm 0,0 UV-I 0 W/m² 6,6 °C 5,6 °C 17,7 km/h (3 Bft)
24.09.2018 03:10 7,8 °C 91 % 1019,9 hPa 0,0 mm 10,7 km/h (2 Bft) W 279 ° 0 min 0,000 mm 0,0 UV-I 0 W/m² 6,4 °C 5,9 °C 12,9 km/h (3 Bft)
24.09.2018 03:11 7,8 °C 92 % 1020,1 hPa 0,0 mm 8,1 km/h (2 Bft) W-SW 252 ° 0 min 0,000 mm 0,0 UV-I 0 W/m² 6,6 °C 6,4 °C 14,5 km/h (3 Bft)
24.09.2018 03:12 7,8 °C 92 % 1020,1 hPa 0,0 mm 11,6 km/h (2 Bft) W 281 ° 0 min 0,000 mm 0,0 UV-I 0 W/m² 6,6 °C 5,7 °C 16,1 km/h (3 Bft)
24.09.2018 03:13 7,8 °C 92 % 1020,1 hPa 0,2 mm 5,4 km/h (1 Bft) W 275 ° 0 min 0,000 mm 0,0 UV-I 0 W/m² 6,6 °C 7,1 °C 9,7 km/h (2 Bft)
24.09.2018 03:14 7,8 °C 92 % 1020,1 hPa 0,0 mm 5,8 km/h (2 Bft) W-SW 243 ° 0 min 0,000 mm 0,0 UV-I 0 W/m² 6,6 °C 7,0 °C 12,9 km/h (3 Bft)
24.09.2018 03:15 7,8 °C 92 % 1020,1 hPa 0,0 mm 12,2 km/h (2 Bft) W 260 ° 0 min 0,000 mm 0,0 UV-I 0 W/m² 6,6 °C 5,6 °C 14,5 km/h (3 Bft)
24.09.2018 03:16 7,8 °C 92 % 1020,1 hPa 0,0 mm 10,0 km/h (2 Bft) S-SW 200 ° 0 min 0,000 mm 0,0 UV-I 0 W/m² 6,6 °C 6,0 °C 16,1 km/h (3 Bft)
24.09.2018 03:17 7,8 °C 92 % 1020,1 hPa 0,0 mm 10,3 km/h (2 Bft) W 272 ° 0 min 0,000 mm 0,0 UV-I 0 W/m² 6,6 °C 5,9 °C 16,1 km/h (3 Bft)
24.09.2018 03:18 7,8 °C 92 % 1020,3 hPa 0,0 mm 3,3 km/h (1 Bft) W-SW 254 ° 0 min 0,000 mm 0,0 UV-I 0 W/m² 6,6 °C 7,8 °C 6,4 km/h (2 Bft)
24.09.2018 03:19 7,8 °C 92 % 1020,3 hPa 0,0 mm 1,5 km/h (1 Bft) W-SW 252 ° 0 min 0,000 mm 0,0 UV-I 0 W/m² 6,6 °C 7,8 °C 3,2 km/h (1 Bft)
24.09.2018 03:20 7,8 °C 92 % 1020,2 hPa 0,0 mm 6,0 km/h (2 Bft) W 259 ° 0 min 0,000 mm 0,0 UV-I 0 W/m² 6,6 °C 6,9 °C 12,9 km/h (3 Bft)
24.09.2018 03:21 7,8 °C 92 % 1020,2 hPa 0,0 mm 7,6 km/h (2 Bft) W-SW 251 ° 0 min 0,000 mm 0,0 UV-I 0 W/m² 6,6 °C 6,5 °C 12,9 km/h (3 Bft)
24.09.2018 03:22 7,8 °C 92 % 1020,2 hPa 0,0 mm 6,3 km/h (2 Bft) W 274 ° 0 min 0,000 mm 0,0 UV-I 0 W/m² 6,6 °C 6,9 °C 9,7 km/h (2 Bft)
24.09.2018 03:23 7,8 °C 92 % 1020,2 hPa 0,0 mm 8,7 km/h (2 Bft) W 279 ° 0 min 0,000 mm 0,0 UV-I 0 W/m² 6,6 °C 6,3 °C 14,5 km/h (3 Bft)
24.09.2018 03:24 7,8 °C 92 % 1020,2 hPa 0,0 mm 6,9 km/h (2 Bft) W 261 ° 0 min 0,000 mm 0,0 UV-I 0 W/m² 6,6 °C 6,7 °C 11,3 km/h (2 Bft)
24.09.2018 03:25 7,8 °C 92 % 1020,2 hPa 0,0 mm 6,3 km/h (2 Bft) W 263 ° 0 min 0,000 mm 0,0 UV-I 0 W/m² 6,6 °C 6,9 °C 11,3 km/h (2 Bft)
24.09.2018 03:26 7,8 °C 92 % 1020,1 hPa 0,0 mm 8,9 km/h (2 Bft) W 272 ° 0 min 0,000 mm 0,0 UV-I 0 W/m² 6,6 °C 6,2 °C 12,9 km/h (3 Bft)
24.09.2018 03:27 7,8 °C 92 % 1020,1 hPa 0,0 mm 2,5 km/h (1 Bft) W 272 ° 0 min 0,000 mm 0,0 UV-I 0 W/m² 6,6 °C 7,8 °C 4,8 km/h (1 Bft)
24.09.2018 03:28 7,8 °C 92 % 1020,1 hPa 0,2 mm 3,0 km/h (1 Bft) W 275 ° 0 min 0,000 mm 0,0 UV-I 0 W/m² 6,6 °C 7,8 °C 4,8 km/h (1 Bft)
24.09.2018 03:29 7,8 °C 92 % 1020,1 hPa 0,0 mm 4,8 km/h (1 Bft) SW 233 ° 0 min 0,000 mm 0,0 UV-I 0 W/m² 6,6 °C 7,3 °C 8,0 km/h (2 Bft)
24.09.2018 03:30 7,8 °C 93 % 1020,1 hPa 0,0 mm 5,9 km/h (2 Bft) W 261 ° 0 min 0,000 mm 0,0 UV-I 0 W/m² 6,7 °C 7,0 °C 11,3 km/h (2 Bft)
24.09.2018 03:31 7,8 °C 92 % 1020,1 hPa 0,0 mm 5,4 km/h (1 Bft) W-NW 290 ° 0 min 0,000 mm 0,0 UV-I 0 W/m² 6,6 °C 7,1 °C 11,3 km/h (2 Bft)
24.09.2018 03:32 7,8 °C 92 % 1020,1 hPa 0,0 mm 13,0 km/h (3 Bft) W-SW 242 ° 0 min 0,000 mm 0,0 UV-I 0 W/m² 6,6 °C 5,5 °C 17,7 km/h (3 Bft)
24.09.2018 03:33 7,8 °C 92 % 1020,1 hPa 0,2 mm 10,7 km/h (2 Bft) W 260 ° 0 min 0,000 mm 0,0 UV-I 0 W/m² 6,6 °C 5,9 °C 12,9 km/h (3 Bft)
24.09.2018 03:34 7,8 °C 92 % 1020,1 hPa 0,0 mm 4,2 km/h (1 Bft) W 270 ° 0 min 0,000 mm 0,0 UV-I 0 W/m² 6,6 °C 7,8 °C 6,4 km/h (2 Bft)
24.09.2018 03:35 7,8 °C 92 % 1020,1 hPa 0,0 mm 4,2 km/h (1 Bft) W-SW 243 ° 0 min 0,000 mm 0,0 UV-I 0 W/m² 6,6 °C 7,8 °C 11,3 km/h (2 Bft)
24.09.2018 03:36 7,7 °C 92 % 1020,1 hPa 0,0 mm 8,0 km/h (2 Bft) W 260 ° 0 min 0,000 mm 0,0 UV-I 0 W/m² 6,5 °C 6,3 °C 12,9 km/h (3 Bft)
24.09.2018 03:37 7,7 °C 92 % 1020,1 hPa 0,0 mm 5,4 km/h (1 Bft) W-SW 243 ° 0 min 0,000 mm 0,0 UV-I 0 W/m² 6,5 °C 7,0 °C 9,7 km/h (2 Bft)
24.09.2018 03:38 7,7 °C 92 % 1020,3 hPa 0,0 mm 11,7 km/h (2 Bft) W 279 ° 0 min 0,000 mm 0,0 UV-I 0 W/m² 6,5 °C 5,6 °C 20,9 km/h (4 Bft)
24.09.2018 03:39 7,7 °C 92 % 1020,3 hPa 0,0 mm 10,6 km/h (2 Bft) W 272 ° 0 min 0,000 mm 0,0 UV-I 0 W/m² 6,5 °C 5,8 °C 17,7 km/h (3 Bft)
24.09.2018 03:40 7,7 °C 92 % 1020,3 hPa 0,0 mm 9,7 km/h (2 Bft) W-SW 248 ° 0 min 0,000 mm 0,0 UV-I 0 W/m² 6,5 °C 5,9 °C 12,9 km/h (3 Bft)
24.09.2018 03:41 7,7 °C 92 % 1020,3 hPa 0,0 mm 11,0 km/h (2 Bft) SW 229 ° 0 min 0,000 mm 0,0 UV-I 0 W/m² 6,5 °C 5,7 °C 19,3 km/h (3 Bft)
24.09.2018 03:42 7,7 °C 92 % 1020,2 hPa 0,0 mm 8,9 km/h (2 Bft) W 265 ° 0 min 0,000 mm 0,0 UV-I 0 W/m² 6,5 °C 6,1 °C 12,9 km/h (3 Bft)
24.09.2018 03:43 7,7 °C 92 % 1020,2 hPa 0,0 mm 12,3 km/h (3 Bft) W 263 ° 0 min 0,000 mm 0,0 UV-I 0 W/m² 6,5 °C 5,5 °C 16,1 km/h (3 Bft)
24.09.2018 03:44 7,7 °C 92 % 1020,3 hPa 0,0 mm 8,1 km/h (2 Bft) W 269 ° 0 min 0,000 mm 0,0 UV-I 0 W/m² 6,5 °C 6,3 °C 12,9 km/h (3 Bft)
24.09.2018 03:45 7,7 °C 92 % 1020,2 hPa 0,0 mm 6,1 km/h (2 Bft) W 278 ° 0 min 0,000 mm 0,0 UV-I 0 W/m² 6,5 °C 6,8 °C 9,7 km/h (2 Bft)
24.09.2018 03:46 7,7 °C 92 % 1020,2 hPa 0,0 mm 7,7 km/h (2 Bft) W-SW 250 ° 0 min 0,000 mm 0,0 UV-I 0 W/m² 6,5 °C 6,4 °C 12,9 km/h (3 Bft)
24.09.2018 03:47 7,7 °C 92 % 1020,2 hPa 0,0 mm 9,3 km/h (2 Bft) W 267 ° 0 min 0,000 mm 0,0 UV-I 0 W/m² 6,5 °C 6,0 °C 14,5 km/h (3 Bft)
24.09.2018 03:48 7,6 °C 92 % 1020,3 hPa 0,0 mm 8,2 km/h (2 Bft) W-SW 248 ° 0 min 0,000 mm 0,0 UV-I 0 W/m² 6,4 °C 6,1 °C 14,5 km/h (3 Bft)
24.09.2018 03:49 7,6 °C 92 % 1020,3 hPa 0,0 mm 10,8 km/h (2 Bft) W 259 ° 0 min 0,000 mm 0,0 UV-I 0 W/m² 6,4 °C 5,6 °C 16,1 km/h (3 Bft)
24.09.2018 03:50 7,6 °C 92 % 1020,3 hPa 0,0 mm 11,5 km/h (2 Bft) W-SW 257 ° 0 min 0,000 mm 0,0 UV-I 0 W/m² 6,4 °C 5,5 °C 19,3 km/h (3 Bft)
24.09.2018 03:51 7,6 °C 92 % 1020,3 hPa 0,0 mm 4,6 km/h (1 Bft) W 281 ° 0 min 0,000 mm 0,0 UV-I 0 W/m² 6,4 °C 7,2 °C 9,7 km/h (2 Bft)
24.09.2018 03:52 7,6 °C 92 % 1020,3 hPa 0,2 mm 4,8 km/h (1 Bft) W-NW 296 ° 0 min 0,000 mm 0,0 UV-I 0 W/m² 6,4 °C 7,1 °C 9,7 km/h (2 Bft)
24.09.2018 03:53 7,6 °C 92 % 1020,3 hPa 0,0 mm 5,0 km/h (1 Bft) W 267 ° 0 min 0,000 mm 0,0 UV-I 0 W/m² 6,4 °C 7,0 °C 9,7 km/h (2 Bft)
24.09.2018 03:54 7,6 °C 93 % 1020,3 hPa 0,0 mm 7,6 km/h (2 Bft) SW 226 ° 0 min 0,000 mm 0,0 UV-I 0 W/m² 6,5 °C 6,3 °C 12,9 km/h (3 Bft)
24.09.2018 03:55 7,6 °C 93 % 1020,3 hPa 0,0 mm 5,4 km/h (1 Bft) W-NW 293 ° 0 min 0,000 mm 0,0 UV-I 0 W/m² 6,5 °C 6,9 °C 9,7 km/h (2 Bft)
24.09.2018 03:56 7,6 °C 92 % 1020,3 hPa 0,0 mm 6,1 km/h (2 Bft) W-NW 289 ° 0 min 0,000 mm 0,0 UV-I 0 W/m² 6,4 °C 6,7 °C 11,3 km/h (2 Bft)
24.09.2018 03:57 7,6 °C 92 % 1020,4 hPa 0,0 mm 10,2 km/h (2 Bft) W 281 ° 0 min 0,000 mm 0,0 UV-I 0 W/m² 6,4 °C 5,7 °C 16,1 km/h (3 Bft)
24.09.2018 03:58 7,5 °C 93 % 1020,4 hPa 0,0 mm 7,6 km/h (2 Bft) W 272 ° 0 min 0,000 mm 0,0 UV-I 0 W/m² 6,4 °C 6,2 °C 14,5 km/h (3 Bft)
24.09.2018 03:59 7,6 °C 93 % 1020,3 hPa 0,0 mm 7,4 km/h (2 Bft) W 273 ° 0 min 0,000 mm 0,0 UV-I 0 W/m² 6,5 °C 6,3 °C 12,9 km/h (3 Bft)
24.09.2018 04:00 7,5 °C 93 % 1020,4 hPa 0,0 mm 4,4 km/h (1 Bft) W 259 ° 0 min 0,000 mm 0,0 UV-I 0 W/m² 6,4 °C 7,5 °C 8,0 km/h (2 Bft)
24.09.2018 04:01 7,5 °C 93 % 1020,4 hPa 0,0 mm 4,4 km/h (1 Bft) W 267 ° 0 min 0,000 mm 0,0 UV-I 0 W/m² 6,4 °C 7,5 °C 6,4 km/h (2 Bft)
24.09.2018 04:02 7,4 °C 93 % 1020,4 hPa 0,0 mm 11,4 km/h (2 Bft) W-SW 250 ° 0 min 0,000 mm 0,0 UV-I 0 W/m² 6,3 °C 5,3 °C 17,7 km/h (3 Bft)
24.09.2018 04:03 7,4 °C 93 % 1020,4 hPa 0,0 mm 10,9 km/h (2 Bft) W 267 ° 0 min 0,000 mm 0,0 UV-I 0 W/m² 6,3 °C 5,4 °C 16,1 km/h (3 Bft)
24.09.2018 04:04 7,4 °C 93 % 1020,4 hPa 0,0 mm 8,9 km/h (2 Bft) W-NW 284 ° 0 min 0,000 mm 0,0 UV-I 0 W/m² 6,3 °C 5,8 °C 12,9 km/h (3 Bft)
24.09.2018 04:05 7,4 °C 93 % 1020,4 hPa 0,0 mm 7,6 km/h (2 Bft) W 259 ° 0 min 0,000 mm 0,0 UV-I 0 W/m² 6,3 °C 6,0 °C 11,3 km/h (2 Bft)
24.09.2018 04:06 7,4 °C 93 % 1020,5 hPa 0,0 mm 9,5 km/h (2 Bft) W-NW 285 ° 0 min 0,000 mm 0,0 UV-I 0 W/m² 6,3 °C 5,6 °C 14,5 km/h (3 Bft)
24.09.2018 04:07 7,4 °C 93 % 1020,6 hPa 0,2 mm 7,4 km/h (2 Bft) W 267 ° 0 min 0,000 mm 0,0 UV-I 0 W/m² 6,3 °C 6,1 °C 14,5 km/h (3 Bft)
24.09.2018 04:08 7,4 °C 92 % 1020,6 hPa 0,0 mm 9,9 km/h (2 Bft) W 272 ° 0 min 0,000 mm 0,0 UV-I 0 W/m² 6,2 °C 5,5 °C 16,1 km/h (3 Bft)
24.09.2018 04:09 7,4 °C 93 % 1020,6 hPa 0,0 mm 6,8 km/h (2 Bft) NW 304 ° 0 min 0,000 mm 0,0 UV-I 0 W/m² 6,3 °C 6,3 °C 12,9 km/h (3 Bft)
24.09.2018 04:10 7,4 °C 93 % 1020,6 hPa 0,0 mm 6,4 km/h (2 Bft) W-NW 284 ° 0 min 0,000 mm 0,0 UV-I 0 W/m² 6,3 °C 6,4 °C 11,3 km/h (2 Bft)
24.09.2018 04:11 7,4 °C 92 % 1020,6 hPa 0,0 mm 9,1 km/h (2 Bft) W-SW 254 ° 0 min 0,000 mm 0,0 UV-I 0 W/m² 6,2 °C 5,7 °C 16,1 km/h (3 Bft)
24.09.2018 04:12 7,4 °C 93 % 1020,7 hPa 0,0 mm 11,7 km/h (2 Bft) W 269 ° 0 min 0,000 mm 0,0 UV-I 0 W/m² 6,3 °C 5,2 °C 17,7 km/h (3 Bft)
24.09.2018 04:13 7,3 °C 93 % 1020,7 hPa 0,0 mm 9,4 km/h (2 Bft) W-SW 241 ° 0 min 0,000 mm 0,0 UV-I 0 W/m² 6,2 °C 5,5 °C 12,9 km/h (3 Bft)
24.09.2018 04:14 7,3 °C 92 % 1020,7 hPa 0,0 mm 11,5 km/h (2 Bft) W 275 ° 0 min 0,000 mm 0,0 UV-I 0 W/m² 6,1 °C 5,1 °C 16,1 km/h (3 Bft)
24.09.2018 04:15 7,3 °C 92 % 1020,7 hPa 0,0 mm 8,7 km/h (2 Bft) W-NW 302 ° 0 min 0,000 mm 0,0 UV-I 0 W/m² 6,1 °C 5,7 °C 12,9 km/h (3 Bft)
24.09.2018 04:16 7,3 °C 92 % 1020,7 hPa 0,0 mm 5,1 km/h (1 Bft) W 279 ° 0 min 0,000 mm 0,0 UV-I 0 W/m² 6,1 °C 6,7 °C 9,7 km/h (2 Bft)
24.09.2018 04:17 7,3 °C 92 % 1020,7 hPa 0,0 mm 9,0 km/h (2 Bft) W-NW 296 ° 0 min 0,000 mm 0,0 UV-I 0 W/m² 6,1 °C 5,6 °C 16,1 km/h (3 Bft)
24.09.2018 04:18 7,3 °C 92 % 1020,7 hPa 0,0 mm 6,4 km/h (2 Bft) NW 304 ° 0 min 0,000 mm 0,0 UV-I 0 W/m² 6,1 °C 6,3 °C 11,3 km/h (2 Bft)
24.09.2018 04:19 7,3 °C 92 % 1020,7 hPa 0,0 mm 10,3 km/h (2 Bft) W 280 ° 0 min 0,000 mm 0,0 UV-I 0 W/m² 6,1 °C 5,3 °C 14,5 km/h (3 Bft)
24.09.2018 04:20 7,3 °C 92 % 1020,8 hPa 0,2 mm 10,6 km/h (2 Bft) W 281 ° 0 min 0,000 mm 0,0 UV-I 0 W/m² 6,1 °C 5,3 °C 16,1 km/h (3 Bft)
24.09.2018 04:21 7,3 °C 92 % 1020,8 hPa 0,0 mm 5,9 km/h (2 Bft) W-SW 241 ° 0 min 0,000 mm 0,0 UV-I 0 W/m² 6,1 °C 6,4 °C 11,3 km/h (2 Bft)
24.09.2018 04:22 7,3 °C 92 % 1020,8 hPa 0,0 mm 9,1 km/h (2 Bft) W-NW 284 ° 0 min 0,000 mm 0,0 UV-I 0 W/m² 6,1 °C 5,6 °C 14,5 km/h (3 Bft)
24.09.2018 04:23 7,3 °C 92 % 1020,8 hPa 0,0 mm 5,4 km/h (1 Bft) W 279 ° 0 min 0,000 mm 0,0 UV-I 0 W/m² 6,1 °C 6,6 °C 8,0 km/h (2 Bft)
24.09.2018 04:24 7,2 °C 92 % 1020,8 hPa 0,0 mm 12,9 km/h (3 Bft) W-NW 290 ° 0 min 0,000 mm 0,0 UV-I 0 W/m² 6,0 °C 4,8 °C 16,1 km/h (3 Bft)
24.09.2018 04:25 7,3 °C 92 % 1020,8 hPa 0,0 mm 8,5 km/h (2 Bft) W 271 ° 0 min 0,000 mm 0,0 UV-I 0 W/m² 6,1 °C 5,7 °C 14,5 km/h (3 Bft)
24.09.2018 04:26 7,2 °C 92 % 1020,8 hPa 0,0 mm 5,0 km/h (1 Bft) W 281 ° 0 min 0,000 mm 0,0 UV-I 0 W/m² 6,0 °C 6,6 °C 12,9 km/h (3 Bft)
24.09.2018 04:27 7,2 °C 92 % 1020,8 hPa 0,0 mm 10,6 km/h (2 Bft) W 261 ° 0 min 0,000 mm 0,0 UV-I 0 W/m² 6,0 °C 5,2 °C 16,1 km/h (3 Bft)
24.09.2018 04:28 7,2 °C 92 % 1020,8 hPa 0,0 mm 8,0 km/h (2 Bft) W-SW 257 ° 0 min 0,000 mm 0,0 UV-I 0 W/m² 6,0 °C 5,7 °C 11,3 km/h (2 Bft)
24.09.2018 04:29 7,2 °C 92 % 1020,9 hPa 0,0 mm 5,4 km/h (1 Bft) W 281 ° 0 min 0,000 mm 0,0 UV-I 0 W/m² 6,0 °C 6,4 °C 8,0 km/h (2 Bft)
24.09.2018 04:30 7,2 °C 92 % 1020,9 hPa 0,0 mm 6,7 km/h (2 Bft) W 264 ° 0 min 0,000 mm 0,0 UV-I 0 W/m² 6,0 °C 6,1 °C 11,3 km/h (2 Bft)
24.09.2018 04:31 7,2 °C 92 % 1021,0 hPa 0,0 mm 7,8 km/h (2 Bft) W-NW 294 ° 0 min 0,000 mm 0,0 UV-I 0 W/m² 6,0 °C 5,8 °C 11,3 km/h (2 Bft)
24.09.2018 04:32 7,2 °C 92 % 1021,0 hPa 0,0 mm 6,3 km/h (2 Bft) W 265 ° 0 min 0,000 mm 0,0 UV-I 0 W/m² 6,0 °C 6,2 °C 11,3 km/h (2 Bft)
24.09.2018 04:33 7,2 °C 92 % 1021,0 hPa 0,0 mm 8,1 km/h (2 Bft) W 275 ° 0 min 0,000 mm 0,0 UV-I 0 W/m² 6,0 °C 5,7 °C 11,3 km/h (2 Bft)
24.09.2018 04:34 7,2 °C 92 % 1021,1 hPa 0,0 mm 7,4 km/h (2 Bft) W-NW 299 ° 0 min 0,000 mm 0,0 UV-I 0 W/m² 6,0 °C 5,9 °C 11,3 km/h (2 Bft)
24.09.2018 04:35 7,2 °C 92 % 1021,1 hPa 0,0 mm 5,6 km/h (1 Bft) W 263 ° 0 min 0,000 mm 0,0 UV-I 0 W/m² 6,0 °C 6,4 °C 8,0 km/h (2 Bft)
24.09.2018 04:36 7,2 °C 92 % 1021,1 hPa 0,0 mm 6,4 km/h (2 Bft) NW 306 ° 0 min 0,000 mm 0,0 UV-I 0 W/m² 6,0 °C 6,1 °C 9,7 km/h (2 Bft)
24.09.2018 04:37 7,2 °C 92 % 1021,2 hPa 0,0 mm 2,5 km/h (1 Bft) W-NW 295 ° 0 min 0,000 mm 0,0 UV-I 0 W/m² 6,0 °C 7,2 °C 8,0 km/h (2 Bft)
24.09.2018 04:38 7,2 °C 92 % 1021,1 hPa 0,0 mm 3,2 km/h (1 Bft) W 275 ° 0 min 0,000 mm 0,0 UV-I 0 W/m² 6,0 °C 7,2 °C 6,4 km/h (2 Bft)
24.09.2018 04:39 7,2 °C 92 % 1021,1 hPa 0,0 mm 5,0 km/h (1 Bft) W-NW 285 ° 0 min 0,000 mm 0,0 UV-I 0 W/m² 6,0 °C 6,6 °C 8,0 km/h (2 Bft)
24.09.2018 04:40 7,2 °C 92 % 1021,1 hPa 0,0 mm 5,7 km/h (1 Bft) W-NW 290 ° 0 min 0,000 mm 0,0 UV-I 0 W/m² 6,0 °C 6,3 °C 8,0 km/h (2 Bft)
24.09.2018 04:41 7,1 °C 92 % 1021,1 hPa 0,0 mm 4,7 km/h (1 Bft) W-NW 298 ° 0 min 0,000 mm 0,0 UV-I 0 W/m² 5,9 °C 6,6 °C 6,4 km/h (2 Bft)
24.09.2018 04:42 7,1 °C 92 % 1021,1 hPa 0,0 mm 1,7 km/h (1 Bft) W-NW 298 ° 0 min 0,000 mm 0,0 UV-I 0 W/m² 5,9 °C 7,1 °C 4,8 km/h (1 Bft)
24.09.2018 04:43 7,1 °C 92 % 1021,1 hPa 0,0 mm 2,7 km/h (1 Bft) W-NW 298 ° 0 min 0,000 mm 0,0 UV-I 0 W/m² 5,9 °C 7,1 °C 4,8 km/h (1 Bft)
24.09.2018 04:44 7,1 °C 92 % 1021,1 hPa 0,0 mm 5,3 km/h (1 Bft) W-NW 285 ° 0 min 0,000 mm 0,0 UV-I 0 W/m² 5,9 °C 6,4 °C 9,7 km/h (2 Bft)
24.09.2018 04:45 7,2 °C 92 % 1021,0 hPa 0,0 mm 7,2 km/h (2 Bft) W-NW 284 ° 0 min 0,000 mm 0,0 UV-I 0 W/m² 6,0 °C 5,9 °C 11,3 km/h (2 Bft)
24.09.2018 04:46 7,1 °C 92 % 1021,1 hPa 0,0 mm 3,6 km/h (1 Bft) W-SW 254 ° 0 min 0,000 mm 0,0 UV-I 0 W/m² 5,9 °C 7,1 °C 4,8 km/h (1 Bft)
24.09.2018 04:47 7,1 °C 92 % 1021,1 hPa 0,0 mm 5,1 km/h (1 Bft) SW 236 ° 0 min 0,000 mm 0,0 UV-I 0 W/m² 5,9 °C 6,4 °C 9,7 km/h (2 Bft)
24.09.2018 04:48 7,1 °C 92 % 1021,1 hPa 0,0 mm 5,4 km/h (1 Bft) W 263 ° 0 min 0,000 mm 0,0 UV-I 0 W/m² 5,9 °C 6,3 °C 9,7 km/h (2 Bft)
24.09.2018 04:49 7,1 °C 92 % 1021,2 hPa 0,0 mm 1,7 km/h (1 Bft) W 263 ° 0 min 0,000 mm 0,0 UV-I 0 W/m² 5,9 °C 7,1 °C 3,2 km/h (1 Bft)
24.09.2018 04:50 7,1 °C 92 % 1021,2 hPa 0,0 mm 0,3 km/h (0 Bft) W 263 ° 0 min 0,000 mm 0,0 UV-I 0 W/m² 5,9 °C 7,1 °C 1,6 km/h (1 Bft)
24.09.2018 04:51 7,1 °C 93 % 1021,2 hPa 0,0 mm 1,1 km/h (1 Bft) W 263 ° 0 min 0,000 mm 0,0 UV-I 0 W/m² 6,0 °C 7,1 °C 1,6 km/h (1 Bft)
24.09.2018 04:52 7,1 °C 93 % 1021,3 hPa 0,0 mm 0,4 km/h (0 Bft) W 263 ° 0 min 0,000 mm 0,0 UV-I 0 W/m² 6,0 °C 7,1 °C 1,6 km/h (1 Bft)
24.09.2018 04:53 7,1 °C 93 % 1021,3 hPa 0,0 mm 1,3 km/h (1 Bft) W 270 ° 0 min 0,000 mm 0,0 UV-I 0 W/m² 6,0 °C 7,1 °C 4,8 km/h (1 Bft)
24.09.2018 04:54 7,1 °C 93 % 1021,3 hPa 0,0 mm 4,6 km/h (1 Bft) W 265 ° 0 min 0,000 mm 0,0 UV-I 0 W/m² 6,0 °C 6,6 °C 12,9 km/h (3 Bft)
24.09.2018 04:55 7,1 °C 93 % 1021,3 hPa 0,0 mm 7,2 km/h (2 Bft) S-SW 213 ° 0 min 0,000 mm 0,0 UV-I 0 W/m² 6,0 °C 5,8 °C 12,9 km/h (3 Bft)
24.09.2018 04:56 7,1 °C 93 % 1021,4 hPa 0,0 mm 7,5 km/h (2 Bft) W-NW 292 ° 0 min 0,000 mm 0,0 UV-I 0 W/m² 6,0 °C 5,7 °C 12,9 km/h (3 Bft)
24.09.2018 04:57 7,1 °C 93 % 1021,4 hPa 0,0 mm 2,5 km/h (1 Bft) W 281 ° 0 min 0,000 mm 0,0 UV-I 0 W/m² 6,0 °C 7,1 °C 4,8 km/h (1 Bft)
24.09.2018 04:58 7,1 °C 93 % 1021,5 hPa 0,0 mm 3,1 km/h (1 Bft) W-SW 256 ° 0 min 0,000 mm 0,0 UV-I 0 W/m² 6,0 °C 7,1 °C 4,8 km/h (1 Bft)
24.09.2018 04:59 7,1 °C 93 % 1021,5 hPa 0,0 mm 7,7 km/h (2 Bft) W-NW 296 ° 0 min 0,000 mm 0,0 UV-I 0 W/m² 6,0 °C 5,7 °C 11,3 km/h (2 Bft)
24.09.2018 05:00 7,1 °C 92 % 1021,4 hPa 0,0 mm 7,0 km/h (2 Bft) W 273 ° 0 min 0,000 mm 0,0 UV-I 0 W/m² 5,9 °C 5,9 °C 12,9 km/h (3 Bft)
24.09.2018 05:01 7,1 °C 93 % 1021,5 hPa 0,0 mm 3,7 km/h (1 Bft) W 272 ° 0 min 0,000 mm 0,0 UV-I 0 W/m² 6,0 °C 7,1 °C 4,8 km/h (1 Bft)
24.09.2018 05:02 7,1 °C 93 % 1021,5 hPa 0,0 mm 6,7 km/h (2 Bft) W 268 ° 0 min 0,000 mm 0,0 UV-I 0 W/m² 6,0 °C 5,9 °C 9,7 km/h (2 Bft)
24.09.2018 05:03 7,1 °C 93 % 1021,5 hPa 0,0 mm 3,8 km/h (1 Bft) W 273 ° 0 min 0,000 mm 0,0 UV-I 0 W/m² 6,0 °C 7,1 °C 6,4 km/h (2 Bft)
24.09.2018 05:04 7,1 °C 93 % 1021,6 hPa 0,0 mm 9,7 km/h (2 Bft) W-NW 284 ° 0 min 0,000 mm 0,0 UV-I 0 W/m² 6,0 °C 5,2 °C 16,1 km/h (3 Bft)
24.09.2018 05:05 7,1 °C 93 % 1021,6 hPa 0,2 mm 4,6 km/h (1 Bft) W-NW 290 ° 0 min 0,000 mm 0,0 UV-I 0 W/m² 6,0 °C 6,6 °C 9,7 km/h (2 Bft)
24.09.2018 05:06 7,1 °C 93 % 1021,6 hPa 0,0 mm 5,9 km/h (2 Bft) W-SW 248 ° 0 min 0,000 mm 0,0 UV-I 0 W/m² 6,0 °C 6,2 °C 9,7 km/h (2 Bft)
24.09.2018 05:07 7,1 °C 93 % 1021,6 hPa 0,0 mm 5,1 km/h (1 Bft) W 281 ° 0 min 0,000 mm 0,0 UV-I 0 W/m² 6,0 °C 6,4 °C 8,0 km/h (2 Bft)
24.09.2018 05:08 7,1 °C 93 % 1021,6 hPa 0,0 mm 5,7 km/h (1 Bft) W-SW 252 ° 0 min 0,000 mm 0,0 UV-I 0 W/m² 6,0 °C 6,2 °C 12,9 km/h (3 Bft)
24.09.2018 05:09 7,1 °C 93 % 1021,7 hPa 0,0 mm 9,9 km/h (2 Bft) W-NW 298 ° 0 min 0,000 mm 0,0 UV-I 0 W/m² 6,0 °C 5,2 °C 14,5 km/h (3 Bft)
24.09.2018 05:10 7,1 °C 93 % 1021,7 hPa 0,0 mm 8,5 km/h (2 Bft) W-NW 288 ° 0 min 0,000 mm 0,0 UV-I 0 W/m² 6,0 °C 5,5 °C 12,9 km/h (3 Bft)
24.09.2018 05:11 7,1 °C 92 % 1021,7 hPa 0,0 mm 6,4 km/h (2 Bft) W-NW 286 ° 0 min 0,000 mm 0,0 UV-I 0 W/m² 5,9 °C 6,0 °C 11,3 km/h (2 Bft)
24.09.2018 05:12 7,1 °C 93 % 1021,7 hPa 0,0 mm 4,8 km/h (1 Bft) W-NW 294 ° 0 min 0,000 mm 0,0 UV-I 0 W/m² 6,0 °C 6,5 °C 9,7 km/h (2 Bft)
24.09.2018 05:13 7,1 °C 92 % 1021,7 hPa 0,0 mm 4,6 km/h (1 Bft) W 264 ° 0 min 0,000 mm 0,0 UV-I 0 W/m² 5,9 °C 6,6 °C 6,4 km/h (2 Bft)
24.09.2018 05:14 7,1 °C 93 % 1021,7 hPa 0,0 mm 5,6 km/h (1 Bft) W 268 ° 0 min 0,000 mm 0,0 UV-I 0 W/m² 6,0 °C 6,3 °C 9,7 km/h (2 Bft)
24.09.2018 05:15 7,1 °C 93 % 1021,7 hPa 0,0 mm 6,3 km/h (2 Bft) W-NW 290 ° 0 min 0,000 mm 0,0 UV-I 0 W/m² 6,0 °C 6,0 °C 14,5 km/h (3 Bft)
24.09.2018 05:16 7,1 °C 93 % 1021,7 hPa 0,0 mm 6,8 km/h (2 Bft) NW 309 ° 0 min 0,000 mm 0,0 UV-I 0 W/m² 6,0 °C 5,9 °C 9,7 km/h (2 Bft)
24.09.2018 05:17 7,1 °C 92 % 1021,8 hPa 0,0 mm 5,8 km/h (2 Bft) NW 305 ° 0 min 0,000 mm 0,0 UV-I 0 W/m² 5,9 °C 6,2 °C 9,7 km/h (2 Bft)
24.09.2018 05:18 7,1 °C 93 % 1021,9 hPa 0,0 mm 10,4 km/h (2 Bft) W-SW 257 ° 0 min 0,000 mm 0,0 UV-I 0 W/m² 6,0 °C 5,1 °C 16,1 km/h (3 Bft)
24.09.2018 05:19 7,1 °C 92 % 1021,9 hPa 0,0 mm 6,0 km/h (2 Bft) W 275 ° 0 min 0,000 mm 0,0 UV-I 0 W/m² 5,9 °C 6,1 °C 12,9 km/h (3 Bft)
24.09.2018 05:20 7,1 °C 92 % 1021,9 hPa 0,0 mm 5,4 km/h (1 Bft) W-NW 302 ° 0 min 0,000 mm 0,0 UV-I 0 W/m² 5,9 °C 6,3 °C 9,7 km/h (2 Bft)
24.09.2018 05:21 7,0 °C 92 % 1021,9 hPa 0,0 mm 6,8 km/h (2 Bft) N-NW 336 ° 0 min 0,000 mm 0,0 UV-I 0 W/m² 5,8 °C 5,8 °C 12,9 km/h (3 Bft)
24.09.2018 05:22 6,9 °C 92 % 1021,9 hPa 0,0 mm 7,6 km/h (2 Bft) W-NW 284 ° 0 min 0,000 mm 0,0 UV-I 0 W/m² 5,7 °C 5,5 °C 12,9 km/h (3 Bft)
24.09.2018 05:23 6,9 °C 92 % 1021,9 hPa 0,0 mm 8,2 km/h (2 Bft) W-NW 286 ° 0 min 0,000 mm 0,0 UV-I 0 W/m² 5,7 °C 5,3 °C 14,5 km/h (3 Bft)
24.09.2018 05:24 6,9 °C 92 % 1022,0 hPa 0,0 mm 6,8 km/h (2 Bft) W-NW 296 ° 0 min 0,000 mm 0,0 UV-I 0 W/m² 5,7 °C 5,7 °C 11,3 km/h (2 Bft)
24.09.2018 05:25 6,9 °C 92 % 1022,0 hPa 0,0 mm 8,3 km/h (2 Bft) W-NW 288 ° 0 min 0,000 mm 0,0 UV-I 0 W/m² 5,7 °C 5,3 °C 14,5 km/h (3 Bft)
24.09.2018 05:26 6,9 °C 92 % 1022,0 hPa 0,0 mm 9,1 km/h (2 Bft) W 277 ° 0 min 0,000 mm 0,0 UV-I 0 W/m² 5,7 °C 5,1 °C 16,1 km/h (3 Bft)
24.09.2018 05:27 6,9 °C 92 % 1022,0 hPa 0,0 mm 8,5 km/h (2 Bft) W-NW 284 ° 0 min 0,000 mm 0,0 UV-I 0 W/m² 5,7 °C 5,2 °C 12,9 km/h (3 Bft)
24.09.2018 05:28 6,9 °C 92 % 1022,0 hPa 0,2 mm 10,1 km/h (2 Bft) W 262 ° 0 min 0,000 mm 0,0 UV-I 0 W/m² 5,7 °C 4,9 °C 16,1 km/h (3 Bft)
24.09.2018 05:29 6,8 °C 92 % 1022,0 hPa 0,0 mm 5,7 km/h (1 Bft) NW 319 ° 0 min 0,000 mm 0,0 UV-I 0 W/m² 5,6 °C 5,9 °C 8,0 km/h (2 Bft)
24.09.2018 05:30 6,8 °C 92 % 1022,1 hPa 0,0 mm 10,1 km/h (2 Bft) W 279 ° 0 min 0,000 mm 0,0 UV-I 0 W/m² 5,6 °C 4,8 °C 17,7 km/h (3 Bft)
24.09.2018 05:31 6,8 °C 92 % 1022,1 hPa 0,0 mm 5,2 km/h (1 Bft) NW 317 ° 0 min 0,000 mm 0,0 UV-I 0 W/m² 5,6 °C 6,1 °C 8,0 km/h (2 Bft)
24.09.2018 05:32 6,8 °C 92 % 1022,1 hPa 0,0 mm 4,8 km/h (1 Bft) N-NW 333 ° 0 min 0,000 mm 0,0 UV-I 0 W/m² 5,6 °C 6,2 °C 11,3 km/h (2 Bft)
24.09.2018 05:33 6,8 °C 92 % 1022,1 hPa 0,0 mm 8,4 km/h (2 Bft) N-NW 338 ° 0 min 0,000 mm 0,0 UV-I 0 W/m² 5,6 °C 5,2 °C 12,9 km/h (3 Bft)
24.09.2018 05:34 6,8 °C 92 % 1022,1 hPa 0,0 mm 7,2 km/h (2 Bft) NW 321 ° 0 min 0,000 mm 0,0 UV-I 0 W/m² 5,6 °C 5,5 °C 14,5 km/h (3 Bft)
24.09.2018 05:35 6,9 °C 92 % 1022,1 hPa 0,0 mm 5,6 km/h (1 Bft) NW 304 ° 0 min 0,000 mm 0,0 UV-I 0 W/m² 5,7 °C 6,0 °C 9,7 km/h (2 Bft)
24.09.2018 05:36 6,9 °C 92 % 1022,1 hPa 0,0 mm 5,2 km/h (1 Bft) N-NW 332 ° 0 min 0,000 mm 0,0 UV-I 0 W/m² 5,7 °C 6,2 °C 8,0 km/h (2 Bft)
24.09.2018 05:37 6,8 °C 92 % 1022,1 hPa 0,0 mm 4,3 km/h (1 Bft) N-NW 347 ° 0 min 0,000 mm 0,0 UV-I 0 W/m² 5,6 °C 6,8 °C 9,7 km/h (2 Bft)
24.09.2018 05:38 6,8 °C 92 % 1022,1 hPa 0,0 mm 4,6 km/h (1 Bft) N-NO 14 ° 0 min 0,000 mm 0,0 UV-I 0 W/m² 5,6 °C 6,3 °C 8,0 km/h (2 Bft)
24.09.2018 05:39 6,8 °C 92 % 1022,1 hPa 0,0 mm 5,4 km/h (1 Bft) N 5 ° 0 min 0,000 mm 0,0 UV-I 0 W/m² 5,6 °C 6,0 °C 8,0 km/h (2 Bft)
24.09.2018 05:40 6,8 °C 92 % 1022,2 hPa 0,0 mm 7,6 km/h (2 Bft) NW 312 ° 0 min 0,000 mm 0,0 UV-I 0 W/m² 5,6 °C 5,3 °C 14,5 km/h (3 Bft)
24.09.2018 05:41 6,8 °C 92 % 1022,2 hPa 0,0 mm 7,3 km/h (2 Bft) N 360 ° 0 min 0,000 mm 0,0 UV-I 0 W/m² 5,6 °C 5,4 °C 12,9 km/h (3 Bft)
24.09.2018 05:42 6,8 °C 92 % 1022,2 hPa 0,0 mm 7,1 km/h (2 Bft) NW 319 ° 0 min 0,000 mm 0,0 UV-I 0 W/m² 5,6 °C 5,5 °C 12,9 km/h (3 Bft)
24.09.2018 05:43 6,8 °C 92 % 1022,2 hPa 0,0 mm 5,0 km/h (1 Bft) NW 325 ° 0 min 0,000 mm 0,0 UV-I 0 W/m² 5,6 °C 6,1 °C 6,4 km/h (2 Bft)
24.09.2018 05:44 6,7 °C 92 % 1022,2 hPa 0,0 mm 4,0 km/h (1 Bft) NW 307 ° 0 min 0,000 mm 0,0 UV-I 0 W/m² 5,5 °C 6,7 °C 8,0 km/h (2 Bft)
24.09.2018 05:45 6,7 °C 92 % 1022,3 hPa 0,0 mm 12,9 km/h (3 Bft) NW 316 ° 0 min 0,000 mm 0,0 UV-I 0 W/m² 5,5 °C 4,2 °C 17,7 km/h (3 Bft)
24.09.2018 05:46 6,7 °C 92 % 1022,2 hPa 0,0 mm 7,2 km/h (2 Bft) NW 317 ° 0 min 0,000 mm 0,0 UV-I 0 W/m² 5,5 °C 5,3 °C 16,1 km/h (3 Bft)
24.09.2018 05:47 6,6 °C 92 % 1022,3 hPa 0,0 mm 6,8 km/h (2 Bft) N-NW 344 ° 0 min 0,000 mm 0,0 UV-I 0 W/m² 5,4 °C 5,3 °C 14,5 km/h (3 Bft)
24.09.2018 05:48 6,6 °C 92 % 1022,3 hPa 0,0 mm 2,7 km/h (1 Bft) NW 311 ° 0 min 0,000 mm 0,0 UV-I 0 W/m² 5,4 °C 6,6 °C 6,4 km/h (2 Bft)
24.09.2018 05:49 6,5 °C 92 % 1022,3 hPa 0,0 mm 5,6 km/h (1 Bft) NW 323 ° 0 min 0,000 mm 0,0 UV-I 0 W/m² 5,3 °C 5,6 °C 9,7 km/h (2 Bft)
24.09.2018 05:50 6,5 °C 92 % 1022,4 hPa 0,0 mm 5,6 km/h (1 Bft) N 5 ° 0 min 0,000 mm 0,0 UV-I 0 W/m² 5,3 °C 5,6 °C 12,9 km/h (3 Bft)
24.09.2018 05:51 6,5 °C 92 % 1022,4 hPa 0,0 mm 3,6 km/h (1 Bft) N-NW 333 ° 0 min 0,000 mm 0,0 UV-I 0 W/m² 5,3 °C 6,5 °C 6,4 km/h (2 Bft)
24.09.2018 05:52 6,4 °C 92 % 1022,4 hPa 0,0 mm 3,8 km/h (1 Bft) W 263 ° 0 min 0,000 mm 0,0 UV-I 0 W/m² 5,2 °C 6,4 °C 11,3 km/h (2 Bft)
24.09.2018 05:53 6,4 °C 92 % 1022,4 hPa 0,0 mm 7,7 km/h (2 Bft) NW 325 ° 0 min 0,000 mm 0,0 UV-I 0 W/m² 5,2 °C 4,9 °C 14,5 km/h (3 Bft)
24.09.2018 05:54 6,4 °C 92 % 1022,4 hPa 0,0 mm 5,8 km/h (2 Bft) W 276 ° 0 min 0,000 mm 0,0 UV-I 0 W/m² 5,2 °C 5,4 °C 9,7 km/h (2 Bft)
24.09.2018 05:55 6,4 °C 91 % 1022,5 hPa 0,0 mm 4,0 km/h (1 Bft) N-NW 327 ° 0 min 0,000 mm 0,0 UV-I 0 W/m² 5,0 °C 6,4 °C 6,4 km/h (2 Bft)
24.09.2018 05:56 6,3 °C 91 % 1022,5 hPa 0,0 mm 7,8 km/h (2 Bft) N-NW 333 ° 0 min 0,000 mm 0,0 UV-I 0 W/m² 4,9 °C 4,7 °C 12,9 km/h (3 Bft)
24.09.2018 05:57 6,3 °C 91 % 1022,6 hPa 0,0 mm 9,1 km/h (2 Bft) W-NW 300 ° 0 min 0,000 mm 0,0 UV-I 0 W/m² 4,9 °C 4,4 °C 12,9 km/h (3 Bft)
24.09.2018 05:58 6,3 °C 91 % 1022,6 hPa 0,0 mm 3,3 km/h (1 Bft) W-NW 285 ° 0 min 0,000 mm 0,0 UV-I 0 W/m² 4,9 °C 6,3 °C 9,7 km/h (2 Bft)
24.09.2018 05:59 6,3 °C 91 % 1022,6 hPa 0,0 mm 7,0 km/h (2 Bft) NW 306 ° 0 min 0,000 mm 0,0 UV-I 0 W/m² 4,9 °C 4,9 °C 14,5 km/h (3 Bft)
24.09.2018 06:00 6,3 °C 91 % 1022,6 hPa 0,0 mm 5,2 km/h (1 Bft) NW 309 ° 0 min 0,000 mm 0,0 UV-I 0 W/m² 4,9 °C 5,5 °C 8,0 km/h (2 Bft)
24.09.2018 06:01 6,3 °C 91 % 1022,6 hPa 0,0 mm 6,4 km/h (2 Bft) NW 314 ° 0 min 0,000 mm 0,0 UV-I 0 W/m² 4,9 °C 5,1 °C 11,3 km/h (2 Bft)
24.09.2018 06:02 6,2 °C 91 % 1022,6 hPa 0,0 mm 4,0 km/h (1 Bft) W 281 ° 0 min 0,000 mm 0,0 UV-I 0 W/m² 4,8 °C 6,2 °C 6,4 km/h (2 Bft)
24.09.2018 06:03 6,2 °C 91 % 1022,6 hPa 0,0 mm 3,8 km/h (1 Bft) NW 314 ° 0 min 0,000 mm 0,0 UV-I 0 W/m² 4,8 °C 6,2 °C 6,4 km/h (2 Bft)
24.09.2018 06:04 6,2 °C 91 % 1022,6 hPa 0,0 mm 2,5 km/h (1 Bft) NW 316 ° 0 min 0,000 mm 0,0 UV-I 0 W/m² 4,8 °C 6,2 °C 6,4 km/h (2 Bft)
24.09.2018 06:05 6,2 °C 91 % 1022,6 hPa 0,0 mm 3,7 km/h (1 Bft) W-NW 298 ° 0 min 0,000 mm 0,0 UV-I 0 W/m² 4,8 °C 6,2 °C 6,4 km/h (2 Bft)
24.09.2018 06:06 6,2 °C 91 % 1022,6 hPa 0,0 mm 10,1 km/h (2 Bft) NW 321 ° 0 min 0,000 mm 0,0 UV-I 0 W/m² 4,8 °C 4,1 °C 14,5 km/h (3 Bft)
24.09.2018 06:07 6,2 °C 91 % 1022,6 hPa 0,0 mm 5,6 km/h (1 Bft) W 276 ° 0 min 0,000 mm 0,0 UV-I 0 W/m² 4,8 °C 5,2 °C 6,4 km/h (2 Bft)
24.09.2018 06:08 6,2 °C 91 % 1022,6 hPa 0,0 mm 3,6 km/h (1 Bft) NW 322 ° 0 min 0,000 mm 0,0 UV-I 0 W/m² 4,8 °C 6,2 °C 6,4 km/h (2 Bft)
24.09.2018 06:09 6,1 °C 91 % 1022,7 hPa 0,0 mm 1,9 km/h (1 Bft) N-NW 334 ° 0 min 0,000 mm 0,0 UV-I 0 W/m² 4,7 °C 6,1 °C 4,8 km/h (1 Bft)
24.09.2018 06:10 6,1 °C 91 % 1022,6 hPa 0,0 mm 3,7 km/h (1 Bft) NW 306 ° 0 min 0,000 mm 0,0 UV-I 0 W/m² 4,7 °C 6,1 °C 6,4 km/h (2 Bft)
24.09.2018 06:11 6,1 °C 91 % 1022,7 hPa 0,0 mm 3,7 km/h (1 Bft) W-NW 290 ° 0 min 0,000 mm 0,0 UV-I 0 W/m² 4,7 °C 6,1 °C 9,7 km/h (2 Bft)
24.09.2018 06:12 6,1 °C 91 % 1022,7 hPa 0,0 mm 5,7 km/h (1 Bft) NW 304 ° 0 min 0,000 mm 0,0 UV-I 0 W/m² 4,7 °C 5,1 °C 8,0 km/h (2 Bft)
24.09.2018 06:13 6,1 °C 91 % 1022,8 hPa 0,0 mm 4,2 km/h (1 Bft) W-NW 303 ° 0 min 0,000 mm 0,0 UV-I 0 W/m² 4,7 °C 6,1 °C 6,4 km/h (2 Bft)
24.09.2018 06:14 6,1 °C 91 % 1022,8 hPa 0,0 mm 3,5 km/h (1 Bft) NW 321 ° 0 min 0,000 mm 0,0 UV-I 0 W/m² 4,7 °C 6,1 °C 4,8 km/h (1 Bft)
24.09.2018 06:15 6,1 °C 91 % 1022,9 hPa 0,0 mm 3,2 km/h (1 Bft) NW 314 ° 0 min 0,000 mm 0,0 UV-I 0 W/m² 4,7 °C 6,1 °C 4,8 km/h (1 Bft)
24.09.2018 06:16 6,1 °C 91 % 1022,9 hPa 0,0 mm 1,6 km/h (1 Bft) NW 314 ° 0 min 0,000 mm 0,0 UV-I 0 W/m² 4,7 °C 6,1 °C 3,2 km/h (1 Bft)
24.09.2018 06:17 6,1 °C 91 % 1022,9 hPa 0,0 mm 2,5 km/h (1 Bft) W-NW 297 ° 0 min 0,000 mm 0,0 UV-I 0 W/m² 4,7 °C 6,1 °C 4,8 km/h (1 Bft)
24.09.2018 06:18 6,1 °C 91 % 1022,9 hPa 0,0 mm 5,4 km/h (1 Bft) W-NW 294 ° 0 min 0,000 mm 0,0 UV-I 0 W/m² 4,7 °C 5,2 °C 8,0 km/h (2 Bft)
24.09.2018 06:19 6,1 °C 92 % 1023,0 hPa 0,0 mm 9,3 km/h (2 Bft) NW 305 ° 0 min 0,000 mm 0,0 UV-I 0 W/m² 4,9 °C 4,1 °C 12,9 km/h (3 Bft)
24.09.2018 06:20 6,2 °C 91 % 1023,0 hPa 0,0 mm 4,7 km/h (1 Bft) W-NW 294 ° 0 min 0,000 mm 0,0 UV-I 0 W/m² 4,8 °C 5,6 °C 6,4 km/h (2 Bft)
24.09.2018 06:21 6,1 °C 91 % 1023,0 hPa 0,0 mm 3,1 km/h (1 Bft) NW 315 ° 0 min 0,000 mm 0,0 UV-I 0 W/m² 4,7 °C 6,1 °C 6,4 km/h (2 Bft)
24.09.2018 06:22 6,1 °C 91 % 1023,1 hPa 0,0 mm 2,5 km/h (1 Bft) NW 319 ° 0 min 0,000 mm 0,0 UV-I 0 W/m² 4,7 °C 6,1 °C 4,8 km/h (1 Bft)
24.09.2018 06:23 6,1 °C 91 % 1023,0 hPa 0,0 mm 3,0 km/h (1 Bft) NW 309 ° 0 min 0,000 mm 0,0 UV-I 0 W/m² 4,7 °C 6,1 °C 4,8 km/h (1 Bft)
24.09.2018 06:24 6,1 °C 91 % 1023,1 hPa 0,0 mm 5,5 km/h (1 Bft) W-NW 302 ° 0 min 0,000 mm 0,0 UV-I 0 W/m² 4,7 °C 5,2 °C 9,7 km/h (2 Bft)
24.09.2018 06:25 6,1 °C 91 % 1023,1 hPa 0,0 mm 6,3 km/h (2 Bft) W 280 ° 0 min 0,000 mm 0,0 UV-I 0 W/m² 4,7 °C 4,9 °C 9,7 km/h (2 Bft)
24.09.2018 06:26 6,1 °C 91 % 1023,1 hPa 0,0 mm 6,3 km/h (2 Bft) W-NW 296 ° 0 min 0,000 mm 0,0 UV-I 0 W/m² 4,7 °C 4,9 °C 9,7 km/h (2 Bft)
24.09.2018 06:27 6,1 °C 91 % 1023,2 hPa 0,0 mm 6,1 km/h (2 Bft) N-NW 343 ° 0 min 0,000 mm 0,0 UV-I 0 W/m² 4,7 °C 5,0 °C 8,0 km/h (2 Bft)
24.09.2018 06:28 6,1 °C 91 % 1023,2 hPa 0,0 mm 2,9 km/h (1 Bft) W-NW 299 ° 0 min 0,000 mm 0,0 UV-I 0 W/m² 4,7 °C 6,1 °C 6,4 km/h (2 Bft)
24.09.2018 06:29 6,1 °C 91 % 1023,2 hPa 0,0 mm 3,4 km/h (1 Bft) NW 312 ° 0 min 0,000 mm 0,0 UV-I 0 W/m² 4,7 °C 6,1 °C 9,7 km/h (2 Bft)
24.09.2018 06:30 6,1 °C 91 % 1023,2 hPa 0,0 mm 6,7 km/h (2 Bft) N-NW 331 ° 0 min 0,000 mm 0,0 UV-I 0 W/m² 4,7 °C 4,8 °C 12,9 km/h (3 Bft)
24.09.2018 06:31 6,1 °C 91 % 1023,2 hPa 0,0 mm 6,7 km/h (2 Bft) W-NW 302 ° 0 min 0,000 mm 0,0 UV-I 0 W/m² 4,7 °C 4,8 °C 8,0 km/h (2 Bft)
24.09.2018 06:32 6,1 °C 91 % 1023,2 hPa 0,0 mm 6,6 km/h (2 Bft) N-NW 346 ° 0 min 0,000 mm 0,0 UV-I 0 W/m² 4,7 °C 4,8 °C 12,9 km/h (3 Bft)
24.09.2018 06:33 6,1 °C 91 % 1023,2 hPa 0,0 mm 4,8 km/h (1 Bft) NW 320 ° 0 min 0,000 mm 0,0 UV-I 0 W/m² 4,7 °C 5,4 °C 6,4 km/h (2 Bft)
24.09.2018 06:34 6,1 °C 91 % 1023,3 hPa 0,0 mm 8,1 km/h (2 Bft) NW 320 ° 0 min 0,000 mm 0,0 UV-I 0 W/m² 4,7 °C 4,4 °C 14,5 km/h (3 Bft)
24.09.2018 06:35 6,1 °C 91 % 1023,3 hPa 0,0 mm 7,8 km/h (2 Bft) NW 304 ° 0 min 0,000 mm 0,0 UV-I 0 W/m² 4,7 °C 4,5 °C 9,7 km/h (2 Bft)
24.09.2018 06:36 6,1 °C 91 % 1023,3 hPa 0,0 mm 4,4 km/h (1 Bft) W-NW 286 ° 0 min 0,000 mm 0,0 UV-I 0 W/m² 4,7 °C 6,1 °C 6,4 km/h (2 Bft)
24.09.2018 06:37 6,1 °C 91 % 1023,3 hPa 0,0 mm 6,5 km/h (2 Bft) W-NW 294 ° 0 min 0,000 mm 0,0 UV-I 0 W/m² 4,7 °C 4,8 °C 11,3 km/h (2 Bft)
24.09.2018 06:38 6,1 °C 91 % 1023,3 hPa 0,0 mm 3,2 km/h (1 Bft) W-NW 295 ° 0 min 0,000 mm 0,0 UV-I 0 W/m² 4,7 °C 6,1 °C 4,8 km/h (1 Bft)
24.09.2018 06:39 6,1 °C 91 % 1023,3 hPa 0,0 mm 2,8 km/h (1 Bft) NW 322 ° 0 min 0,000 mm 0,0 UV-I 0 W/m² 4,7 °C 6,1 °C 9,7 km/h (2 Bft)
24.09.2018 06:40 6,1 °C 91 % 1023,4 hPa 0,0 mm 5,3 km/h (1 Bft) W-NW 289 ° 0 min 0,000 mm 0,0 UV-I 0 W/m² 4,7 °C 5,2 °C 9,7 km/h (2 Bft)
24.09.2018 06:41 6,0 °C 91 % 1023,3 hPa 0,0 mm 4,0 km/h (1 Bft) NW 317 ° 0 min 0,000 mm 0,0 UV-I 0 W/m² 4,6 °C 6,0 °C 11,3 km/h (2 Bft)
24.09.2018 06:42 6,1 °C 91 % 1023,4 hPa 0,0 mm 1,0 km/h (0 Bft) NW 317 ° 0 min 0,000 mm 0,0 UV-I 0 W/m² 4,7 °C 6,1 °C 3,2 km/h (1 Bft)
24.09.2018 06:43 6,0 °C 91 % 1023,4 hPa 0,0 mm 1,1 km/h (1 Bft) NW 316 ° 0 min 0,000 mm 0,0 UV-I 0 W/m² 4,6 °C 6,0 °C 3,2 km/h (1 Bft)
24.09.2018 06:44 6,0 °C 91 % 1023,4 hPa 0,2 mm 3,4 km/h (1 Bft) W-NW 302 ° 0 min 0,000 mm 0,0 UV-I 0 W/m² 4,6 °C 6,0 °C 4,8 km/h (1 Bft)
24.09.2018 06:45 6,0 °C 91 % 1023,5 hPa 0,0 mm 4,8 km/h (1 Bft) W-NW 301 ° 0 min 0,000 mm 0,0 UV-I 0 W/m² 4,6 °C 5,3 °C 9,7 km/h (2 Bft)
24.09.2018 06:46 5,9 °C 92 % 1023,5 hPa 0,0 mm 5,6 km/h (1 Bft) NW 324 ° 0 min 0,000 mm 0,0 UV-I 0 W/m² 4,7 °C 4,9 °C 8,0 km/h (2 Bft)
24.09.2018 06:47 5,9 °C 92 % 1023,5 hPa 0,0 mm 3,6 km/h (1 Bft) W-NW 295 ° 0 min 0,000 mm 0,0 UV-I 0 W/m² 4,7 °C 5,9 °C 6,4 km/h (2 Bft)
24.09.2018 06:48 5,9 °C 92 % 1023,5 hPa 0,0 mm 2,1 km/h (1 Bft) W-NW 295 ° 0 min 0,000 mm 0,0 UV-I 0 W/m² 4,7 °C 5,9 °C 3,2 km/h (1 Bft)
24.09.2018 06:49 5,9 °C 92 % 1023,5 hPa 0,0 mm 3,0 km/h (1 Bft) W-NW 295 ° 0 min 0,000 mm 0,0 UV-I 0 W/m² 4,7 °C 5,9 °C 4,8 km/h (1 Bft)
24.09.2018 06:50 5,9 °C 92 % 1023,5 hPa 0,0 mm 1,6 km/h (1 Bft) W-NW 295 ° 0 min 0,000 mm 0,0 UV-I 0 W/m² 4,7 °C 5,9 °C 3,2 km/h (1 Bft)
24.09.2018 06:51 5,9 °C 92 % 1023,5 hPa 0,0 mm 0,9 km/h (0 Bft) W-NW 295 ° 0 min 0,000 mm 0,0 UV-I 0 W/m² 4,7 °C 5,9 °C 1,6 km/h (1 Bft)
24.09.2018 06:52 5,9 °C 92 % 1023,5 hPa 0,0 mm 2,4 km/h (1 Bft) W-NW 295 ° 0 min 0,000 mm 0,0 UV-I 0 W/m² 4,7 °C 5,9 °C 4,8 km/h (1 Bft)
24.09.2018 06:53 5,9 °C 92 % 1023,5 hPa 0,0 mm 3,8 km/h (1 Bft) W-SW 252 ° 0 min 0,000 mm 0,0 UV-I 0 W/m² 4,7 °C 5,9 °C 6,4 km/h (2 Bft)
24.09.2018 06:54 5,9 °C 92 % 1023,6 hPa 0,0 mm 4,5 km/h (1 Bft) W 259 ° 0 min 0,000 mm 0,0 UV-I 0 W/m² 4,7 °C 5,9 °C 6,4 km/h (2 Bft)
24.09.2018 06:55 5,8 °C 92 % 1023,7 hPa 0,0 mm 6,4 km/h (2 Bft) W-NW 286 ° 0 min 0,000 mm 0,0 UV-I 0 W/m² 4,6 °C 4,5 °C 9,7 km/h (2 Bft)
24.09.2018 06:56 5,9 °C 92 % 1023,7 hPa 0,0 mm 6,0 km/h (2 Bft) W-NW 297 ° 0 min 0,000 mm 0,0 UV-I 0 W/m² 4,7 °C 4,8 °C 9,7 km/h (2 Bft)
24.09.2018 06:57 5,8 °C 92 % 1023,7 hPa 0,0 mm 3,6 km/h (1 Bft) W 279 ° 0 min 0,000 mm 0,0 UV-I 0 W/m² 4,6 °C 5,8 °C 6,4 km/h (2 Bft)
24.09.2018 06:58 5,8 °C 92 % 1023,7 hPa 0,0 mm 1,9 km/h (1 Bft) W 279 ° 0 min 0,000 mm 0,0 UV-I 0 W/m² 4,6 °C 5,8 °C 3,2 km/h (1 Bft)
24.09.2018 06:59 5,8 °C 92 % 1023,8 hPa 0,0 mm 8,3 km/h (2 Bft) W 267 ° 0 min 0,000 mm 0,0 UV-I 0 W/m² 4,6 °C 4,0 °C 11,3 km/h (2 Bft)
24.09.2018 07:00 5,8 °C 92 % 1023,8 hPa 0,0 mm 6,4 km/h (2 Bft) W-NW 291 ° 0 min 0,000 mm 0,0 UV-I 0 W/m² 4,6 °C 4,5 °C 11,3 km/h (2 Bft)
24.09.2018 07:01 5,8 °C 92 % 1023,8 hPa 0,0 mm 3,6 km/h (1 Bft) W-NW 296 ° 0 min 0,000 mm 0,0 UV-I 0 W/m² 4,6 °C 5,8 °C 4,8 km/h (1 Bft)
24.09.2018 07:02 5,8 °C 92 % 1023,8 hPa 0,0 mm 3,6 km/h (1 Bft) W 273 ° 0 min 0,000 mm 0,0 UV-I 0 W/m² 4,6 °C 5,8 °C 6,4 km/h (2 Bft)
24.09.2018 07:03 5,8 °C 92 % 1023,9 hPa 0,0 mm 0,8 km/h (0 Bft) W 267 ° 0 min 0,000 mm 0,0 UV-I 0 W/m² 4,6 °C 5,8 °C 3,2 km/h (1 Bft)
24.09.2018 07:04 5,8 °C 92 % 1023,9 hPa 0,0 mm 0,9 km/h (0 Bft) W 267 ° 0 min 0,000 mm 0,0 UV-I 0 W/m² 4,6 °C 5,8 °C 3,2 km/h (1 Bft)
24.09.2018 07:05 5,7 °C 92 % 1024,0 hPa 0,0 mm 3,2 km/h (1 Bft) W-SW 245 ° 0 min 0,000 mm 0,0 UV-I 0 W/m² 4,5 °C 5,7 °C 6,4 km/h (2 Bft)
24.09.2018 07:06 5,8 °C 92 % 1024,0 hPa 0,0 mm 3,4 km/h (1 Bft) W-SW 244 ° 0 min 0,000 mm 0,0 UV-I 0 W/m² 4,6 °C 5,8 °C 4,8 km/h (1 Bft)
24.09.2018 07:07 5,7 °C 92 % 1024,0 hPa 0,0 mm 1,6 km/h (1 Bft) W-SW 248 ° 0 min 0,000 mm 0,0 UV-I 0 W/m² 4,5 °C 5,7 °C 4,8 km/h (1 Bft)
24.09.2018 07:08 5,8 °C 92 % 1024,0 hPa 0,0 mm 3,7 km/h (1 Bft) W-SW 253 ° 0 min 0,000 mm 0,0 UV-I 0 W/m² 4,6 °C 5,8 °C 6,4 km/h (2 Bft)
24.09.2018 07:09 5,8 °C 92 % 1024,1 hPa 0,0 mm 5,4 km/h (1 Bft) W-SW 244 ° 0 min 0,000 mm 0,0 UV-I 0 W/m² 4,6 °C 4,8 °C 9,7 km/h (2 Bft)
24.09.2018 07:10 5,8 °C 92 % 1024,1 hPa 0,0 mm 3,0 km/h (1 Bft) W-SW 251 ° 0 min 0,000 mm 0,0 UV-I 0 W/m² 4,6 °C 5,8 °C 6,4 km/h (2 Bft)
24.09.2018 07:11 5,7 °C 92 % 1024,2 hPa 0,0 mm 3,1 km/h (1 Bft) W 264 ° 0 min 0,000 mm 0,0 UV-I 0 W/m² 4,5 °C 5,7 °C 4,8 km/h (1 Bft)
24.09.2018 07:12 5,8 °C 92 % 1024,3 hPa 0,0 mm 2,3 km/h (1 Bft) W 264 ° 0 min 0,000 mm 0,0 UV-I 0 W/m² 4,6 °C 5,8 °C 3,2 km/h (1 Bft)
24.09.2018 07:13 5,8 °C 92 % 1024,3 hPa 0,0 mm 4,3 km/h (1 Bft) W 267 ° 0 min 0,000 mm 0,0 UV-I 0 W/m² 4,6 °C 5,8 °C 6,4 km/h (2 Bft)
24.09.2018 07:14 5,8 °C 92 % 1024,3 hPa 0,0 mm 4,7 km/h (1 Bft) W-SW 238 ° 0 min 0,000 mm 0,0 UV-I 0 W/m² 4,6 °C 5,1 °C 6,4 km/h (2 Bft)
24.09.2018 07:15 5,8 °C 92 % 1024,3 hPa 0,0 mm 2,6 km/h (1 Bft) W-SW 252 ° 0 min 0,000 mm 0,0 UV-I 0 W/m² 4,6 °C 5,8 °C 4,8 km/h (1 Bft)
24.09.2018 07:16 5,7 °C 93 % 1024,4 hPa 0,0 mm 2,3 km/h (1 Bft) W 262 ° 0 min 0,000 mm 0,0 UV-I 0 W/m² 4,7 °C 5,7 °C 4,8 km/h (1 Bft)
24.09.2018 07:17 5,7 °C 92 % 1024,5 hPa 0,0 mm 7,0 km/h (2 Bft) W 268 ° 0 min 0,000 mm 0,0 UV-I 0 W/m² 4,5 °C 4,2 °C 11,3 km/h (2 Bft)
24.09.2018 07:18 5,7 °C 92 % 1024,5 hPa 0,0 mm 4,2 km/h (1 Bft) W 273 ° 0 min 0,000 mm 0,0 UV-I 0 W/m² 4,5 °C 5,7 °C 6,4 km/h (2 Bft)
24.09.2018 07:19 5,7 °C 92 % 1024,5 hPa 0,0 mm 3,6 km/h (1 Bft) W 259 ° 0 min 0,000 mm 0,0 UV-I 0 W/m² 4,5 °C 5,7 °C 4,8 km/h (1 Bft)
24.09.2018 07:20 5,6 °C 92 % 1024,5 hPa 0,0 mm 4,9 km/h (1 Bft) W 273 ° 0 min 0,000 mm 0,0 UV-I 0 W/m² 4,4 °C 4,8 °C 6,4 km/h (2 Bft)
24.09.2018 07:21 5,7 °C 92 % 1024,6 hPa 0,0 mm 5,2 km/h (1 Bft) W-NW 284 ° 0 min 0,000 mm 0,0 UV-I 0 W/m² 4,5 °C 4,8 °C 8,0 km/h (2 Bft)
24.09.2018 07:22 5,7 °C 92 % 1024,6 hPa 0,2 mm 2,1 km/h (1 Bft) W-NW 284 ° 0 min 0,000 mm 0,0 UV-I 0 W/m² 4,5 °C 5,7 °C 4,8 km/h (1 Bft)
24.09.2018 07:23 5,6 °C 92 % 1024,5 hPa 0,0 mm 2,9 km/h (1 Bft) W-SW 249 ° 0 min 0,000 mm 0,0 UV-I 0 W/m² 4,4 °C 5,6 °C 6,4 km/h (2 Bft)
24.09.2018 07:24 5,6 °C 92 % 1024,5 hPa 0,0 mm 7,6 km/h (2 Bft) W-SW 239 ° 0 min 0,000 mm 0,0 UV-I 0 W/m² 4,4 °C 3,9 °C 12,9 km/h (3 Bft)
24.09.2018 07:25 5,6 °C 92 % 1024,6 hPa 0,0 mm 8,0 km/h (2 Bft) W 263 ° 0 min 0,000 mm 0,0 UV-I 0 W/m² 4,4 °C 3,8 °C 12,9 km/h (3 Bft)
24.09.2018 07:26 5,6 °C 92 % 1024,6 hPa 0,0 mm 5,6 km/h (1 Bft) W-NW 303 ° 0 min 0,000 mm 0,0 UV-I 0 W/m² 4,4 °C 4,5 °C 9,7 km/h (2 Bft)
24.09.2018 07:27 5,6 °C 92 % 1024,7 hPa 0,0 mm 5,0 km/h (1 Bft) W-NW 297 ° 0 min 0,000 mm 0,0 UV-I 0 W/m² 4,4 °C 4,8 °C 6,4 km/h (2 Bft)
24.09.2018 07:28 5,6 °C 92 % 1024,6 hPa 0,0 mm 4,7 km/h (1 Bft) W 265 ° 0 min 0,000 mm 0,0 UV-I 5 W/m² 4,4 °C 4,9 °C 8,0 km/h (2 Bft)
24.09.2018 07:29 5,6 °C 92 % 1024,6 hPa 0,0 mm 3,1 km/h (1 Bft) W 265 ° 0 min 0,000 mm 0,0 UV-I 5 W/m² 4,4 °C 5,6 °C 4,8 km/h (1 Bft)
24.09.2018 07:30 5,6 °C 92 % 1024,6 hPa 0,0 mm 6,4 km/h (2 Bft) W 281 ° 0 min 0,000 mm 0,0 UV-I 5 W/m² 4,4 °C 4,3 °C 9,7 km/h (2 Bft)
24.09.2018 07:31 5,6 °C 92 % 1024,7 hPa 0,0 mm 3,1 km/h (1 Bft) W 279 ° 0 min 0,000 mm 0,0 UV-I 7 W/m² 4,4 °C 5,6 °C 6,4 km/h (2 Bft)
24.09.2018 07:32 5,6 °C 92 % 1024,7 hPa 0,0 mm 4,2 km/h (1 Bft) W-NW 290 ° 0 min 0,000 mm 0,0 UV-I 9 W/m² 4,4 °C 5,6 °C 4,8 km/h (1 Bft)
24.09.2018 07:33 5,6 °C 92 % 1024,6 hPa 0,0 mm 3,6 km/h (1 Bft) W 275 ° 0 min 0,000 mm 0,0 UV-I 9 W/m² 4,4 °C 5,6 °C 4,8 km/h (1 Bft)
24.09.2018 07:34 5,6 °C 93 % 1024,7 hPa 0,0 mm 0,3 km/h (0 Bft) W 274 ° 0 min 0,000 mm 0,0 UV-I 9 W/m² 4,6 °C 5,6 °C 1,6 km/h (1 Bft)
24.09.2018 07:35 5,6 °C 92 % 1024,6 hPa 0,0 mm 2,9 km/h (1 Bft) W-NW 285 ° 0 min 0,000 mm 0,0 UV-I 7 W/m² 4,4 °C 5,6 °C 4,8 km/h (1 Bft)
24.09.2018 07:36 5,6 °C 92 % 1024,7 hPa 0,0 mm 2,7 km/h (1 Bft) W-NW 286 ° 0 min 0,000 mm 0,0 UV-I 7 W/m² 4,4 °C 5,6 °C 4,8 km/h (1 Bft)
24.09.2018 07:37 5,6 °C 92 % 1024,7 hPa 0,2 mm 1,3 km/h (1 Bft) W-NW 286 ° 0 min 0,000 mm 0,0 UV-I 7 W/m² 4,4 °C 5,6 °C 3,2 km/h (1 Bft)
24.09.2018 07:38 5,6 °C 92 % 1024,8 hPa 0,0 mm 2,4 km/h (1 Bft) W-NW 283 ° 0 min 0,000 mm 0,0 UV-I 7 W/m² 4,4 °C 5,6 °C 4,8 km/h (1 Bft)
24.09.2018 07:39 5,6 °C 92 % 1024,8 hPa 0,0 mm 2,3 km/h (1 Bft) W-NW 283 ° 0 min 0,000 mm 0,0 UV-I 7 W/m² 4,4 °C 5,6 °C 4,8 km/h (1 Bft)
24.09.2018 07:40 5,6 °C 92 % 1024,8 hPa 0,0 mm 3,9 km/h (1 Bft) W-NW 286 ° 0 min 0,000 mm 0,0 UV-I 7 W/m² 4,4 °C 5,6 °C 6,4 km/h (2 Bft)
24.09.2018 07:41 5,6 °C 92 % 1024,9 hPa 0,0 mm 4,4 km/h (1 Bft) W-SW 253 ° 0 min 0,000 mm 0,0 UV-I 7 W/m² 4,4 °C 5,6 °C 6,4 km/h (2 Bft)
24.09.2018 07:42 5,6 °C 92 % 1024,9 hPa 0,0 mm 4,5 km/h (1 Bft) W-SW 252 ° 0 min 0,000 mm 0,0 UV-I 7 W/m² 4,4 °C 5,6 °C 4,8 km/h (1 Bft)
24.09.2018 07:43 5,5 °C 92 % 1024,9 hPa 0,0 mm 2,6 km/h (1 Bft) W 279 ° 0 min 0,000 mm 0,0 UV-I 7 W/m² 4,3 °C 5,5 °C 4,8 km/h (1 Bft)
24.09.2018 07:44 5,6 °C 92 % 1024,9 hPa 0,0 mm 5,9 km/h (2 Bft) W-SW 257 ° 0 min 0,000 mm 0,0 UV-I 7 W/m² 4,4 °C 4,4 °C 12,9 km/h (3 Bft)
24.09.2018 07:45 5,6 °C 92 % 1024,9 hPa 0,0 mm 4,6 km/h (1 Bft) W-NW 291 ° 0 min 0,000 mm 0,0 UV-I 9 W/m² 4,4 °C 4,9 °C 6,4 km/h (2 Bft)
24.09.2018 07:46 5,6 °C 92 % 1025,0 hPa 0,0 mm 2,7 km/h (1 Bft) W-NW 291 ° 0 min 0,000 mm 0,0 UV-I 9 W/m² 4,4 °C 5,6 °C 4,8 km/h (1 Bft)
24.09.2018 07:47 5,6 °C 92 % 1025,1 hPa 0,0 mm 3,5 km/h (1 Bft) W 271 ° 0 min 0,000 mm 0,0 UV-I 9 W/m² 4,4 °C 5,6 °C 6,4 km/h (2 Bft)
24.09.2018 07:48 5,6 °C 92 % 1025,1 hPa 0,0 mm 4,9 km/h (1 Bft) W 262 ° 0 min 0,000 mm 0,0 UV-I 9 W/m² 4,4 °C 4,8 °C 9,7 km/h (2 Bft)
24.09.2018 07:49 5,6 °C 92 % 1025,1 hPa 0,0 mm 6,2 km/h (2 Bft) W 261 ° 0 min 0,000 mm 0,0 UV-I 7 W/m² 4,4 °C 4,3 °C 9,7 km/h (2 Bft)
24.09.2018 07:50 5,6 °C 92 % 1025,1 hPa 0,0 mm 4,2 km/h (1 Bft) W-NW 287 ° 0 min 0,000 mm 0,0 UV-I 7 W/m² 4,4 °C 5,6 °C 6,4 km/h (2 Bft)
24.09.2018 07:51 5,5 °C 92 % 1025,1 hPa 0,0 mm 3,1 km/h (1 Bft) W-NW 287 ° 0 min 0,000 mm 0,0 UV-I 7 W/m² 4,3 °C 5,5 °C 4,8 km/h (1 Bft)
24.09.2018 07:52 5,6 °C 92 % 1025,2 hPa 0,0 mm 3,4 km/h (1 Bft) W 259 ° 0 min 0,000 mm 0,0 UV-I 7 W/m² 4,4 °C 5,6 °C 6,4 km/h (2 Bft)
24.09.2018 07:53 5,5 °C 92 % 1025,3 hPa 0,0 mm 1,9 km/h (1 Bft) NW 304 ° 0 min 0,000 mm 0,0 UV-I 7 W/m² 4,3 °C 5,5 °C 3,2 km/h (1 Bft)
24.09.2018 07:54 5,5 °C 92 % 1025,3 hPa 0,0 mm 4,4 km/h (1 Bft) W-NW 299 ° 0 min 0,000 mm 0,0 UV-I 7 W/m² 4,3 °C 5,5 °C 6,4 km/h (2 Bft)
24.09.2018 07:55 5,6 °C 92 % 1025,3 hPa 0,0 mm 2,5 km/h (1 Bft) W-NW 298 ° 0 min 0,000 mm 0,0 UV-I 9 W/m² 4,4 °C 5,6 °C 3,2 km/h (1 Bft)
24.09.2018 07:56 5,6 °C 92 % 1025,3 hPa 0,0 mm 3,8 km/h (1 Bft) W-SW 238 ° 0 min 0,000 mm 0,0 UV-I 9 W/m² 4,4 °C 5,6 °C 4,8 km/h (1 Bft)
24.09.2018 07:57 5,6 °C 92 % 1025,4 hPa 0,0 mm 3,2 km/h (1 Bft) W-NW 290 ° 0 min 0,000 mm 0,0 UV-I 9 W/m² 4,4 °C 5,6 °C 9,7 km/h (2 Bft)
24.09.2018 07:58 5,5 °C 92 % 1025,4 hPa 0,0 mm 5,1 km/h (1 Bft) W-NW 284 ° 0 min 0,000 mm 0,0 UV-I 11 W/m² 4,3 °C 4,6 °C 11,3 km/h (2 Bft)
24.09.2018 07:59 5,6 °C 92 % 1025,4 hPa 0,0 mm 2,8 km/h (1 Bft) W-NW 284 ° 0 min 0,000 mm 0,0 UV-I 9 W/m² 4,4 °C 5,6 °C 4,8 km/h (1 Bft)
24.09.2018 08:00 5,6 °C 92 % 1025,4 hPa 0,0 mm 3,6 km/h (1 Bft) W-NW 303 ° 0 min 0,000 mm 0,0 UV-I 9 W/m² 4,4 °C 5,6 °C 6,4 km/h (2 Bft)
24.09.2018 08:01 5,5 °C 92 % 1025,5 hPa 0,0 mm 0,9 km/h (0 Bft) W-NW 303 ° 0 min 0,000 mm 0,0 UV-I 7 W/m² 4,3 °C 5,5 °C 1,6 km/h (1 Bft)
24.09.2018 08:02 5,6 °C 92 % 1025,5 hPa 0,0 mm 0,5 km/h (0 Bft) W-NW 303 ° 0 min 0,000 mm 0,0 UV-I 9 W/m² 4,4 °C 5,6 °C 1,6 km/h (1 Bft)
24.09.2018 08:03 5,6 °C 92 % 1025,5 hPa 0,0 mm 2,0 km/h (1 Bft) W-NW 302 ° 0 min 0,000 mm 0,0 UV-I 7 W/m² 4,4 °C 5,6 °C 4,8 km/h (1 Bft)
24.09.2018 08:04 5,6 °C 92 % 1025,6 hPa 0,0 mm 2,7 km/h (1 Bft) W-NW 302 ° 0 min 0,000 mm 0,0 UV-I 7 W/m² 4,4 °C 5,6 °C 4,8 km/h (1 Bft)
24.09.2018 08:05 5,6 °C 92 % 1025,6 hPa 0,0 mm 2,6 km/h (1 Bft) W-NW 302 ° 0 min 0,000 mm 0,0 UV-I 7 W/m² 4,4 °C 5,6 °C 4,8 km/h (1 Bft)
24.09.2018 08:06 5,6 °C 92 % 1025,6 hPa 0,0 mm 1,9 km/h (1 Bft) W-NW 290 ° 0 min 0,000 mm 0,0 UV-I 5 W/m² 4,4 °C 5,6 °C 4,8 km/h (1 Bft)
24.09.2018 08:07 5,6 °C 92 % 1025,6 hPa 0,2 mm 2,7 km/h (1 Bft) W 280 ° 0 min 0,000 mm 0,0 UV-I 5 W/m² 4,4 °C 5,6 °C 6,4 km/h (2 Bft)
24.09.2018 08:08 5,6 °C 92 % 1025,6 hPa 0,0 mm 2,4 km/h (1 Bft) W-NW 282 ° 0 min 0,000 mm 0,0 UV-I 5 W/m² 4,4 °C 5,6 °C 4,8 km/h (1 Bft)
24.09.2018 08:09 5,6 °C 92 % 1025,6 hPa 0,0 mm 4,7 km/h (1 Bft) W-SW 248 ° 0 min 0,000 mm 0,0 UV-I 5 W/m² 4,4 °C 4,9 °C 6,4 km/h (2 Bft)
24.09.2018 08:10 5,6 °C 92 % 1025,6 hPa 0,0 mm 1,9 km/h (1 Bft) W-SW 248 ° 0 min 0,000 mm 0,0 UV-I 5 W/m² 4,4 °C 5,6 °C 4,8 km/h (1 Bft)
24.09.2018 08:11 5,6 °C 92 % 1025,7 hPa 0,0 mm 1,9 km/h (1 Bft) W 279 ° 0 min 0,000 mm 0,0 UV-I 5 W/m² 4,4 °C 5,6 °C 3,2 km/h (1 Bft)
24.09.2018 08:12 5,6 °C 92 % 1025,7 hPa 0,0 mm 4,8 km/h (1 Bft) NW 309 ° 0 min 0,000 mm 0,0 UV-I 5 W/m² 4,4 °C 4,8 °C 11,3 km/h (2 Bft)
24.09.2018 08:13 5,6 °C 92 % 1025,8 hPa 0,0 mm 4,1 km/h (1 Bft) NW 324 ° 0 min 0,000 mm 0,0 UV-I 7 W/m² 4,4 °C 5,6 °C 6,4 km/h (2 Bft)
24.09.2018 08:14 5,6 °C 92 % 1025,8 hPa 0,0 mm 6,3 km/h (2 Bft) NW 304 ° 0 min 0,000 mm 0,0 UV-I 9 W/m² 4,4 °C 4,3 °C 14,5 km/h (3 Bft)
24.09.2018 08:15 5,6 °C 92 % 1025,8 hPa 0,0 mm 5,3 km/h (1 Bft) NW 321 ° 0 min 0,000 mm 0,0 UV-I 11 W/m² 4,4 °C 4,7 °C 8,0 km/h (2 Bft)
24.09.2018 08:16 5,6 °C 92 % 1025,8 hPa 0,0 mm 4,9 km/h (1 Bft) NW 323 ° 0 min 0,000 mm 0,0 UV-I 11 W/m² 4,4 °C 4,8 °C 8,0 km/h (2 Bft)
24.09.2018 08:17 5,6 °C 92 % 1025,9 hPa 0,0 mm 1,7 km/h (1 Bft) NW 323 ° 0 min 0,000 mm 0,0 UV-I 11 W/m² 4,4 °C 5,6 °C 3,2 km/h (1 Bft)
24.09.2018 08:18 5,6 °C 92 % 1025,9 hPa 0,0 mm 5,0 km/h (1 Bft) NW 322 ° 0 min 0,000 mm 0,0 UV-I 11 W/m² 4,4 °C 4,8 °C 6,4 km/h (2 Bft)
24.09.2018 08:19 5,6 °C 92 % 1025,9 hPa 0,0 mm 4,4 km/h (1 Bft) W 264 ° 0 min 0,000 mm 0,0 UV-I 11 W/m² 4,4 °C 5,6 °C 11,3 km/h (2 Bft)
24.09.2018 08:20 5,6 °C 92 % 1026,1 hPa 0,0 mm 6,0 km/h (2 Bft) NW 320 ° 0 min 0,000 mm 0,0 UV-I 11 W/m² 4,4 °C 4,4 °C 8,0 km/h (2 Bft)
24.09.2018 08:21 5,5 °C 92 % 1026,1 hPa 0,0 mm 3,4 km/h (1 Bft) N 355 ° 0 min 0,000 mm 0,0 UV-I 11 W/m² 4,3 °C 5,5 °C 6,4 km/h (2 Bft)
24.09.2018 08:22 5,5 °C 92 % 1026,1 hPa 0,0 mm 2,0 km/h (1 Bft) N-NW 340 ° 0 min 0,000 mm 0,0 UV-I 11 W/m² 4,3 °C 5,5 °C 6,4 km/h (2 Bft)
24.09.2018 08:23 5,6 °C 92 % 1026,1 hPa 0,0 mm 3,7 km/h (1 Bft) NW 323 ° 0 min 0,000 mm 0,0 UV-I 11 W/m² 4,4 °C 5,6 °C 4,8 km/h (1 Bft)
24.09.2018 08:24 5,6 °C 92 % 1026,1 hPa 0,0 mm 4,8 km/h (1 Bft) NW 323 ° 0 min 0,000 mm 0,0 UV-I 11 W/m² 4,4 °C 4,8 °C 9,7 km/h (2 Bft)
24.09.2018 08:25 5,5 °C 92 % 1026,1 hPa 0,0 mm 4,0 km/h (1 Bft) N-NW 340 ° 0 min 0,000 mm 0,0 UV-I 11 W/m² 4,3 °C 5,5 °C 12,9 km/h (3 Bft)
24.09.2018 08:26 5,5 °C 92 % 1026,2 hPa 0,0 mm 4,6 km/h (1 Bft) NW 305 ° 0 min 0,000 mm 0,0 UV-I 11 W/m² 4,3 °C 4,8 °C 11,3 km/h (2 Bft)
24.09.2018 08:27 5,5 °C 92 % 1026,2 hPa 0,0 mm 4,5 km/h (1 Bft) N-NW 337 ° 0 min 0,000 mm 0,0 UV-I 11 W/m² 4,3 °C 5,5 °C 11,3 km/h (2 Bft)
24.09.2018 08:28 5,5 °C 92 % 1026,2 hPa 0,0 mm 3,8 km/h (1 Bft) NW 304 ° 0 min 0,000 mm 0,0 UV-I 11 W/m² 4,3 °C 5,5 °C 4,8 km/h (1 Bft)
24.09.2018 08:29 5,5 °C 92 % 1026,2 hPa 0,0 mm 0,6 km/h (0 Bft) NW 304 ° 0 min 0,000 mm 0,0 UV-I 11 W/m² 4,3 °C 5,5 °C 4,8 km/h (1 Bft)
24.09.2018 08:30 5,5 °C 92 % 1026,2 hPa 0,0 mm 2,0 km/h (1 Bft) N-NW 333 ° 0 min 0,000 mm 0,0 UV-I 12 W/m² 4,3 °C 5,5 °C 3,2 km/h (1 Bft)
24.09.2018 08:31 5,5 °C 92 % 1026,4 hPa 0,0 mm 4,8 km/h (1 Bft) N-NW 338 ° 0 min 0,000 mm 0,0 UV-I 11 W/m² 4,3 °C 4,7 °C 9,7 km/h (2 Bft)
24.09.2018 08:32 5,5 °C 92 % 1026,4 hPa 0,0 mm 4,6 km/h (1 Bft) NW 317 ° 0 min 0,000 mm 0,0 UV-I 11 W/m² 4,3 °C 4,8 °C 6,4 km/h (2 Bft)
24.09.2018 08:33 5,5 °C 92 % 1026,4 hPa 0,0 mm 6,0 km/h (2 Bft) NW 316 ° 0 min 0,000 mm 0,0 UV-I 11 W/m² 4,3 °C 4,3 °C 8,0 km/h (2 Bft)
24.09.2018 08:34 5,5 °C 92 % 1026,4 hPa 0,0 mm 2,7 km/h (1 Bft) NW 321 ° 0 min 0,000 mm 0,0 UV-I 12 W/m² 4,3 °C 5,5 °C 6,4 km/h (2 Bft)
24.09.2018 08:35 5,5 °C 91 % 1026,4 hPa 0,0 mm 6,1 km/h (2 Bft) NW 325 ° 0 min 0,000 mm 0,0 UV-I 12 W/m² 4,2 °C 4,3 °C 9,7 km/h (2 Bft)
24.09.2018 08:36 5,4 °C 91 % 1026,4 hPa 0,0 mm 5,0 km/h (1 Bft) NW 311 ° 0 min 0,000 mm 0,0 UV-I 11 W/m² 4,1 °C 4,5 °C 6,4 km/h (2 Bft)
24.09.2018 08:37 5,4 °C 91 % 1026,4 hPa 0,0 mm 4,1 km/h (1 Bft) N-NW 328 ° 0 min 0,000 mm 0,0 UV-I 11 W/m² 4,1 °C 5,4 °C 6,4 km/h (2 Bft)
24.09.2018 08:38 5,4 °C 91 % 1026,5 hPa 0,0 mm 0,4 km/h (0 Bft) N-NW 328 ° 0 min 0,000 mm 0,0 UV-I 11 W/m² 4,1 °C 5,4 °C 1,6 km/h (1 Bft)
24.09.2018 08:39 5,5 °C 92 % 1026,6 hPa 0,0 mm 0,6 km/h (0 Bft) N-NW 328 ° 0 min 0,000 mm 0,0 UV-I 11 W/m² 4,3 °C 5,5 °C 1,6 km/h (1 Bft)
24.09.2018 08:40 5,5 °C 92 % 1026,6 hPa 0,0 mm 1,3 km/h (1 Bft) N-NW 328 ° 0 min 0,000 mm 0,0 UV-I 12 W/m² 4,3 °C 5,5 °C 3,2 km/h (1 Bft)
24.09.2018 08:41 5,5 °C 92 % 1026,6 hPa 0,0 mm 2,7 km/h (1 Bft) NW 326 ° 0 min 0,000 mm 0,0 UV-I 12 W/m² 4,3 °C 5,5 °C 4,8 km/h (1 Bft)
24.09.2018 08:42 5,6 °C 92 % 1026,7 hPa 0,0 mm 2,7 km/h (1 Bft) NW 326 ° 0 min 0,000 mm 0,0 UV-I 12 W/m² 4,4 °C 5,6 °C 4,8 km/h (1 Bft)
24.09.2018 08:43 5,6 °C 92 % 1026,7 hPa 0,0 mm 3,2 km/h (1 Bft) NW 326 ° 0 min 0,000 mm 0,0 UV-I 12 W/m² 4,4 °C 5,6 °C 4,8 km/h (1 Bft)
24.09.2018 08:44 5,6 °C 92 % 1026,7 hPa 0,0 mm 8,9 km/h (2 Bft) W-NW 290 ° 0 min 0,000 mm 0,0 UV-I 12 W/m² 4,4 °C 3,6 °C 14,5 km/h (3 Bft)
24.09.2018 08:45 5,6 °C 92 % 1026,7 hPa 0,0 mm 4,1 km/h (1 Bft) N-NW 327 ° 0 min 0,000 mm 0,0 UV-I 11 W/m² 4,4 °C 5,6 °C 6,4 km/h (2 Bft)
24.09.2018 08:46 5,5 °C 92 % 1026,8 hPa 0,0 mm 3,4 km/h (1 Bft) N-NW 327 ° 0 min 0,000 mm 0,0 UV-I 11 W/m² 4,3 °C 5,5 °C 6,4 km/h (2 Bft)
24.09.2018 08:47 5,5 °C 92 % 1026,8 hPa 0,0 mm 2,7 km/h (1 Bft) NW 309 ° 0 min 0,000 mm 0,0 UV-I 12 W/m² 4,3 °C 5,5 °C 4,8 km/h (1 Bft)
24.09.2018 08:48 5,5 °C 92 % 1026,8 hPa 0,0 mm 3,9 km/h (1 Bft) W-NW 298 ° 0 min 0,000 mm 0,0 UV-I 19 W/m² 4,3 °C 5,5 °C 6,4 km/h (2 Bft)
24.09.2018 08:49 5,5 °C 92 % 1026,8 hPa 0,0 mm 2,7 km/h (1 Bft) W-NW 298 ° 0 min 0,000 mm 0,0 UV-I 25 W/m² 4,3 °C 5,5 °C 4,8 km/h (1 Bft)
24.09.2018 08:50 5,5 °C 92 % 1026,8 hPa 0,0 mm 2,8 km/h (1 Bft) W 275 ° 0 min 0,000 mm 0,0 UV-I 30 W/m² 4,3 °C 5,5 °C 4,8 km/h (1 Bft)
24.09.2018 08:51 5,5 °C 92 % 1026,9 hPa 0,0 mm 8,1 km/h (2 Bft) W-NW 286 ° 0 min 0,000 mm 0,0 UV-I 35 W/m² 4,3 °C 3,7 °C 11,3 km/h (2 Bft)
24.09.2018 08:52 5,5 °C 92 % 1026,9 hPa 0,0 mm 1,8 km/h (1 Bft) W 266 ° 0 min 0,000 mm 0,0 UV-I 39 W/m² 4,3 °C 5,5 °C 4,8 km/h (1 Bft)
24.09.2018 08:53 5,4 °C 92 % 1026,9 hPa 0,0 mm 8,9 km/h (2 Bft) W-NW 291 ° 0 min 0,000 mm 0,0 UV-I 39 W/m² 4,2 °C 3,4 °C 11,3 km/h (2 Bft)
24.09.2018 08:54 5,5 °C 92 % 1027,0 hPa 0,0 mm 9,7 km/h (2 Bft) NW 317 ° 0 min 0,000 mm 0,0 UV-I 37 W/m² 4,3 °C 3,3 °C 14,5 km/h (3 Bft)
24.09.2018 08:55 5,4 °C 92 % 1027,0 hPa 0,0 mm 5,8 km/h (2 Bft) W 279 ° 0 min 0,000 mm 0,0 UV-I 37 W/m² 4,2 °C 4,2 °C 9,7 km/h (2 Bft)
24.09.2018 08:56 5,4 °C 92 % 1027,1 hPa 0,0 mm 5,6 km/h (1 Bft) N-NW 331 ° 0 min 0,000 mm 0,0 UV-I 35 W/m² 4,2 °C 4,3 °C 8,0 km/h (2 Bft)
24.09.2018 08:57 5,4 °C 92 % 1027,1 hPa 0,0 mm 5,3 km/h (1 Bft) NW 312 ° 0 min 0,000 mm 0,0 UV-I 33 W/m² 4,2 °C 4,4 °C 8,0 km/h (2 Bft)
24.09.2018 08:58 5,4 °C 92 % 1027,1 hPa 0,0 mm 6,0 km/h (2 Bft) NW 315 ° 0 min 0,000 mm 0,0 UV-I 33 W/m² 4,2 °C 4,2 °C 11,3 km/h (2 Bft)
24.09.2018 08:59 5,4 °C 92 % 1027,1 hPa 0,0 mm 3,3 km/h (1 Bft) W-NW 285 ° 0 min 0,000 mm 0,0 UV-I 39 W/m² 4,2 °C 5,4 °C 4,8 km/h (1 Bft)
24.09.2018 09:00 5,4 °C 91 % 1027,1 hPa 0,0 mm 5,8 km/h (2 Bft) N-NW 335 ° 0 min 0,000 mm 0,0 UV-I 39 W/m² 4,1 °C 4,2 °C 11,3 km/h (2 Bft)
24.09.2018 09:01 5,4 °C 92 % 1027,1 hPa 0,0 mm 4,6 km/h (1 Bft) W-NW 300 ° 0 min 0,000 mm 0,0 UV-I 39 W/m² 4,2 °C 4,7 °C 6,4 km/h (2 Bft)
24.09.2018 09:02 5,4 °C 92 % 1027,2 hPa 0,0 mm 5,2 km/h (1 Bft) W-NW 298 ° 0 min 0,000 mm 0,0 UV-I 40 W/m² 4,2 °C 4,5 °C 8,0 km/h (2 Bft)
24.09.2018 09:03 5,5 °C 92 % 1027,2 hPa 0,0 mm 5,0 km/h (1 Bft) NW 308 ° 0 min 0,000 mm 0,0 UV-I 44 W/m² 4,3 °C 4,7 °C 8,0 km/h (2 Bft)
24.09.2018 09:04 5,5 °C 91 % 1027,2 hPa 0,0 mm 3,5 km/h (1 Bft) W-NW 291 ° 0 min 0,000 mm 0,0 UV-I 46 W/m² 4,2 °C 5,5 °C 4,8 km/h (1 Bft)
24.09.2018 09:05 5,4 °C 91 % 1027,2 hPa 0,0 mm 5,5 km/h (1 Bft) NW 320 ° 0 min 0,000 mm 0,0 UV-I 49 W/m² 4,1 °C 4,4 °C 9,7 km/h (2 Bft)
24.09.2018 09:06 5,4 °C 91 % 1027,2 hPa 0,0 mm 3,8 km/h (1 Bft) W-NW 298 ° 0 min 0,000 mm 0,0 UV-I 54 W/m² 4,1 °C 5,4 °C 6,4 km/h (2 Bft)
24.09.2018 09:07 5,4 °C 91 % 1027,3 hPa 0,0 mm 4,5 km/h (1 Bft) W-NW 283 ° 0 min 0,000 mm 0,0 UV-I 58 W/m² 4,1 °C 5,4 °C 6,4 km/h (2 Bft)
24.09.2018 09:08 5,4 °C 91 % 1027,3 hPa 0,0 mm 5,0 km/h (1 Bft) W 279 ° 0 min 0,000 mm 0,0 UV-I 63 W/m² 4,1 °C 4,5 °C 6,4 km/h (2 Bft)
24.09.2018 09:09 5,4 °C 91 % 1027,3 hPa 0,0 mm 6,0 km/h (2 Bft) W 260 ° 0 min 0,000 mm 0,0 UV-I 65 W/m² 4,1 °C 4,2 °C 11,3 km/h (2 Bft)
24.09.2018 09:10 5,4 °C 91 % 1027,4 hPa 0,0 mm 5,3 km/h (1 Bft) W-NW 286 ° 0 min 0,000 mm 0,0 UV-I 69 W/m² 4,1 °C 4,4 °C 6,4 km/h (2 Bft)
24.09.2018 09:11 5,4 °C 91 % 1027,4 hPa 0,0 mm 5,6 km/h (1 Bft) W 281 ° 0 min 0,000 mm 0,5 UV-I 69 W/m² 4,1 °C 4,3 °C 9,7 km/h (2 Bft)
24.09.2018 09:12 5,5 °C 91 % 1027,4 hPa 0,0 mm 7,1 km/h (2 Bft) W-NW 298 ° 0 min 0,000 mm 0,5 UV-I 69 W/m² 4,2 °C 4,0 °C 12,9 km/h (3 Bft)
24.09.2018 09:13 5,4 °C 91 % 1027,4 hPa 0,0 mm 4,5 km/h (1 Bft) W-NW 302 ° 0 min 0,000 mm 0,5 UV-I 69 W/m² 4,1 °C 5,4 °C 8,0 km/h (2 Bft)
24.09.2018 09:14 5,5 °C 91 % 1027,5 hPa 0,0 mm 3,3 km/h (1 Bft) W 280 ° 0 min 0,000 mm 0,6 UV-I 69 W/m² 4,2 °C 5,5 °C 4,8 km/h (1 Bft)
24.09.2018 09:15 5,4 °C 90 % 1027,5 hPa 0,0 mm 4,2 km/h (1 Bft) W 281 ° 0 min 0,000 mm 0,6 UV-I 69 W/m² 3,9 °C 5,4 °C 4,8 km/h (1 Bft)
24.09.2018 09:16 5,4 °C 90 % 1027,5 hPa 0,0 mm 4,3 km/h (1 Bft) W-NW 284 ° 0 min 0,000 mm 0,6 UV-I 67 W/m² 3,9 °C 5,4 °C 4,8 km/h (1 Bft)
24.09.2018 09:17 5,6 °C 91 % 1027,5 hPa 0,0 mm 4,8 km/h (1 Bft) W 261 ° 0 min 0,000 mm 0,6 UV-I 72 W/m² 4,2 °C 4,8 °C 9,7 km/h (2 Bft)
24.09.2018 09:18 5,6 °C 91 % 1027,6 hPa 0,0 mm 5,7 km/h (1 Bft) W-NW 299 ° 0 min 0,000 mm 0,7 UV-I 77 W/m² 4,2 °C 4,5 °C 8,0 km/h (2 Bft)
24.09.2018 09:19 5,6 °C 91 % 1027,6 hPa 0,0 mm 5,0 km/h (1 Bft) W-NW 296 ° 0 min 0,000 mm 0,7 UV-I 88 W/m² 4,2 °C 4,8 °C 8,0 km/h (2 Bft)
24.09.2018 09:20 5,6 °C 91 % 1027,6 hPa 0,0 mm 3,8 km/h (1 Bft) W-NW 292 ° 0 min 0,000 mm 0,8 UV-I 97 W/m² 4,2 °C 5,6 °C 6,4 km/h (2 Bft)
24.09.2018 09:21 5,6 °C 91 % 1027,6 hPa 0,0 mm 0,1 km/h (0 Bft) W-NW 292 ° 0 min 0,000 mm 0,8 UV-I 100 W/m² 4,2 °C 5,6 °C 1,6 km/h (1 Bft)
24.09.2018 09:22 5,8 °C 92 % 1027,6 hPa 0,0 mm 2,3 km/h (1 Bft) W-NW 292 ° 0 min 0,000 mm 0,8 UV-I 105 W/m² 4,6 °C 5,8 °C 3,2 km/h (1 Bft)
24.09.2018 09:23 5,8 °C 92 % 1027,7 hPa 0,0 mm 4,3 km/h (1 Bft) W-NW 282 ° 0 min 0,000 mm 0,8 UV-I 105 W/m² 4,6 °C 5,8 °C 6,4 km/h (2 Bft)
24.09.2018 09:24 5,8 °C 92 % 1027,7 hPa 0,0 mm 4,4 km/h (1 Bft) W-NW 282 ° 0 min 0,000 mm 0,7 UV-I 107 W/m² 4,6 °C 5,8 °C 4,8 km/h (1 Bft)
24.09.2018 09:25 5,8 °C 91 % 1027,7 hPa 0,0 mm 3,6 km/h (1 Bft) W-NW 284 ° 0 min 0,000 mm 0,7 UV-I 109 W/m² 4,4 °C 5,8 °C 6,4 km/h (2 Bft)
24.09.2018 09:26 5,8 °C 91 % 1027,7 hPa 0,0 mm 1,9 km/h (1 Bft) W-NW 284 ° 0 min 0,000 mm 0,7 UV-I 111 W/m² 4,4 °C 5,8 °C 3,2 km/h (1 Bft)
24.09.2018 09:27 5,8 °C 91 % 1027,7 hPa 0,0 mm 3,3 km/h (1 Bft) W-NW 284 ° 0 min 0,000 mm 0,7 UV-I 109 W/m² 4,4 °C 5,8 °C 4,8 km/h (1 Bft)
24.09.2018 09:28 5,9 °C 91 % 1027,7 hPa 0,0 mm 5,8 km/h (2 Bft) W-SW 244 ° 0 min 0,000 mm 0,7 UV-I 109 W/m² 4,5 °C 4,8 °C 9,7 km/h (2 Bft)
24.09.2018 09:29 5,9 °C 91 % 1027,7 hPa 0,0 mm 3,8 km/h (1 Bft) NW 306 ° 0 min 0,000 mm 0,7 UV-I 113 W/m² 4,5 °C 5,9 °C 6,4 km/h (2 Bft)
24.09.2018 09:30 5,9 °C 91 % 1027,7 hPa 0,0 mm 3,9 km/h (1 Bft) W-NW 285 ° 0 min 0,000 mm 0,6 UV-I 107 W/m² 4,5 °C 5,9 °C 4,8 km/h (1 Bft)
24.09.2018 09:31 5,9 °C 91 % 1027,8 hPa 0,0 mm 3,6 km/h (1 Bft) W-SW 249 ° 0 min 0,000 mm 0,5 UV-I 91 W/m² 4,5 °C 5,9 °C 6,4 km/h (2 Bft)
24.09.2018 09:32 5,9 °C 91 % 1027,8 hPa 0,0 mm 5,9 km/h (2 Bft) W 273 ° 0 min 0,000 mm 0,5 UV-I 79 W/m² 4,5 °C 4,8 °C 11,3 km/h (2 Bft)
24.09.2018 09:33 5,9 °C 91 % 1027,8 hPa 0,0 mm 5,8 km/h (2 Bft) W 261 ° 0 min 0,000 mm 0,0 UV-I 65 W/m² 4,5 °C 4,8 °C 8,0 km/h (2 Bft)
24.09.2018 09:34 5,8 °C 91 % 1027,8 hPa 0,0 mm 4,2 km/h (1 Bft) W 276 ° 0 min 0,000 mm 0,0 UV-I 53 W/m² 4,4 °C 5,8 °C 11,3 km/h (2 Bft)
24.09.2018 09:35 5,8 °C 90 % 1027,8 hPa 0,0 mm 4,6 km/h (1 Bft) N-NW 333 ° 0 min 0,000 mm 0,0 UV-I 40 W/m² 4,3 °C 5,1 °C 8,0 km/h (2 Bft)
24.09.2018 09:36 5,8 °C 90 % 1027,8 hPa 0,0 mm 3,4 km/h (1 Bft) N-NW 336 ° 0 min 0,000 mm 0,0 UV-I 37 W/m² 4,3 °C 5,8 °C 6,4 km/h (2 Bft)
24.09.2018 09:37 5,8 °C 90 % 1027,8 hPa 0,0 mm 2,3 km/h (1 Bft) NW 321 ° 0 min 0,000 mm 0,0 UV-I 35 W/m² 4,3 °C 5,8 °C 4,8 km/h (1 Bft)
24.09.2018 09:38 5,8 °C 90 % 1027,8 hPa 0,0 mm 1,9 km/h (1 Bft) NW 321 ° 0 min 0,000 mm 0,0 UV-I 35 W/m² 4,3 °C 5,8 °C 3,2 km/h (1 Bft)
24.09.2018 09:39 5,8 °C 90 % 1027,8 hPa 0,0 mm 2,8 km/h (1 Bft) NW 315 ° 0 min 0,000 mm 0,0 UV-I 33 W/m² 4,3 °C 5,8 °C 3,2 km/h (1 Bft)
24.09.2018 09:40 5,8 °C 90 % 1027,9 hPa 0,0 mm 1,6 km/h (1 Bft) W-NW 290 ° 0 min 0,000 mm 0,0 UV-I 35 W/m² 4,3 °C 5,8 °C 4,8 km/h (1 Bft)
24.09.2018 09:41 5,8 °C 90 % 1027,8 hPa 0,0 mm 4,2 km/h (1 Bft) W-NW 294 ° 0 min 0,000 mm 0,0 UV-I 39 W/m² 4,3 °C 5,8 °C 6,4 km/h (2 Bft)
24.09.2018 09:42 5,8 °C 90 % 1027,8 hPa 0,0 mm 3,4 km/h (1 Bft) W-NW 294 ° 0 min 0,000 mm 0,0 UV-I 39 W/m² 4,3 °C 5,8 °C 6,4 km/h (2 Bft)
24.09.2018 09:43 5,8 °C 90 % 1027,9 hPa 0,0 mm 2,5 km/h (1 Bft) W-NW 296 ° 0 min 0,000 mm 0,0 UV-I 39 W/m² 4,3 °C 5,8 °C 4,8 km/h (1 Bft)
24.09.2018 09:44 5,8 °C 90 % 1028,0 hPa 0,0 mm 2,7 km/h (1 Bft) NW 309 ° 0 min 0,000 mm 0,0 UV-I 39 W/m² 4,3 °C 5,8 °C 4,8 km/h (1 Bft)
24.09.2018 09:45 5,8 °C 91 % 1028,0 hPa 0,0 mm 2,3 km/h (1 Bft) W-NW 294 ° 0 min 0,000 mm 0,0 UV-I 40 W/m² 4,4 °C 5,8 °C 3,2 km/h (1 Bft)
24.09.2018 09:46 5,8 °C 91 % 1028,0 hPa 0,0 mm 4,2 km/h (1 Bft) N-NW 327 ° 0 min 0,000 mm 0,0 UV-I 40 W/m² 4,4 °C 5,8 °C 8,0 km/h (2 Bft)
24.09.2018 09:47 5,8 °C 91 % 1028,0 hPa 0,0 mm 6,0 km/h (2 Bft) W-NW 294 ° 0 min 0,000 mm 0,0 UV-I 40 W/m² 4,4 °C 4,6 °C 8,0 km/h (2 Bft)
24.09.2018 09:48 5,7 °C 90 % 1028,0 hPa 0,0 mm 5,8 km/h (2 Bft) NW 304 ° 0 min 0,000 mm 0,0 UV-I 42 W/m² 4,2 °C 4,6 °C 11,3 km/h (2 Bft)
24.09.2018 09:49 5,7 °C 90 % 1028,0 hPa 0,0 mm 6,8 km/h (2 Bft) W 277 ° 0 min 0,000 mm 0,0 UV-I 44 W/m² 4,2 °C 4,3 °C 9,7 km/h (2 Bft)
24.09.2018 09:50 5,7 °C 90 % 1028,0 hPa 0,0 mm 6,8 km/h (2 Bft) NW 316 ° 0 min 0,000 mm 0,0 UV-I 53 W/m² 4,2 °C 4,3 °C 9,7 km/h (2 Bft)
24.09.2018 09:51 5,7 °C 90 % 1028,0 hPa 0,0 mm 4,5 km/h (1 Bft) NW 317 ° 0 min 0,000 mm 0,5 UV-I 62 W/m² 4,2 °C 5,7 °C 6,4 km/h (2 Bft)
24.09.2018 09:52 5,6 °C 90 % 1028,0 hPa 0,0 mm 4,6 km/h (1 Bft) NW 323 ° 0 min 0,000 mm 0,6 UV-I 83 W/m² 4,1 °C 4,9 °C 8,0 km/h (2 Bft)
24.09.2018 09:53 5,7 °C 90 % 1028,0 hPa 0,0 mm 4,6 km/h (1 Bft) N-NW 327 ° 0 min 0,000 mm 0,7 UV-I 86 W/m² 4,2 °C 5,0 °C 6,4 km/h (2 Bft)
24.09.2018 09:54 5,6 °C 90 % 1028,1 hPa 0,0 mm 3,3 km/h (1 Bft) W-NW 299 ° 0 min 0,000 mm 0,6 UV-I 86 W/m² 4,1 °C 5,6 °C 6,4 km/h (2 Bft)
24.09.2018 09:55 5,7 °C 90 % 1028,1 hPa 0,0 mm 2,6 km/h (1 Bft) W-NW 299 ° 0 min 0,000 mm 0,6 UV-I 83 W/m² 4,2 °C 5,7 °C 3,2 km/h (1 Bft)
24.09.2018 09:56 5,7 °C 90 % 1028,1 hPa 0,0 mm 1,2 km/h (1 Bft) W-NW 299 ° 0 min 0,000 mm 0,6 UV-I 83 W/m² 4,2 °C 5,7 °C 3,2 km/h (1 Bft)
24.09.2018 09:57 5,8 °C 90 % 1028,2 hPa 0,0 mm 1,8 km/h (1 Bft) W-NW 299 ° 0 min 0,000 mm 0,6 UV-I 74 W/m² 4,3 °C 5,8 °C 6,4 km/h (2 Bft)
24.09.2018 09:58 5,8 °C 90 % 1028,2 hPa 0,0 mm 6,4 km/h (2 Bft) NW 317 ° 0 min 0,000 mm 0,6 UV-I 77 W/m² 4,3 °C 4,5 °C 9,7 km/h (2 Bft)
24.09.2018 09:59 5,8 °C 90 % 1028,2 hPa 0,0 mm 8,6 km/h (2 Bft) W-NW 300 ° 0 min 0,000 mm 0,7 UV-I 83 W/m² 4,3 °C 3,9 °C 12,9 km/h (3 Bft)
24.09.2018 10:00 5,8 °C 90 % 1028,2 hPa 0,0 mm 4,2 km/h (1 Bft) W-NW 302 ° 0 min 0,000 mm 0,7 UV-I 86 W/m² 4,3 °C 5,8 °C 6,4 km/h (2 Bft)
24.09.2018 10:01 5,8 °C 90 % 1028,2 hPa 0,0 mm 3,2 km/h (1 Bft) W 277 ° 0 min 0,026 mm 0,8 UV-I 95 W/m² 4,3 °C 5,8 °C 9,7 km/h (2 Bft)
24.09.2018 10:02 5,8 °C 90 % 1028,3 hPa 0,0 mm 3,2 km/h (1 Bft) W 277 ° 0 min 0,000 mm 0,8 UV-I 105 W/m² 4,3 °C 5,8 °C 6,4 km/h (2 Bft)
24.09.2018 10:03 5,9 °C 90 % 1028,3 hPa 0,0 mm 4,0 km/h (1 Bft) NW 321 ° 0 min 0,000 mm 0,8 UV-I 109 W/m² 4,4 °C 5,9 °C 6,4 km/h (2 Bft)
24.09.2018 10:04 5,9 °C 90 % 1028,4 hPa 0,0 mm 4,4 km/h (1 Bft) NW 305 ° 0 min 0,000 mm 0,8 UV-I 111 W/m² 4,4 °C 5,9 °C 8,0 km/h (2 Bft)
24.09.2018 10:05 5,9 °C 90 % 1028,4 hPa 0,0 mm 5,9 km/h (2 Bft) W 277 ° 0 min 0,000 mm 0,9 UV-I 114 W/m² 4,4 °C 4,8 °C 9,7 km/h (2 Bft)
24.09.2018 10:06 5,9 °C 90 % 1028,4 hPa 0,0 mm 7,7 km/h (2 Bft) W-NW 296 ° 0 min 0,000 mm 0,9 UV-I 118 W/m² 4,4 °C 4,3 °C 11,3 km/h (2 Bft)
24.09.2018 10:07 5,9 °C 90 % 1028,4 hPa 0,0 mm 5,0 km/h (1 Bft) NW 326 ° 0 min 0,000 mm 0,9 UV-I 120 W/m² 4,4 °C 5,1 °C 6,4 km/h (2 Bft)
24.09.2018 10:08 5,9 °C 90 % 1028,5 hPa 0,0 mm 4,4 km/h (1 Bft) NW 325 ° 0 min 0,000 mm 0,9 UV-I 121 W/m² 4,4 °C 5,9 °C 6,4 km/h (2 Bft)
24.09.2018 10:09 6,0 °C 90 % 1028,5 hPa 0,0 mm 3,2 km/h (1 Bft) NW 322 ° 0 min 0,000 mm 0,9 UV-I 121 W/m² 4,5 °C 6,0 °C 4,8 km/h (1 Bft)
24.09.2018 10:10 6,1 °C 90 % 1028,5 hPa 0,0 mm 2,7 km/h (1 Bft) W-NW 298 ° 0 min 0,000 mm 0,9 UV-I 128 W/m² 4,6 °C 6,1 °C 4,8 km/h (1 Bft)
24.09.2018 10:11 6,1 °C 90 % 1028,5 hPa 0,0 mm 2,5 km/h (1 Bft) N-NW 327 ° 0 min 0,000 mm 1,0 UV-I 132 W/m² 4,6 °C 6,1 °C 4,8 km/h (1 Bft)
24.09.2018 10:12 6,1 °C 90 % 1028,5 hPa 0,0 mm 4,1 km/h (1 Bft) NW 310 ° 0 min 0,000 mm 1,0 UV-I 132 W/m² 4,6 °C 6,1 °C 6,4 km/h (2 Bft)
24.09.2018 10:13 6,1 °C 90 % 1028,5 hPa 0,0 mm 1,9 km/h (1 Bft) NW 310 ° 0 min 0,000 mm 0,9 UV-I 127 W/m² 4,6 °C 6,1 °C 3,2 km/h (1 Bft)
24.09.2018 10:14 6,1 °C 90 % 1028,6 hPa 0,0 mm 4,5 km/h (1 Bft) W-NW 298 ° 0 min 0,000 mm 0,9 UV-I 120 W/m² 4,6 °C 6,1 °C 6,4 km/h (2 Bft)
24.09.2018 10:15 6,1 °C 90 % 1028,6 hPa 0,0 mm 3,9 km/h (1 Bft) W-NW 298 ° 0 min 0,000 mm 0,9 UV-I 121 W/m² 4,6 °C 6,1 °C 4,8 km/h (1 Bft)
24.09.2018 10:16 6,2 °C 90 % 1028,6 hPa 0,0 mm 1,8 km/h (1 Bft) W-NW 298 ° 0 min 0,000 mm 1,0 UV-I 130 W/m² 4,7 °C 6,2 °C 4,8 km/h (1 Bft)
24.09.2018 10:17 6,1 °C 90 % 1028,7 hPa 0,0 mm 4,0 km/h (1 Bft) W-NW 290 ° 0 min 0,000 mm 1,0 UV-I 134 W/m² 4,6 °C 6,1 °C 6,4 km/h (2 Bft)
24.09.2018 10:18 6,1 °C 89 % 1028,6 hPa 0,0 mm 4,8 km/h (1 Bft) W-NW 294 ° 0 min 0,000 mm 1,0 UV-I 132 W/m² 4,4 °C 5,4 °C 6,4 km/h (2 Bft)
24.09.2018 10:19 6,1 °C 89 % 1028,8 hPa 0,0 mm 3,2 km/h (1 Bft) W-NW 294 ° 0 min 0,000 mm 1,0 UV-I 132 W/m² 4,4 °C 6,1 °C 6,4 km/h (2 Bft)
24.09.2018 10:20 6,1 °C 90 % 1028,8 hPa 0,0 mm 2,7 km/h (1 Bft) NW 315 ° 0 min 0,000 mm 1,0 UV-I 130 W/m² 4,6 °C 6,1 °C 4,8 km/h (1 Bft)
24.09.2018 10:21 6,2 °C 90 % 1028,8 hPa 0,0 mm 5,3 km/h (1 Bft) W-NW 288 ° 0 min 0,000 mm 1,0 UV-I 127 W/m² 4,7 °C 5,3 °C 9,7 km/h (2 Bft)
24.09.2018 10:22 6,2 °C 89 % 1028,8 hPa 0,0 mm 3,7 km/h (1 Bft) W-NW 300 ° 0 min 0,000 mm 1,0 UV-I 127 W/m² 4,5 °C 6,2 °C 8,0 km/h (2 Bft)
24.09.2018 10:23 6,3 °C 89 % 1028,8 hPa 0,0 mm 1,9 km/h (1 Bft) W-NW 300 ° 0 min 0,000 mm 1,0 UV-I 128 W/m² 4,6 °C 6,3 °C 3,2 km/h (1 Bft)
24.09.2018 10:24 6,3 °C 90 % 1028,8 hPa 0,0 mm 2,9 km/h (1 Bft) W-SW 246 ° 0 min 0,000 mm 1,0 UV-I 128 W/m² 4,8 °C 6,3 °C 11,3 km/h (2 Bft)
24.09.2018 10:25 6,3 °C 88 % 1028,8 hPa 0,0 mm 5,8 km/h (2 Bft) NW 309 ° 0 min 0,000 mm 1,0 UV-I 132 W/m² 4,5 °C 5,3 °C 8,0 km/h (2 Bft)
24.09.2018 10:26 6,3 °C 88 % 1028,8 hPa 0,0 mm 3,3 km/h (1 Bft) W 262 ° 0 min 0,000 mm 1,0 UV-I 135 W/m² 4,5 °C 6,3 °C 6,4 km/h (2 Bft)
24.09.2018 10:27 6,3 °C 88 % 1028,8 hPa 0,0 mm 4,7 km/h (1 Bft) W 277 ° 0 min 0,000 mm 1,1 UV-I 137 W/m² 4,5 °C 5,7 °C 9,7 km/h (2 Bft)
24.09.2018 10:28 6,3 °C 88 % 1028,8 hPa 0,0 mm 3,1 km/h (1 Bft) W-NW 298 ° 0 min 0,000 mm 1,1 UV-I 135 W/m² 4,5 °C 6,3 °C 4,8 km/h (1 Bft)
24.09.2018 10:29 6,3 °C 88 % 1028,9 hPa 0,0 mm 3,9 km/h (1 Bft) W-NW 297 ° 0 min 0,000 mm 1,0 UV-I 135 W/m² 4,5 °C 6,3 °C 4,8 km/h (1 Bft)
24.09.2018 10:30 6,3 °C 88 % 1028,9 hPa 0,0 mm 5,9 km/h (2 Bft) W 268 ° 0 min 0,000 mm 1,1 UV-I 137 W/m² 4,5 °C 5,2 °C 9,7 km/h (2 Bft)
24.09.2018 10:31 6,3 °C 87 % 1028,9 hPa 0,0 mm 4,2 km/h (1 Bft) W 268 ° 0 min 0,000 mm 1,1 UV-I 142 W/m² 4,3 °C 6,3 °C 6,4 km/h (2 Bft)
24.09.2018 10:32 6,3 °C 87 % 1028,9 hPa 0,0 mm 5,3 km/h (1 Bft) W-NW 285 ° 0 min 0,000 mm 1,2 UV-I 148 W/m² 4,3 °C 5,5 °C 9,7 km/h (2 Bft)
24.09.2018 10:33 6,4 °C 87 % 1028,9 hPa 0,0 mm 4,6 km/h (1 Bft) N-NW 345 ° 0 min 0,000 mm 1,2 UV-I 158 W/m² 4,4 °C 5,8 °C 6,4 km/h (2 Bft)
24.09.2018 10:34 6,4 °C 88 % 1028,9 hPa 0,0 mm 5,2 km/h (1 Bft) NW 326 ° 0 min 0,000 mm 1,2 UV-I 158 W/m² 4,6 °C 5,6 °C 8,0 km/h (2 Bft)
24.09.2018 10:35 6,4 °C 88 % 1028,9 hPa 0,0 mm 2,1 km/h (1 Bft) NW 315 ° 0 min 0,000 mm 1,2 UV-I 155 W/m² 4,6 °C 6,4 °C 3,2 km/h (1 Bft)
24.09.2018 10:36 6,5 °C 88 % 1028,9 hPa 0,0 mm 3,4 km/h (1 Bft) N-NW 327 ° 0 min 0,000 mm 1,1 UV-I 146 W/m² 4,7 °C 6,5 °C 6,4 km/h (2 Bft)
24.09.2018 10:37 6,6 °C 88 % 1028,9 hPa 0,0 mm 5,1 km/h (1 Bft) W-NW 286 ° 0 min 0,000 mm 1,0 UV-I 135 W/m² 4,8 °C 5,9 °C 6,4 km/h (2 Bft)
24.09.2018 10:38 6,6 °C 88 % 1028,9 hPa 0,0 mm 2,8 km/h (1 Bft) W-NW 286 ° 0 min 0,000 mm 0,9 UV-I 127 W/m² 4,8 °C 6,6 °C 4,8 km/h (1 Bft)
24.09.2018 10:39 6,6 °C 88 % 1028,9 hPa 0,0 mm 4,6 km/h (1 Bft) W-NW 288 ° 0 min 0,000 mm 0,9 UV-I 109 W/m² 4,8 °C 6,0 °C 8,0 km/h (2 Bft)
24.09.2018 10:40 6,6 °C 87 % 1028,9 hPa 0,0 mm 5,9 km/h (2 Bft) W-NW 303 ° 0 min 0,000 mm 0,7 UV-I 98 W/m² 4,6 °C 5,6 °C 11,3 km/h (2 Bft)
24.09.2018 10:41 6,5 °C 87 % 1028,9 hPa 0,0 mm 4,2 km/h (1 Bft) NW 321 ° 0 min 0,000 mm 0,6 UV-I 91 W/m² 4,5 °C 6,5 °C 6,4 km/h (2 Bft)
24.09.2018 10:42 6,5 °C 88 % 1028,9 hPa 0,0 mm 3,5 km/h (1 Bft) W-NW 298 ° 0 min 0,000 mm 0,6 UV-I 83 W/m² 4,7 °C 6,5 °C 4,8 km/h (1 Bft)
24.09.2018 10:43 6,5 °C 88 % 1028,9 hPa 0,0 mm 4,5 km/h (1 Bft) W 280 ° 0 min 0,000 mm 0,5 UV-I 74 W/m² 4,7 °C 6,5 °C 6,4 km/h (2 Bft)
24.09.2018 10:44 6,5 °C 87 % 1028,9 hPa 0,0 mm 3,1 km/h (1 Bft) W 280 ° 0 min 0,000 mm 0,5 UV-I 69 W/m² 4,5 °C 6,5 °C 6,4 km/h (2 Bft)
24.09.2018 10:45 6,4 °C 87 % 1028,9 hPa 0,0 mm 3,6 km/h (1 Bft) W 267 ° 0 min 0,000 mm 0,5 UV-I 67 W/m² 4,4 °C 6,4 °C 6,4 km/h (2 Bft)
24.09.2018 10:46 6,4 °C 86 % 1028,9 hPa 0,0 mm 5,6 km/h (1 Bft) W 267 ° 0 min 0,000 mm 0,5 UV-I 67 W/m² 4,2 °C 5,5 °C 6,4 km/h (2 Bft)
24.09.2018 10:47 6,4 °C 86 % 1028,9 hPa 0,0 mm 6,6 km/h (2 Bft) W 259 ° 0 min 0,000 mm 0,5 UV-I 67 W/m² 4,2 °C 5,2 °C 9,7 km/h (2 Bft)
24.09.2018 10:48 6,3 °C 86 % 1028,9 hPa 0,0 mm 3,8 km/h (1 Bft) W-NW 291 ° 0 min 0,000 mm 0,5 UV-I 67 W/m² 4,1 °C 6,3 °C 4,8 km/h (1 Bft)
24.09.2018 10:49 6,3 °C 87 % 1028,9 hPa 0,0 mm 3,4 km/h (1 Bft) W-NW 291 ° 0 min 0,000 mm 0,5 UV-I 63 W/m² 4,3 °C 6,3 °C 4,8 km/h (1 Bft)
24.09.2018 10:50 6,3 °C 86 % 1028,9 hPa 0,0 mm 3,6 km/h (1 Bft) W-NW 296 ° 0 min 0,000 mm 0,0 UV-I 58 W/m² 4,1 °C 6,3 °C 4,8 km/h (1 Bft)
24.09.2018 10:51 6,3 °C 87 % 1028,9 hPa 0,0 mm 1,9 km/h (1 Bft) W-NW 300 ° 0 min 0,000 mm 0,0 UV-I 47 W/m² 4,3 °C 6,3 °C 4,8 km/h (1 Bft)
24.09.2018 10:52 6,3 °C 87 % 1028,9 hPa 0,0 mm 4,7 km/h (1 Bft) W-NW 297 ° 0 min 0,000 mm 0,0 UV-I 42 W/m² 4,3 °C 5,7 °C 8,0 km/h (2 Bft)
24.09.2018 10:53 6,3 °C 87 % 1028,9 hPa 0,0 mm 2,7 km/h (1 Bft) W-NW 296 ° 0 min 0,000 mm 0,0 UV-I 37 W/m² 4,3 °C 6,3 °C 4,8 km/h (1 Bft)
24.09.2018 10:54 6,3 °C 88 % 1028,9 hPa 0,0 mm 5,9 km/h (2 Bft) NW 317 ° 0 min 0,000 mm 0,0 UV-I 32 W/m² 4,5 °C 5,2 °C 12,9 km/h (3 Bft)
24.09.2018 10:55 6,3 °C 88 % 1029,0 hPa 0,0 mm 9,5 km/h (2 Bft) W-NW 301 ° 0 min 0,000 mm 0,0 UV-I 30 W/m² 4,5 °C 4,3 °C 14,5 km/h (3 Bft)
24.09.2018 10:56 6,2 °C 88 % 1028,9 hPa 0,0 mm 5,9 km/h (2 Bft) N-NW 335 ° 0 min 0,000 mm 0,0 UV-I 30 W/m² 4,4 °C 5,1 °C 11,3 km/h (2 Bft)
24.09.2018 10:57 6,2 °C 87 % 1028,9 hPa 0,0 mm 4,6 km/h (1 Bft) N-NW 333 ° 0 min 0,000 mm 0,0 UV-I 39 W/m² 4,2 °C 5,6 °C 12,9 km/h (3 Bft)
24.09.2018 10:58 6,1 °C 87 % 1029,0 hPa 0,0 mm 5,6 km/h (1 Bft) N-NW 327 ° 0 min 0,000 mm 0,0 UV-I 42 W/m² 4,1 °C 5,1 °C 8,0 km/h (2 Bft)
24.09.2018 10:59 6,1 °C 88 % 1029,0 hPa 0,0 mm 4,4 km/h (1 Bft) N-NW 327 ° 0 min 0,000 mm 0,0 UV-I 47 W/m² 4,3 °C 6,1 °C 6,4 km/h (2 Bft)
24.09.2018 11:00 5,9 °C 88 % 1029,0 hPa 0,0 mm 3,1 km/h (1 Bft) N-NW 327 ° 0 min 0,051 mm 0,0 UV-I 51 W/m² 4,1 °C 5,9 °C 4,8 km/h (1 Bft)
24.09.2018 11:01 5,9 °C 89 % 1029,0 hPa 0,0 mm 0,8 km/h (0 Bft) N-NW 327 ° 0 min 0,000 mm 0,0 UV-I 54 W/m² 4,2 °C 5,9 °C 1,6 km/h (1 Bft)
24.09.2018 11:02 5,9 °C 89 % 1029,0 hPa 0,0 mm 4,4 km/h (1 Bft) W 261 ° 0 min 0,000 mm 0,5 UV-I 60 W/m² 4,2 °C 5,9 °C 9,7 km/h (2 Bft)
24.09.2018 11:03 5,9 °C 89 % 1029,0 hPa 0,0 mm 3,1 km/h (1 Bft) NW 315 ° 0 min 0,000 mm 0,5 UV-I 70 W/m² 4,2 °C 5,9 °C 4,8 km/h (1 Bft)
24.09.2018 11:04 5,9 °C 89 % 1029,0 hPa 0,0 mm 4,3 km/h (1 Bft) W-NW 291 ° 0 min 0,000 mm 0,6 UV-I 76 W/m² 4,2 °C 5,9 °C 6,4 km/h (2 Bft)
24.09.2018 11:05 5,8 °C 89 % 1029,0 hPa 0,0 mm 3,2 km/h (1 Bft) W-NW 291 ° 0 min 0,000 mm 0,6 UV-I 79 W/m² 4,1 °C 5,8 °C 6,4 km/h (2 Bft)
24.09.2018 11:06 5,9 °C 90 % 1029,0 hPa 0,0 mm 5,4 km/h (1 Bft) W-NW 303 ° 0 min 0,000 mm 0,6 UV-I 84 W/m² 4,4 °C 5,0 °C 8,0 km/h (2 Bft)
24.09.2018 11:07 5,9 °C 90 % 1029,0 hPa 0,0 mm 3,5 km/h (1 Bft) N-NW 340 ° 0 min 0,000 mm 0,7 UV-I 90 W/m² 4,4 °C 5,9 °C 4,8 km/h (1 Bft)
24.09.2018 11:08 5,9 °C 90 % 1029,0 hPa 0,0 mm 3,9 km/h (1 Bft) NW 319 ° 0 min 0,000 mm 0,7 UV-I 95 W/m² 4,4 °C 5,9 °C 4,8 km/h (1 Bft)
24.09.2018 11:09 5,9 °C 90 % 1029,0 hPa 0,0 mm 3,9 km/h (1 Bft) W-NW 297 ° 0 min 0,000 mm 0,9 UV-I 107 W/m² 4,4 °C 5,9 °C 4,8 km/h (1 Bft)
24.09.2018 11:10 5,9 °C 90 % 1029,0 hPa 0,0 mm 4,3 km/h (1 Bft) W-NW 297 ° 0 min 0,000 mm 0,9 UV-I 118 W/m² 4,4 °C 5,9 °C 4,8 km/h (1 Bft)
24.09.2018 11:11 5,9 °C 90 % 1029,0 hPa 0,0 mm 6,0 km/h (2 Bft) W-NW 300 ° 0 min 0,000 mm 1,1 UV-I 130 W/m² 4,4 °C 4,8 °C 6,4 km/h (2 Bft)
24.09.2018 11:12 5,9 °C 90 % 1029,1 hPa 0,0 mm 1,4 km/h (1 Bft) W-NW 300 ° 0 min 0,000 mm 1,3 UV-I 142 W/m² 4,4 °C 5,9 °C 3,2 km/h (1 Bft)
24.09.2018 11:13 5,9 °C 90 % 1029,1 hPa 0,0 mm 3,6 km/h (1 Bft) W-NW 298 ° 0 min 0,000 mm 1,3 UV-I 149 W/m² 4,4 °C 5,9 °C 8,0 km/h (2 Bft)
24.09.2018 11:14 5,9 °C 90 % 1029,1 hPa 0,0 mm 5,8 km/h (2 Bft) W-NW 288 ° 0 min 0,000 mm 1,3 UV-I 148 W/m² 4,4 °C 4,8 °C 6,4 km/h (2 Bft)
24.09.2018 11:15 6,1 °C 90 % 1029,1 hPa 0,0 mm 4,0 km/h (1 Bft) W 281 ° 0 min 0,000 mm 1,3 UV-I 148 W/m² 4,6 °C 6,1 °C 4,8 km/h (1 Bft)
24.09.2018 11:16 6,1 °C 90 % 1029,1 hPa 0,0 mm 6,7 km/h (2 Bft) W-NW 301 ° 0 min 0,000 mm 1,3 UV-I 153 W/m² 4,6 °C 4,8 °C 9,7 km/h (2 Bft)
24.09.2018 11:17 6,1 °C 90 % 1029,1 hPa 0,0 mm 4,3 km/h (1 Bft) W-NW 290 ° 0 min 0,000 mm 1,4 UV-I 160 W/m² 4,6 °C 6,1 °C 6,4 km/h (2 Bft)
24.09.2018 11:18 6,1 °C 90 % 1029,2 hPa 0,0 mm 6,0 km/h (2 Bft) NW 313 ° 0 min 0,000 mm 1,4 UV-I 169 W/m² 4,6 °C 5,0 °C 8,0 km/h (2 Bft)
24.09.2018 11:19 6,2 °C 89 % 1029,2 hPa 0,0 mm 3,0 km/h (1 Bft) W-NW 296 ° 0 min 0,000 mm 1,5 UV-I 178 W/m² 4,5 °C 6,2 °C 4,8 km/h (1 Bft)
24.09.2018 11:20 6,3 °C 90 % 1029,2 hPa 0,0 mm 4,4 km/h (1 Bft) W-NW 296 ° 0 min 0,000 mm 1,5 UV-I 181 W/m² 4,8 °C 6,3 °C 6,4 km/h (2 Bft)
24.09.2018 11:21 6,3 °C 90 % 1029,2 hPa 0,0 mm 4,0 km/h (1 Bft) W-NW 297 ° 0 min 0,000 mm 1,5 UV-I 186 W/m² 4,8 °C 6,3 °C 8,0 km/h (2 Bft)
24.09.2018 11:22 6,3 °C 90 % 1029,3 hPa 0,0 mm 5,9 km/h (2 Bft) W 275 ° 0 min 0,000 mm 1,6 UV-I 197 W/m² 4,8 °C 5,2 °C 9,7 km/h (2 Bft)
24.09.2018 11:23 6,4 °C 89 % 1029,3 hPa 0,0 mm 3,5 km/h (1 Bft) W-NW 296 ° 0 min 0,000 mm 1,6 UV-I 211 W/m² 4,7 °C 6,4 °C 4,8 km/h (1 Bft)
24.09.2018 11:24 6,4 °C 90 % 1029,2 hPa 0,0 mm 2,7 km/h (1 Bft) W-NW 303 ° 0 min 0,000 mm 1,7 UV-I 211 W/m² 4,9 °C 6,4 °C 4,8 km/h (1 Bft)
24.09.2018 11:25 6,6 °C 90 % 1029,2 hPa 0,0 mm 5,2 km/h (1 Bft) N-NW 341 ° 0 min 0,000 mm 1,7 UV-I 225 W/m² 5,1 °C 5,8 °C 6,4 km/h (2 Bft)
24.09.2018 11:26 6,6 °C 89 % 1029,3 hPa 0,0 mm 5,8 km/h (2 Bft) NW 320 ° 0 min 0,000 mm 1,6 UV-I 211 W/m² 4,9 °C 5,6 °C 9,7 km/h (2 Bft)
24.09.2018 11:27 6,7 °C 89 % 1029,3 hPa 0,0 mm 5,5 km/h (1 Bft) NW 319 ° 0 min 0,000 mm 1,6 UV-I 202 W/m² 5,0 °C 5,8 °C 8,0 km/h (2 Bft)
24.09.2018 11:28 6,8 °C 89 % 1029,3 hPa 0,0 mm 9,1 km/h (2 Bft) W-NW 294 ° 0 min 0,000 mm 1,6 UV-I 193 W/m² 5,1 °C 5,0 °C 14,5 km/h (3 Bft)
24.09.2018 11:29 6,8 °C 88 % 1029,4 hPa 0,0 mm 4,1 km/h (1 Bft) NW 307 ° 0 min 0,000 mm 1,6 UV-I 192 W/m² 5,0 °C 6,8 °C 6,4 km/h (2 Bft)
24.09.2018 11:30 6,8 °C 89 % 1029,4 hPa 0,0 mm 3,6 km/h (1 Bft) N-NW 333 ° 0 min 0,000 mm 1,6 UV-I 192 W/m² 5,1 °C 6,8 °C 4,8 km/h (1 Bft)
24.09.2018 11:31 6,8 °C 88 % 1029,4 hPa 0,0 mm 5,1 km/h (1 Bft) W-NW 300 ° 0 min 0,000 mm 1,7 UV-I 195 W/m² 5,0 °C 6,1 °C 6,4 km/h (2 Bft)
24.09.2018 11:32 6,8 °C 88 % 1029,4 hPa 0,0 mm 5,1 km/h (1 Bft) W-SW 257 ° 0 min 0,000 mm 1,7 UV-I 197 W/m² 5,0 °C 6,1 °C 6,4 km/h (2 Bft)
24.09.2018 11:33 6,9 °C 88 % 1029,4 hPa 0,0 mm 4,0 km/h (1 Bft) W-NW 292 ° 0 min 0,000 mm 1,7 UV-I 192 W/m² 5,1 °C 6,9 °C 6,4 km/h (2 Bft)
24.09.2018 11:34 6,9 °C 88 % 1029,4 hPa 0,0 mm 5,1 km/h (1 Bft) W-NW 299 ° 0 min 0,000 mm 1,7 UV-I 185 W/m² 5,1 °C 6,2 °C 9,7 km/h (2 Bft)
24.09.2018 11:35 7,1 °C 88 % 1029,4 hPa 0,0 mm 1,0 km/h (0 Bft) W-NW 299 ° 0 min 0,000 mm 1,7 UV-I 178 W/m² 5,2 °C 7,1 °C 4,8 km/h (1 Bft)
24.09.2018 11:36 7,1 °C 88 % 1029,4 hPa 0,0 mm 6,3 km/h (2 Bft) W 280 ° 0 min 0,000 mm 1,7 UV-I 179 W/m² 5,2 °C 6,0 °C 12,9 km/h (3 Bft)
24.09.2018 11:37 7,1 °C 88 % 1029,4 hPa 0,0 mm 5,7 km/h (1 Bft) W-SW 255 ° 0 min 0,000 mm 1,7 UV-I 185 W/m² 5,2 °C 6,2 °C 11,3 km/h (2 Bft)
24.09.2018 11:38 7,1 °C 87 % 1029,4 hPa 0,0 mm 1,9 km/h (1 Bft) W-NW 294 ° 0 min 0,000 mm 1,7 UV-I 179 W/m² 5,1 °C 7,1 °C 6,4 km/h (2 Bft)
24.09.2018 11:39 7,1 °C 87 % 1029,4 hPa 0,0 mm 6,3 km/h (2 Bft) NW 317 ° 0 min 0,000 mm 1,6 UV-I 176 W/m² 5,1 °C 6,0 °C 11,3 km/h (2 Bft)
24.09.2018 11:40 7,1 °C 88 % 1029,4 hPa 0,0 mm 1,5 km/h (1 Bft) NW 317 ° 0 min 0,000 mm 1,7 UV-I 172 W/m² 5,2 °C 7,1 °C 3,2 km/h (1 Bft)
24.09.2018 11:41 7,1 °C 88 % 1029,4 hPa 0,0 mm 4,1 km/h (1 Bft) W-NW 292 ° 0 min 0,000 mm 1,7 UV-I 179 W/m² 5,2 °C 7,1 °C 11,3 km/h (2 Bft)
24.09.2018 11:42 7,2 °C 87 % 1029,4 hPa 0,0 mm 7,4 km/h (2 Bft) NW 320 ° 0 min 0,000 mm 1,7 UV-I 174 W/m² 5,2 °C 5,9 °C 9,7 km/h (2 Bft)
24.09.2018 11:43 7,1 °C 86 % 1029,4 hPa 0,0 mm 4,3 km/h (1 Bft) NW 315 ° 0 min 0,000 mm 1,8 UV-I 162 W/m² 4,9 °C 7,1 °C 6,4 km/h (2 Bft)
24.09.2018 11:44 7,1 °C 85 % 1029,4 hPa 0,0 mm 4,8 km/h (1 Bft) NW 321 ° 0 min 0,000 mm 1,9 UV-I 172 W/m² 4,8 °C 6,5 °C 6,4 km/h (2 Bft)
24.09.2018 11:45 7,2 °C 86 % 1029,4 hPa 0,0 mm 3,3 km/h (1 Bft) W-NW 298 ° 0 min 0,000 mm 2,2 UV-I 193 W/m² 5,0 °C 7,2 °C 6,4 km/h (2 Bft)
24.09.2018 11:46 7,2 °C 86 % 1029,4 hPa 0,0 mm 3,9 km/h (1 Bft) W-NW 298 ° 0 min 0,000 mm 2,3 UV-I 213 W/m² 5,0 °C 7,2 °C 4,8 km/h (1 Bft)
24.09.2018 11:47 7,2 °C 85 % 1029,5 hPa 0,0 mm 3,8 km/h (1 Bft) NW 317 ° 0 min 0,000 mm 2,6 UV-I 213 W/m² 4,9 °C 7,2 °C 6,4 km/h (2 Bft)
24.09.2018 11:48 7,2 °C 86 % 1029,4 hPa 0,0 mm 6,1 km/h (2 Bft) NW 323 ° 0 min 0,000 mm 2,5 UV-I 306 W/m² 5,0 °C 6,2 °C 8,0 km/h (2 Bft)
24.09.2018 11:49 7,2 °C 85 % 1029,4 hPa 0,0 mm 3,1 km/h (1 Bft) W 275 ° 0 min 0,000 mm 2,5 UV-I 264 W/m² 4,9 °C 7,2 °C 4,8 km/h (1 Bft)
24.09.2018 11:50 7,2 °C 84 % 1029,4 hPa 0,0 mm 7,2 km/h (2 Bft) W-NW 298 ° 0 min 0,000 mm 3,3 UV-I 422 W/m² 4,7 °C 5,9 °C 12,9 km/h (3 Bft)
24.09.2018 11:51 7,3 °C 84 % 1029,4 hPa 0,0 mm 8,0 km/h (2 Bft) W-SW 247 ° 0 min 0,000 mm 3,4 UV-I 441 W/m² 4,8 °C 5,8 °C 11,3 km/h (2 Bft)
24.09.2018 11:52 7,4 °C 83 % 1029,4 hPa 0,0 mm 6,7 km/h (2 Bft) W 279 ° 0 min 0,000 mm 3,2 UV-I 471 W/m² 4,7 °C 6,3 °C 9,7 km/h (2 Bft)
24.09.2018 11:53 7,4 °C 83 % 1029,5 hPa 0,0 mm 7,0 km/h (2 Bft) W-NW 284 ° 0 min 0,000 mm 3,6 UV-I 499 W/m² 4,7 °C 6,2 °C 11,3 km/h (2 Bft)
24.09.2018 11:54 7,6 °C 83 % 1029,5 hPa 0,0 mm 7,4 km/h (2 Bft) N-NW 330 ° 0 min 0,000 mm 2,8 UV-I 429 W/m² 4,9 °C 6,3 °C 14,5 km/h (3 Bft)
24.09.2018 11:55 7,7 °C 82 % 1029,4 hPa 0,0 mm 7,6 km/h (2 Bft) NW 325 ° 0 min 0,000 mm 2,7 UV-I 376 W/m² 4,8 °C 6,4 °C 14,5 km/h (3 Bft)
24.09.2018 11:56 7,7 °C 81 % 1029,5 hPa 0,0 mm 6,0 km/h (2 Bft) W-NW 294 ° 0 min 0,000 mm 2,5 UV-I 346 W/m² 4,7 °C 6,8 °C 11,3 km/h (2 Bft)
24.09.2018 11:57 7,7 °C 78 % 1029,5 hPa 0,0 mm 8,0 km/h (2 Bft) NW 310 ° 0 min 0,000 mm 2,3 UV-I 346 W/m² 4,1 °C 6,3 °C 12,9 km/h (3 Bft)
24.09.2018 11:58 7,8 °C 79 % 1029,5 hPa 0,0 mm 6,6 km/h (2 Bft) W-NW 292 ° 0 min 0,000 mm 2,2 UV-I 309 W/m² 4,4 °C 6,8 °C 9,7 km/h (2 Bft)
24.09.2018 11:59 7,8 °C 78 % 1029,5 hPa 0,0 mm 5,9 km/h (2 Bft) N-NW 331 ° 0 min 0,000 mm 2,0 UV-I 285 W/m² 4,2 °C 7,0 °C 9,7 km/h (2 Bft)
24.09.2018 12:00 7,8 °C 79 % 1029,5 hPa 0,0 mm 10,5 km/h (2 Bft) NW 311 ° 0 min 0,101 mm 1,8 UV-I 253 W/m² 4,4 °C 5,9 °C 14,5 km/h (3 Bft)
24.09.2018 12:01 7,8 °C 81 % 1029,5 hPa 0,0 mm 8,2 km/h (2 Bft) NW 305 ° 0 min 0,000 mm 1,5 UV-I 186 W/m² 4,7 °C 6,4 °C 14,5 km/h (3 Bft)
24.09.2018 12:02 7,8 °C 80 % 1029,5 hPa 0,0 mm 4,4 km/h (1 Bft) NW 309 ° 0 min 0,000 mm 1,3 UV-I 171 W/m² 4,6 °C 7,8 °C 8,0 km/h (2 Bft)
24.09.2018 12:03 7,7 °C 79 % 1029,5 hPa 0,0 mm 3,5 km/h (1 Bft) W-NW 301 ° 0 min 0,000 mm 1,3 UV-I 162 W/m² 4,3 °C 7,7 °C 4,8 km/h (1 Bft)
24.09.2018 12:04 7,7 °C 80 % 1029,5 hPa 0,0 mm 7,3 km/h (2 Bft) W 259 ° 0 min 0,000 mm 1,3 UV-I 156 W/m² 4,5 °C 6,5 °C 17,7 km/h (3 Bft)
24.09.2018 12:05 7,7 °C 80 % 1029,5 hPa 0,0 mm 12,4 km/h (3 Bft) W 267 ° 0 min 0,000 mm 1,4 UV-I 153 W/m² 4,5 °C 5,5 °C 14,5 km/h (3 Bft)
24.09.2018 12:06 7,6 °C 81 % 1029,5 hPa 0,0 mm 5,0 km/h (1 Bft) W 261 ° 0 min 0,000 mm 1,5 UV-I 151 W/m² 4,6 °C 7,0 °C 11,3 km/h (2 Bft)
24.09.2018 12:07 7,6 °C 81 % 1029,5 hPa 0,0 mm 3,6 km/h (1 Bft) W 261 ° 0 min 0,000 mm 1,6 UV-I 149 W/m² 4,6 °C 7,6 °C 4,8 km/h (1 Bft)
24.09.2018 12:08 7,5 °C 81 % 1029,5 hPa 0,0 mm 5,1 km/h (1 Bft) W-SW 250 ° 0 min 0,000 mm 1,8 UV-I 153 W/m² 4,5 °C 6,9 °C 8,0 km/h (2 Bft)
24.09.2018 12:09 7,4 °C 81 % 1029,5 hPa 0,0 mm 3,6 km/h (1 Bft) SW 233 ° 0 min 0,000 mm 1,9 UV-I 160 W/m² 4,4 °C 7,4 °C 11,3 km/h (2 Bft)
24.09.2018 12:10 7,4 °C 81 % 1029,5 hPa 0,0 mm 8,5 km/h (2 Bft) NW 314 ° 0 min 0,000 mm 2,1 UV-I 185 W/m² 4,4 °C 5,8 °C 12,9 km/h (3 Bft)
24.09.2018 12:11 7,4 °C 81 % 1029,5 hPa 0,0 mm 4,0 km/h (1 Bft) W 263 ° 0 min 0,000 mm 2,2 UV-I 202 W/m² 4,4 °C 7,4 °C 6,4 km/h (2 Bft)
24.09.2018 12:12 7,3 °C 82 % 1029,5 hPa 0,0 mm 6,5 km/h (2 Bft) W-NW 284 ° 0 min 0,000 mm 2,2 UV-I 211 W/m² 4,4 °C 6,2 °C 11,3 km/h (2 Bft)
24.09.2018 12:13 7,3 °C 81 % 1029,5 hPa 0,0 mm 9,9 km/h (2 Bft) W-NW 290 ° 0 min 0,000 mm 2,4 UV-I 297 W/m² 4,3 °C 5,4 °C 12,9 km/h (3 Bft)
24.09.2018 12:14 7,4 °C 82 % 1029,5 hPa 0,0 mm 5,0 km/h (1 Bft) NW 305 ° 0 min 0,000 mm 2,0 UV-I 167 W/m² 4,5 °C 6,8 °C 9,7 km/h (2 Bft)
24.09.2018 12:15 7,4 °C 82 % 1029,6 hPa 0,0 mm 4,3 km/h (1 Bft) W-NW 289 ° 0 min 0,000 mm 2,0 UV-I 163 W/m² 4,5 °C 7,4 °C 6,4 km/h (2 Bft)
24.09.2018 12:16 7,4 °C 81 % 1029,5 hPa 0,0 mm 7,0 km/h (2 Bft) W-NW 287 ° 0 min 0,000 mm 2,0 UV-I 171 W/m² 4,4 °C 6,2 °C 11,3 km/h (2 Bft)
24.09.2018 12:17 7,3 °C 81 % 1029,5 hPa 0,0 mm 6,5 km/h (2 Bft) W-NW 289 ° 0 min 0,000 mm 2,1 UV-I 188 W/m² 4,3 °C 6,2 °C 11,3 km/h (2 Bft)
24.09.2018 12:18 7,3 °C 81 % 1029,5 hPa 0,0 mm 7,7 km/h (2 Bft) W-NW 292 ° 0 min 0,000 mm 2,2 UV-I 213 W/m² 4,3 °C 5,9 °C 11,3 km/h (2 Bft)
24.09.2018 12:19 7,3 °C 80 % 1029,5 hPa 0,0 mm 4,9 km/h (1 Bft) W-NW 289 ° 0 min 0,000 mm 2,3 UV-I 269 W/m² 4,1 °C 6,7 °C 6,4 km/h (2 Bft)
24.09.2018 12:20 7,3 °C 80 % 1029,5 hPa 0,0 mm 5,4 km/h (1 Bft) W-NW 293 ° 0 min 0,000 mm 2,4 UV-I 292 W/m² 4,1 °C 6,6 °C 8,0 km/h (2 Bft)
24.09.2018 12:21 7,4 °C 81 % 1029,5 hPa 0,0 mm 3,8 km/h (1 Bft) W-NW 292 ° 0 min 0,000 mm 2,5 UV-I 304 W/m² 4,4 °C 7,4 °C 6,4 km/h (2 Bft)
24.09.2018 12:22 7,6 °C 84 % 1029,5 hPa 0,0 mm 5,6 km/h (1 Bft) W-NW 282 ° 0 min 0,000 mm 2,5 UV-I 313 W/m² 5,1 °C 6,8 °C 9,7 km/h (2 Bft)
24.09.2018 12:23 7,7 °C 83 % 1029,6 hPa 0,0 mm 1,7 km/h (1 Bft) W-NW 282 ° 0 min 0,000 mm 2,4 UV-I 316 W/m² 5,0 °C 7,7 °C 3,2 km/h (1 Bft)
24.09.2018 12:24 7,7 °C 84 % 1029,6 hPa 0,0 mm 3,6 km/h (1 Bft) W 266 ° 0 min 0,000 mm 2,4 UV-I 315 W/m² 5,2 °C 7,7 °C 6,4 km/h (2 Bft)
24.09.2018 12:25 7,8 °C 82 % 1029,6 hPa 0,0 mm 2,8 km/h (1 Bft) W-NW 300 ° 0 min 0,000 mm 2,3 UV-I 297 W/m² 4,9 °C 7,8 °C 4,8 km/h (1 Bft)
24.09.2018 12:26 7,8 °C 83 % 1029,6 hPa 0,0 mm 6,6 km/h (2 Bft) W-SW 246 ° 0 min 0,000 mm 2,1 UV-I 288 W/m² 5,1 °C 6,8 °C 9,7 km/h (2 Bft)
24.09.2018 12:27 7,8 °C 83 % 1029,6 hPa 0,0 mm 5,6 km/h (1 Bft) NW 313 ° 0 min 0,000 mm 2,1 UV-I 279 W/m² 5,1 °C 7,1 °C 9,7 km/h (2 Bft)
24.09.2018 12:28 8,0 °C 84 % 1029,6 hPa 0,0 mm 5,9 km/h (2 Bft) W 263 ° 0 min 0,000 mm 1,9 UV-I 265 W/m² 5,5 °C 7,2 °C 9,7 km/h (2 Bft)
24.09.2018 12:29 8,0 °C 84 % 1029,6 hPa 0,0 mm 4,8 km/h (1 Bft) W 266 ° 0 min 0,000 mm 1,8 UV-I 250 W/m² 5,5 °C 7,6 °C 6,4 km/h (2 Bft)
24.09.2018 12:30 7,9 °C 82 % 1029,6 hPa 0,0 mm 3,5 km/h (1 Bft) W 272 ° 0 min 0,000 mm 1,8 UV-I 236 W/m² 5,0 °C 7,9 °C 9,7 km/h (2 Bft)
24.09.2018 12:31 8,0 °C 84 % 1029,6 hPa 0,0 mm 6,0 km/h (2 Bft) W-SW 248 ° 0 min 0,000 mm 1,8 UV-I 221 W/m² 5,5 °C 7,2 °C 11,3 km/h (2 Bft)
24.09.2018 12:32 7,9 °C 83 % 1029,7 hPa 0,0 mm 4,9 km/h (1 Bft) W 275 ° 0 min 0,000 mm 1,8 UV-I 220 W/m² 5,2 °C 7,4 °C 9,7 km/h (2 Bft)
24.09.2018 12:33 7,8 °C 83 % 1029,6 hPa 0,0 mm 4,2 km/h (1 Bft) W-NW 286 ° 0 min 0,000 mm 1,9 UV-I 221 W/m² 5,1 °C 7,8 °C 9,7 km/h (2 Bft)
24.09.2018 12:34 7,8 °C 83 % 1029,7 hPa 0,0 mm 4,7 km/h (1 Bft) W 278 ° 0 min 0,000 mm 1,9 UV-I 229 W/m² 5,1 °C 7,4 °C 8,0 km/h (2 Bft)
24.09.2018 12:35 7,8 °C 83 % 1029,7 hPa 0,0 mm 2,2 km/h (1 Bft) W 278 ° 0 min 0,000 mm 2,0 UV-I 236 W/m² 5,1 °C 7,8 °C 4,8 km/h (1 Bft)
24.09.2018 12:36 7,8 °C 83 % 1029,7 hPa 0,0 mm 5,8 km/h (2 Bft) W-SW 251 ° 0 min 0,000 mm 2,1 UV-I 241 W/m² 5,1 °C 7,0 °C 9,7 km/h (2 Bft)
24.09.2018 12:37 7,8 °C 82 % 1029,7 hPa 0,0 mm 3,3 km/h (1 Bft) W 277 ° 0 min 0,000 mm 2,2 UV-I 258 W/m² 4,9 °C 7,8 °C 6,4 km/h (2 Bft)
24.09.2018 12:38 7,8 °C 81 % 1029,7 hPa 0,0 mm 2,6 km/h (1 Bft) W 269 ° 0 min 0,000 mm 2,3 UV-I 278 W/m² 4,7 °C 7,8 °C 4,8 km/h (1 Bft)
24.09.2018 12:39 7,8 °C 82 % 1029,7 hPa 0,0 mm 3,6 km/h (1 Bft) W 267 ° 0 min 0,000 mm 2,4 UV-I 306 W/m² 4,9 °C 7,8 °C 6,4 km/h (2 Bft)
24.09.2018 12:40 7,9 °C 84 % 1029,7 hPa 0,0 mm 2,9 km/h (1 Bft) W 276 ° 0 min 0,000 mm 2,8 UV-I 346 W/m² 5,4 °C 7,9 °C 6,4 km/h (2 Bft)
24.09.2018 12:41 8,1 °C 83 % 1029,8 hPa 0,0 mm 2,7 km/h (1 Bft) W 269 ° 0 min 0,000 mm 2,5 UV-I 348 W/m² 5,4 °C 8,1 °C 6,4 km/h (2 Bft)
24.09.2018 12:42 8,1 °C 82 % 1029,8 hPa 0,0 mm 1,2 km/h (1 Bft) W 269 ° 0 min 0,000 mm 2,7 UV-I 371 W/m² 5,2 °C 8,1 °C 4,8 km/h (1 Bft)
24.09.2018 12:43 8,2 °C 82 % 1029,8 hPa 0,0 mm 2,6 km/h (1 Bft) SW 232 ° 0 min 0,000 mm 2,4 UV-I 371 W/m² 5,3 °C 8,2 °C 4,8 km/h (1 Bft)
24.09.2018 12:44 8,3 °C 83 % 1029,8 hPa 0,0 mm 4,5 km/h (1 Bft) W 263 ° 0 min 0,000 mm 2,4 UV-I 350 W/m² 5,6 °C 8,3 °C 11,3 km/h (2 Bft)
24.09.2018 12:45 8,4 °C 83 % 1029,8 hPa 0,0 mm 8,4 km/h (2 Bft) W 273 ° 0 min 0,000 mm 2,7 UV-I 362 W/m² 5,7 °C 7,0 °C 11,3 km/h (2 Bft)
24.09.2018 12:46 8,4 °C 82 % 1029,8 hPa 0,0 mm 4,1 km/h (1 Bft) SW 232 ° 0 min 0,000 mm 2,2 UV-I 357 W/m² 5,5 °C 8,4 °C 6,4 km/h (2 Bft)
24.09.2018 12:47 8,4 °C 81 % 1029,8 hPa 0,0 mm 7,4 km/h (2 Bft) W-NW 294 ° 0 min 0,000 mm 2,0 UV-I 276 W/m² 5,3 °C 7,3 °C 9,7 km/h (2 Bft)
24.09.2018 12:48 8,4 °C 82 % 1029,8 hPa 0,0 mm 7,8 km/h (2 Bft) W-NW 292 ° 0 min 0,000 mm 2,0 UV-I 236 W/m² 5,5 °C 7,2 °C 9,7 km/h (2 Bft)
24.09.2018 12:49 8,4 °C 80 % 1029,8 hPa 0,0 mm 7,1 km/h (2 Bft) W 259 ° 0 min 0,000 mm 1,8 UV-I 223 W/m² 5,2 °C 7,3 °C 11,3 km/h (2 Bft)
24.09.2018 12:50 8,3 °C 80 % 1029,8 hPa 0,0 mm 4,9 km/h (1 Bft) NW 309 ° 0 min 0,000 mm 1,7 UV-I 207 W/m² 5,1 °C 7,9 °C 6,4 km/h (2 Bft)
24.09.2018 12:51 8,3 °C 80 % 1029,8 hPa 0,0 mm 5,3 km/h (1 Bft) W-NW 293 ° 0 min 0,000 mm 1,7 UV-I 197 W/m² 5,1 °C 7,7 °C 8,0 km/h (2 Bft)
24.09.2018 12:52 8,3 °C 80 % 1029,9 hPa 0,0 mm 11,8 km/h (2 Bft) W-NW 290 ° 0 min 0,000 mm 1,8 UV-I 195 W/m² 5,1 °C 6,3 °C 19,3 km/h (3 Bft)
24.09.2018 12:53 8,2 °C 79 % 1029,9 hPa 0,0 mm 6,2 km/h (2 Bft) W-NW 283 ° 0 min 0,000 mm 1,8 UV-I 186 W/m² 4,8 °C 7,3 °C 12,9 km/h (3 Bft)
24.09.2018 12:54 8,1 °C 77 % 1029,9 hPa 0,0 mm 9,1 km/h (2 Bft) W 269 ° 0 min 0,000 mm 1,8 UV-I 156 W/m² 4,3 °C 6,5 °C 14,5 km/h (3 Bft)
24.09.2018 12:55 8,0 °C 76 % 1029,9 hPa 0,0 mm 7,9 km/h (2 Bft) W-NW 300 ° 0 min 0,000 mm 1,8 UV-I 144 W/m² 4,0 °C 6,7 °C 11,3 km/h (2 Bft)
24.09.2018 12:56 7,8 °C 76 % 1029,9 hPa 0,0 mm 7,6 km/h (2 Bft) W 271 ° 0 min 0,000 mm 1,9 UV-I 130 W/m² 3,8 °C 6,5 °C 11,3 km/h (2 Bft)
24.09.2018 12:57 7,8 °C 76 % 1029,8 hPa 0,0 mm 5,3 km/h (1 Bft) W-SW 246 ° 0 min 0,000 mm 1,9 UV-I 114 W/m² 3,8 °C 7,2 °C 9,7 km/h (2 Bft)
24.09.2018 12:58 7,7 °C 77 % 1029,8 hPa 0,0 mm 5,8 km/h (2 Bft) W 265 ° 0 min 0,000 mm 1,9 UV-I 97 W/m² 3,9 °C 6,9 °C 8,0 km/h (2 Bft)
24.09.2018 12:59 7,6 °C 78 % 1029,8 hPa 0,0 mm 6,7 km/h (2 Bft) W-NW 287 ° 0 min 0,000 mm 1,9 UV-I 91 W/m² 4,0 °C 6,5 °C 11,3 km/h (2 Bft)
24.09.2018 13:00 7,6 °C 78 % 1029,9 hPa 0,0 mm 6,4 km/h (2 Bft) W 275 ° 0 min 0,000 mm 2,0 UV-I 77 W/m² 4,0 °C 6,6 °C 11,3 km/h (2 Bft)
24.09.2018 13:01 7,4 °C 78 % 1029,8 hPa 0,0 mm 5,3 km/h (1 Bft) W-NW 301 ° 0 min 0,102 mm 2,0 UV-I 77 W/m² 3,8 °C 6,7 °C 9,7 km/h (2 Bft)
24.09.2018 13:02 7,4 °C 77 % 1029,8 hPa 0,0 mm 2,9 km/h (1 Bft) W-NW 301 ° 0 min 0,000 mm 2,0 UV-I 74 W/m² 3,6 °C 7,4 °C 6,4 km/h (2 Bft)
24.09.2018 13:03 7,4 °C 78 % 1029,8 hPa 0,0 mm 4,3 km/h (1 Bft) W-NW 287 ° 0 min 0,000 mm 2,1 UV-I 77 W/m² 3,8 °C 7,4 °C 6,4 km/h (2 Bft)
24.09.2018 13:04 7,3 °C 79 % 1029,8 hPa 0,0 mm 4,6 km/h (1 Bft) W-SW 248 ° 0 min 0,000 mm 2,1 UV-I 86 W/m² 3,9 °C 6,8 °C 9,7 km/h (2 Bft)
24.09.2018 13:05 7,3 °C 79 % 1029,8 hPa 0,0 mm 2,6 km/h (1 Bft) W-SW 248 ° 0 min 0,000 mm 2,2 UV-I 179 W/m² 3,9 °C 7,3 °C 4,8 km/h (1 Bft)
24.09.2018 13:06 7,3 °C 80 % 1029,8 hPa 0,0 mm 0,6 km/h (0 Bft) W-SW 248 ° 0 min 0,000 mm 3,9 UV-I 179 W/m² 4,1 °C 7,3 °C 3,2 km/h (1 Bft)
24.09.2018 13:07 7,3 °C 81 % 1029,9 hPa 0,0 mm 0,6 km/h (0 Bft) W-SW 248 ° 0 min 0,000 mm 4,5 UV-I 179 W/m² 4,3 °C 7,3 °C 1,6 km/h (1 Bft)
24.09.2018 13:08 7,5 °C 81 % 1029,9 hPa 0,0 mm 2,7 km/h (1 Bft) W 261 ° 1 min 0,000 mm 4,5 UV-I 754 W/m² 4,5 °C 7,5 °C 9,7 km/h (2 Bft)
24.09.2018 13:09 7,7 °C 83 % 1029,9 hPa 0,0 mm 6,0 km/h (2 Bft) W 269 ° 1 min 0,000 mm 4,6 UV-I 766 W/m² 5,0 °C 6,8 °C 9,7 km/h (2 Bft)
24.09.2018 13:10 8,1 °C 84 % 1029,9 hPa 0,0 mm 6,1 km/h (2 Bft) W 268 ° 1 min 0,000 mm 4,7 UV-I 786 W/m² 5,6 °C 7,3 °C 9,7 km/h (2 Bft)
24.09.2018 13:11 8,3 °C 85 % 1029,9 hPa 0,0 mm 3,5 km/h (1 Bft) W-SW 238 ° 1 min 0,000 mm 4,7 UV-I 807 W/m² 5,9 °C 8,3 °C 6,4 km/h (2 Bft)
24.09.2018 13:12 8,5 °C 81 % 1029,8 hPa 0,0 mm 5,3 km/h (1 Bft) W 259 ° 1 min 0,000 mm 4,8 UV-I 847 W/m² 5,4 °C 8,0 °C 6,4 km/h (2 Bft)
24.09.2018 13:13 8,6 °C 81 % 1029,8 hPa 0,0 mm 4,9 km/h (1 Bft) W 274 ° 1 min 0,000 mm 4,5 UV-I 847 W/m² 5,5 °C 8,2 °C 9,7 km/h (2 Bft)
24.09.2018 13:14 8,6 °C 80 % 1029,8 hPa 0,0 mm 4,9 km/h (1 Bft) NW 305 ° 1 min 0,000 mm 3,9 UV-I 847 W/m² 5,3 °C 8,2 °C 6,4 km/h (2 Bft)
24.09.2018 13:15 8,6 °C 81 % 1029,8 hPa 0,0 mm 3,6 km/h (1 Bft) S-SW 193 ° 1 min 0,000 mm 4,8 UV-I 847 W/m² 5,5 °C 8,6 °C 8,0 km/h (2 Bft)
24.09.2018 13:16 8,6 °C 78 % 1029,8 hPa 0,0 mm 3,8 km/h (1 Bft) SW 220 ° 1 min 0,000 mm 4,1 UV-I 847 W/m² 5,0 °C 8,6 °C 9,7 km/h (2 Bft)
24.09.2018 13:17 8,7 °C 80 % 1029,7 hPa 0,0 mm 3,0 km/h (1 Bft) W-SW 250 ° 1 min 0,000 mm 4,7 UV-I 828 W/m² 5,4 °C 8,7 °C 6,4 km/h (2 Bft)
24.09.2018 13:18 8,7 °C 81 % 1029,8 hPa 0,0 mm 4,1 km/h (1 Bft) W-SW 237 ° 1 min 0,000 mm 4,8 UV-I 860 W/m² 5,6 °C 8,7 °C 6,4 km/h (2 Bft)
24.09.2018 13:19 8,8 °C 79 % 1029,7 hPa 0,0 mm 4,6 km/h (1 Bft) S 173 ° 1 min 0,000 mm 2,5 UV-I 860 W/m² 5,4 °C 8,5 °C 9,7 km/h (2 Bft)
24.09.2018 13:20 8,7 °C 80 % 1029,6 hPa 0,0 mm 4,1 km/h (1 Bft) W 260 ° 0 min 0,000 mm 2,4 UV-I 241 W/m² 5,4 °C 8,7 °C 9,7 km/h (2 Bft)
24.09.2018 13:21 8,7 °C 79 % 1029,6 hPa 0,0 mm 6,1 km/h (2 Bft) W 277 ° 0 min 0,000 mm 2,3 UV-I 225 W/m² 5,3 °C 7,9 °C 9,7 km/h (2 Bft)
24.09.2018 13:22 8,6 °C 78 % 1029,7 hPa 0,0 mm 2,9 km/h (1 Bft) W 270 ° 0 min 0,000 mm 2,3 UV-I 237 W/m² 5,0 °C 8,6 °C 6,4 km/h (2 Bft)
24.09.2018 13:23 8,5 °C 80 % 1029,6 hPa 0,0 mm 4,0 km/h (1 Bft) W 271 ° 0 min 0,000 mm 2,4 UV-I 285 W/m² 5,3 °C 8,5 °C 4,8 km/h (1 Bft)
24.09.2018 13:24 8,5 °C 81 % 1029,7 hPa 0,0 mm 6,0 km/h (2 Bft) W-SW 251 ° 0 min 0,000 mm 2,5 UV-I 325 W/m² 5,4 °C 7,7 °C 9,7 km/h (2 Bft)
24.09.2018 13:25 8,4 °C 80 % 1029,6 hPa 0,0 mm 4,1 km/h (1 Bft) SW 227 ° 0 min 0,000 mm 3,0 UV-I 364 W/m² 5,2 °C 8,4 °C 6,4 km/h (2 Bft)
24.09.2018 13:26 8,5 °C 81 % 1029,6 hPa 0,0 mm 2,1 km/h (1 Bft) W-NW 292 ° 0 min 0,000 mm 4,6 UV-I 364 W/m² 5,4 °C 8,5 °C 4,8 km/h (1 Bft)
24.09.2018 13:27 8,6 °C 81 % 1029,6 hPa 0,0 mm 1,2 km/h (1 Bft) W-NW 291 ° 0 min 0,000 mm 4,8 UV-I 364 W/m² 5,5 °C 8,6 °C 1,6 km/h (1 Bft)
24.09.2018 13:28 8,8 °C 83 % 1029,6 hPa 0,0 mm 2,8 km/h (1 Bft) W-NW 291 ° 1 min 0,000 mm 4,5 UV-I 946 W/m² 6,1 °C 8,8 °C 4,8 km/h (1 Bft)
24.09.2018 13:29 9,2 °C 84 % 1029,6 hPa 0,0 mm 1,5 km/h (1 Bft) W-NW 299 ° 1 min 0,000 mm 4,5 UV-I 898 W/m² 6,6 °C 9,2 °C 3,2 km/h (1 Bft)
24.09.2018 13:30 9,6 °C 84 % 1029,6 hPa 0,0 mm 6,1 km/h (2 Bft) W 266 ° 1 min 0,000 mm 3,9 UV-I 939 W/m² 7,0 °C 9,0 °C 9,7 km/h (2 Bft)
24.09.2018 13:31 9,6 °C 82 % 1029,6 hPa 0,0 mm 6,4 km/h (2 Bft) W-SW 252 ° 1 min 0,000 mm 2,2 UV-I 939 W/m² 6,7 °C 8,9 °C 9,7 km/h (2 Bft)
24.09.2018 13:32 9,6 °C 80 % 1029,6 hPa 0,0 mm 10,1 km/h (2 Bft) W 268 ° 0 min 0,000 mm 2,4 UV-I 345 W/m² 6,3 °C 8,1 °C 12,9 km/h (3 Bft)
24.09.2018 13:33 9,5 °C 80 % 1029,7 hPa 0,0 mm 11,0 km/h (2 Bft) W 270 ° 0 min 0,000 mm 4,1 UV-I 345 W/m² 6,2 °C 7,9 °C 14,5 km/h (3 Bft)
24.09.2018 13:34 9,3 °C 79 % 1029,7 hPa 0,0 mm 6,2 km/h (2 Bft) NW 307 ° 0 min 0,000 mm 2,2 UV-I 345 W/m² 5,8 °C 8,6 °C 9,7 km/h (2 Bft)
24.09.2018 13:35 9,2 °C 78 % 1029,7 hPa 0,0 mm 4,7 km/h (1 Bft) W 266 ° 0 min 0,000 mm 2,6 UV-I 366 W/m² 5,6 °C 8,9 °C 8,0 km/h (2 Bft)
24.09.2018 13:36 9,1 °C 78 % 1029,7 hPa 0,0 mm 3,4 km/h (1 Bft) W 259 ° 1 min 0,000 mm 4,5 UV-I 956 W/m² 5,5 °C 9,1 °C 4,8 km/h (1 Bft)
24.09.2018 13:37 9,3 °C 81 % 1029,7 hPa 0,0 mm 8,3 km/h (2 Bft) W-SW 238 ° 1 min 0,000 mm 2,5 UV-I 956 W/m² 6,2 °C 8,1 °C 12,9 km/h (3 Bft)
24.09.2018 13:38 9,4 °C 79 % 1029,7 hPa 0,0 mm 6,2 km/h (2 Bft) W 268 ° 1 min 0,000 mm 2,3 UV-I 956 W/m² 5,9 °C 8,7 °C 14,5 km/h (3 Bft)
24.09.2018 13:39 9,3 °C 78 % 1029,7 hPa 0,0 mm 7,4 km/h (2 Bft) W-NW 283 ° 1 min 0,000 mm 4,5 UV-I 956 W/m² 5,7 °C 8,3 °C 12,9 km/h (3 Bft)
24.09.2018 13:40 9,4 °C 79 % 1029,7 hPa 0,0 mm 8,1 km/h (2 Bft) W 264 ° 0 min 0,000 mm 3,4 UV-I 541 W/m² 5,9 °C 8,3 °C 11,3 km/h (2 Bft)
24.09.2018 13:41 9,3 °C 79 % 1029,7 hPa 0,0 mm 4,9 km/h (1 Bft) W 263 ° 1 min 0,000 mm 4,5 UV-I 853 W/m² 5,8 °C 9,0 °C 11,3 km/h (2 Bft)
24.09.2018 13:42 9,4 °C 79 % 1029,7 hPa 0,0 mm 10,0 km/h (2 Bft) W-NW 282 ° 1 min 0,000 mm 4,5 UV-I 812 W/m² 5,9 °C 7,9 °C 12,9 km/h (3 Bft)
24.09.2018 13:43 9,4 °C 79 % 1029,6 hPa 0,0 mm 4,7 km/h (1 Bft) W 268 ° 1 min 0,000 mm 4,5 UV-I 796 W/m² 5,9 °C 9,2 °C 8,0 km/h (2 Bft)
24.09.2018 13:44 9,3 °C 77 % 1029,7 hPa 0,0 mm 6,5 km/h (2 Bft) W 261 ° 1 min 0,000 mm 4,5 UV-I 786 W/m² 5,5 °C 8,5 °C 9,7 km/h (2 Bft)
24.09.2018 13:45 9,3 °C 77 % 1029,6 hPa 0,0 mm 9,0 km/h (2 Bft) W 267 ° 1 min 0,000 mm 4,5 UV-I 788 W/m² 5,5 °C 8,0 °C 11,3 km/h (2 Bft)
24.09.2018 13:46 9,2 °C 76 % 1029,6 hPa 0,0 mm 3,3 km/h (1 Bft) W-NW 288 ° 1 min 0,000 mm 3,9 UV-I 817 W/m² 5,2 °C 9,2 °C 6,4 km/h (2 Bft)
24.09.2018 13:47 9,2 °C 78 % 1029,6 hPa 0,0 mm 1,2 km/h (1 Bft) S-SW 198 ° 1 min 0,000 mm 3,6 UV-I 817 W/m² 5,6 °C 9,2 °C 6,4 km/h (2 Bft)
24.09.2018 13:48 9,2 °C 79 % 1029,6 hPa 0,0 mm 2,1 km/h (1 Bft) S-SW 192 ° 0 min 0,000 mm 2,3 UV-I 207 W/m² 5,8 °C 9,2 °C 4,8 km/h (1 Bft)
24.09.2018 13:49 9,0 °C 76 % 1029,6 hPa 0,0 mm 2,2 km/h (1 Bft) S-SW 192 ° 0 min 0,000 mm 2,4 UV-I 258 W/m² 5,0 °C 9,0 °C 3,2 km/h (1 Bft)
24.09.2018 13:50 8,8 °C 73 % 1029,7 hPa 0,0 mm 0,1 km/h (0 Bft) S-SW 192 ° 0 min 0,000 mm 4,5 UV-I 258 W/m² 4,2 °C 8,8 °C 1,6 km/h (1 Bft)
24.09.2018 13:51 8,8 °C 77 % 1029,7 hPa 0,0 mm 1,0 km/h (0 Bft) S-SW 192 ° 1 min 0,000 mm 2,5 UV-I 900 W/m² 5,0 °C 8,8 °C 1,6 km/h (1 Bft)
24.09.2018 13:52 8,8 °C 77 % 1029,5 hPa 0,0 mm 1,9 km/h (1 Bft) S-SW 198 ° 0 min 0,000 mm 2,2 UV-I 197 W/m² 5,0 °C 8,8 °C 3,2 km/h (1 Bft)
24.09.2018 13:53 8,9 °C 78 % 1029,5 hPa 0,0 mm 0,3 km/h (0 Bft) S-SW 199 ° 0 min 0,000 mm 2,1 UV-I 186 W/m² 5,3 °C 8,9 °C 1,6 km/h (1 Bft)
24.09.2018 13:54 9,1 °C 79 % 1029,6 hPa 0,0 mm 2,7 km/h (1 Bft) W-NW 283 ° 0 min 0,000 mm 2,0 UV-I 181 W/m² 5,7 °C 9,1 °C 6,4 km/h (2 Bft)
24.09.2018 13:55 9,1 °C 78 % 1029,7 hPa 0,0 mm 9,0 km/h (2 Bft) W-NW 290 ° 0 min 0,000 mm 1,9 UV-I 178 W/m² 5,5 °C 7,7 °C 12,9 km/h (3 Bft)
24.09.2018 13:56 9,1 °C 76 % 1029,7 hPa 0,0 mm 5,8 km/h (2 Bft) NW 314 ° 0 min 0,000 mm 1,9 UV-I 178 W/m² 5,1 °C 8,5 °C 9,7 km/h (2 Bft)
24.09.2018 13:57 9,0 °C 74 % 1029,7 hPa 0,0 mm 4,5 km/h (1 Bft) NW 307 ° 0 min 0,000 mm 1,8 UV-I 176 W/m² 4,6 °C 9,0 °C 6,4 km/h (2 Bft)
24.09.2018 13:58 8,9 °C 73 % 1029,7 hPa 0,0 mm 1,4 km/h (1 Bft) NW 311 ° 0 min 0,000 mm 2,7 UV-I 301 W/m² 4,3 °C 8,9 °C 4,8 km/h (1 Bft)
24.09.2018 13:59 8,9 °C 71 % 1029,6 hPa 0,0 mm 3,1 km/h (1 Bft) W 261 ° 0 min 0,000 mm 2,6 UV-I 301 W/m² 3,9 °C 8,9 °C 4,8 km/h (1 Bft)
24.09.2018 14:00 8,9 °C 73 % 1029,7 hPa 0,0 mm 4,5 km/h (1 Bft) W 277 ° 0 min 0,000 mm 4,0 UV-I 301 W/m² 4,3 °C 8,9 °C 6,4 km/h (2 Bft)
24.09.2018 14:01 9,0 °C 73 % 1029,7 hPa 0,0 mm 3,0 km/h (1 Bft) W 265 ° 0 min 0,254 mm 4,2 UV-I 301 W/m² 4,4 °C 9,0 °C 4,8 km/h (1 Bft)
24.09.2018 14:02 9,2 °C 76 % 1029,6 hPa 0,0 mm 1,5 km/h (1 Bft) W-NW 282 ° 1 min 0,000 mm 4,3 UV-I 916 W/m² 5,2 °C 9,2 °C 4,8 km/h (1 Bft)
24.09.2018 14:03 9,3 °C 75 % 1029,6 hPa 0,0 mm 6,1 km/h (2 Bft) W-SW 257 ° 1 min 0,000 mm 4,4 UV-I 935 W/m² 5,1 °C 8,6 °C 11,3 km/h (2 Bft)
24.09.2018 14:04 9,7 °C 77 % 1029,7 hPa 0,0 mm 6,6 km/h (2 Bft) SW 234 ° 0 min 0,000 mm 3,1 UV-I 438 W/m² 5,9 °C 9,0 °C 9,7 km/h (2 Bft)
24.09.2018 14:05 9,8 °C 74 % 1029,7 hPa 0,0 mm 7,7 km/h (2 Bft) S-SW 192 ° 0 min 0,000 mm 2,5 UV-I 346 W/m² 5,4 °C 8,8 °C 12,9 km/h (3 Bft)
24.09.2018 14:06 9,7 °C 69 % 1029,7 hPa 0,0 mm 5,2 km/h (1 Bft) W-NW 295 ° 0 min 0,000 mm 3,3 UV-I 346 W/m² 4,3 °C 9,4 °C 11,3 km/h (2 Bft)
24.09.2018 14:07 9,7 °C 71 % 1029,7 hPa 0,0 mm 6,7 km/h (2 Bft) W 262 ° 0 min 0,000 mm 3,2 UV-I 346 W/m² 4,7 °C 8,9 °C 12,9 km/h (3 Bft)
24.09.2018 14:08 9,6 °C 69 % 1029,7 hPa 0,0 mm 3,7 km/h (1 Bft) NW 311 ° 0 min 0,000 mm 2,2 UV-I 346 W/m² 4,2 °C 9,6 °C 6,4 km/h (2 Bft)
24.09.2018 14:09 9,6 °C 72 % 1029,6 hPa 0,0 mm 5,8 km/h (2 Bft) W-SW 244 ° 0 min 0,000 mm 1,8 UV-I 346 W/m² 4,8 °C 9,1 °C 9,7 km/h (2 Bft)
24.09.2018 14:10 9,6 °C 70 % 1029,6 hPa 0,0 mm 4,8 km/h (1 Bft) W-SW 256 ° 0 min 0,000 mm 1,7 UV-I 255 W/m² 4,4 °C 9,4 °C 9,7 km/h (2 Bft)
24.09.2018 14:11 9,6 °C 74 % 1029,7 hPa 0,0 mm 5,4 km/h (1 Bft) W 269 ° 0 min 0,000 mm 1,8 UV-I 269 W/m² 5,2 °C 9,2 °C 9,7 km/h (2 Bft)
24.09.2018 14:12 9,5 °C 73 % 1029,7 hPa 0,0 mm 7,2 km/h (2 Bft) W 268 ° 0 min 0,000 mm 3,9 UV-I 269 W/m² 4,9 °C 8,6 °C 11,3 km/h (2 Bft)
24.09.2018 14:13 9,4 °C 73 % 1029,7 hPa 0,0 mm 4,8 km/h (1 Bft) W-SW 254 ° 0 min 0,000 mm 1,8 UV-I 269 W/m² 4,8 °C 9,1 °C 11,3 km/h (2 Bft)
24.09.2018 14:14 9,4 °C 69 % 1029,6 hPa 0,0 mm 3,4 km/h (1 Bft) SW 232 ° 0 min 0,000 mm 1,7 UV-I 269 W/m² 4,0 °C 9,4 °C 4,8 km/h (1 Bft)
24.09.2018 14:15 9,3 °C 67 % 1029,6 hPa 0,0 mm 0,4 km/h (0 Bft) SW 232 ° 0 min 0,000 mm 2,0 UV-I 336 W/m² 3,5 °C 9,3 °C 1,6 km/h (1 Bft)
24.09.2018 14:16 9,2 °C 69 % 1029,7 hPa 0,0 mm 1,5 km/h (1 Bft) SW 233 ° 0 min 0,000 mm 1,7 UV-I 287 W/m² 3,8 °C 9,2 °C 4,8 km/h (1 Bft)
24.09.2018 14:17 9,3 °C 71 % 1029,6 hPa 0,0 mm 1,9 km/h (1 Bft) SW 225 ° 0 min 0,000 mm 3,5 UV-I 287 W/m² 4,3 °C 9,3 °C 8,0 km/h (2 Bft)
24.09.2018 14:18 9,3 °C 71 % 1029,6 hPa 0,0 mm 3,6 km/h (1 Bft) W 281 ° 0 min 0,000 mm 3,5 UV-I 287 W/m² 4,3 °C 9,3 °C 6,4 km/h (2 Bft)
24.09.2018 14:19 9,6 °C 74 % 1029,6 hPa 0,0 mm 6,0 km/h (2 Bft) W-NW 290 ° 0 min 0,000 mm 2,1 UV-I 487 W/m² 5,2 °C 9,0 °C 8,0 km/h (2 Bft)
24.09.2018 14:20 9,7 °C 73 % 1029,6 hPa 0,0 mm 6,4 km/h (2 Bft) W 273 ° 0 min 0,000 mm 1,6 UV-I 487 W/m² 5,1 °C 9,0 °C 11,3 km/h (2 Bft)
24.09.2018 14:21 9,7 °C 72 % 1029,6 hPa 0,0 mm 3,0 km/h (1 Bft) W 273 ° 0 min 0,000 mm 1,6 UV-I 237 W/m² 4,9 °C 9,7 °C 6,4 km/h (2 Bft)
24.09.2018 14:22 9,6 °C 72 % 1029,6 hPa 0,0 mm 2,3 km/h (1 Bft) NW 309 ° 0 min 0,000 mm 1,5 UV-I 202 W/m² 4,8 °C 9,6 °C 6,4 km/h (2 Bft)
24.09.2018 14:23 9,7 °C 73 % 1029,7 hPa 0,0 mm 7,4 km/h (2 Bft) W-NW 293 ° 0 min 0,000 mm 1,5 UV-I 207 W/m² 5,1 °C 8,8 °C 14,5 km/h (3 Bft)
24.09.2018 14:24 9,5 °C 70 % 1029,7 hPa 0,0 mm 9,1 km/h (2 Bft) W-NW 284 ° 0 min 0,000 mm 1,4 UV-I 181 W/m² 4,3 °C 8,2 °C 12,9 km/h (3 Bft)
24.09.2018 14:25 9,4 °C 69 % 1029,7 hPa 0,0 mm 5,2 km/h (1 Bft) NW 304 ° 0 min 0,000 mm 1,4 UV-I 174 W/m² 4,0 °C 9,0 °C 9,7 km/h (2 Bft)
24.09.2018 14:26 9,3 °C 68 % 1029,7 hPa 0,0 mm 4,8 km/h (1 Bft) W-NW 288 ° 0 min 0,000 mm 1,3 UV-I 171 W/m² 3,7 °C 9,0 °C 8,0 km/h (2 Bft)
24.09.2018 14:27 9,2 °C 70 % 1029,7 hPa 0,0 mm 8,4 km/h (2 Bft) W 278 ° 0 min 0,000 mm 1,3 UV-I 162 W/m² 4,0 °C 8,0 °C 12,9 km/h (3 Bft)
24.09.2018 14:28 9,1 °C 69 % 1029,7 hPa 0,0 mm 8,1 km/h (2 Bft) W 267 ° 0 min 0,000 mm 1,2 UV-I 148 W/m² 3,7 °C 7,9 °C 12,9 km/h (3 Bft)
24.09.2018 14:29 9,1 °C 69 % 1029,7 hPa 0,0 mm 8,2 km/h (2 Bft) W 281 ° 0 min 0,000 mm 1,2 UV-I 148 W/m² 3,7 °C 7,9 °C 9,7 km/h (2 Bft)
24.09.2018 14:30 9,0 °C 69 % 1029,8 hPa 0,0 mm 4,3 km/h (1 Bft) N-NW 342 ° 0 min 0,000 mm 1,2 UV-I 163 W/m² 3,6 °C 9,0 °C 6,4 km/h (2 Bft)
24.09.2018 14:31 9,0 °C 70 % 1029,7 hPa 0,0 mm 1,9 km/h (1 Bft) N-NW 342 ° 0 min 0,000 mm 1,2 UV-I 163 W/m² 3,8 °C 9,0 °C 3,2 km/h (1 Bft)
24.09.2018 14:32 9,0 °C 70 % 1029,8 hPa 0,0 mm 2,3 km/h (1 Bft) NW 316 ° 0 min 0,000 mm 2,3 UV-I 163 W/m² 3,8 °C 9,0 °C 3,2 km/h (1 Bft)
24.09.2018 14:33 9,1 °C 71 % 1029,7 hPa 0,0 mm 5,4 km/h (1 Bft) NW 323 ° 0 min 0,000 mm 2,8 UV-I 578 W/m² 4,1 °C 8,6 °C 9,7 km/h (2 Bft)
24.09.2018 14:34 9,2 °C 72 % 1029,7 hPa 0,0 mm 5,9 km/h (2 Bft) NW 322 ° 0 min 0,000 mm 1,7 UV-I 578 W/m² 4,4 °C 8,6 °C 8,0 km/h (2 Bft)
24.09.2018 14:35 9,4 °C 75 % 1029,8 hPa 0,0 mm 6,8 km/h (2 Bft) NW 322 ° 0 min 0,000 mm 1,9 UV-I 578 W/m² 5,2 °C 8,6 °C 11,3 km/h (2 Bft)
24.09.2018 14:36 9,6 °C 75 % 1029,8 hPa 0,0 mm 7,5 km/h (2 Bft) N-NW 327 ° 0 min 0,000 mm 2,7 UV-I 408 W/m² 5,4 °C 8,6 °C 11,3 km/h (2 Bft)
24.09.2018 14:37 9,7 °C 71 % 1029,8 hPa 0,0 mm 8,0 km/h (2 Bft) W-SW 249 ° 0 min 0,000 mm 2,1 UV-I 408 W/m² 4,7 °C 8,7 °C 16,1 km/h (3 Bft)
24.09.2018 14:38 9,6 °C 70 % 1029,7 hPa 0,0 mm 6,6 km/h (2 Bft) NW 310 ° 0 min 0,000 mm 3,0 UV-I 283 W/m² 4,4 °C 8,9 °C 8,0 km/h (2 Bft)
24.09.2018 14:39 9,6 °C 71 % 1029,7 hPa 0,0 mm 10,4 km/h (2 Bft) W 269 ° 1 min 0,000 mm 2,1 UV-I 729 W/m² 4,6 °C 8,1 °C 14,5 km/h (3 Bft)
24.09.2018 14:40 9,5 °C 69 % 1029,8 hPa 0,0 mm 9,9 km/h (2 Bft) W 275 ° 1 min 0,000 mm 1,8 UV-I 729 W/m² 4,1 °C 8,1 °C 12,9 km/h (3 Bft)
24.09.2018 14:41 9,4 °C 69 % 1029,7 hPa 0,0 mm 10,2 km/h (2 Bft) W-NW 285 ° 1 min 0,000 mm 1,6 UV-I 729 W/m² 4,0 °C 7,9 °C 16,1 km/h (3 Bft)
24.09.2018 14:42 9,3 °C 69 % 1029,7 hPa 0,0 mm 10,4 km/h (2 Bft) W 279 ° 0 min 0,000 mm 1,6 UV-I 120 W/m² 3,9 °C 7,7 °C 14,5 km/h (3 Bft)
24.09.2018 14:43 9,2 °C 70 % 1029,8 hPa 0,0 mm 10,6 km/h (2 Bft) W-NW 286 ° 0 min 0,000 mm 1,6 UV-I 113 W/m² 4,0 °C 7,6 °C 14,5 km/h (3 Bft)
24.09.2018 14:44 9,1 °C 71 % 1029,8 hPa 0,0 mm 7,9 km/h (2 Bft) W-NW 291 ° 0 min 0,000 mm 1,6 UV-I 113 W/m² 4,1 °C 8,0 °C 12,9 km/h (3 Bft)
24.09.2018 14:45 9,0 °C 70 % 1029,7 hPa 0,0 mm 3,6 km/h (1 Bft) W 275 ° 0 min 0,000 mm 1,7 UV-I 127 W/m² 3,8 °C 9,0 °C 4,8 km/h (1 Bft)
24.09.2018 14:46 8,9 °C 72 % 1029,8 hPa 0,0 mm 3,6 km/h (1 Bft) W-NW 283 ° 0 min 0,000 mm 2,5 UV-I 127 W/m² 4,1 °C 8,9 °C 6,4 km/h (2 Bft)
24.09.2018 14:47 9,0 °C 73 % 1029,7 hPa 0,0 mm 3,4 km/h (1 Bft) W 281 ° 0 min 0,000 mm 1,8 UV-I 127 W/m² 4,4 °C 9,0 °C 4,8 km/h (1 Bft)
24.09.2018 14:48 9,0 °C 74 % 1029,7 hPa 0,0 mm 6,2 km/h (2 Bft) W 279 ° 0 min 0,000 mm 1,7 UV-I 120 W/m² 4,6 °C 8,3 °C 9,7 km/h (2 Bft)
24.09.2018 14:49 8,9 °C 73 % 1029,8 hPa 0,0 mm 6,2 km/h (2 Bft) NW 306 ° 0 min 0,000 mm 1,7 UV-I 104 W/m² 4,3 °C 8,2 °C 9,7 km/h (2 Bft)
24.09.2018 14:50 8,9 °C 74 % 1029,8 hPa 0,0 mm 2,7 km/h (1 Bft) NW 306 ° 0 min 0,000 mm 1,6 UV-I 88 W/m² 4,5 °C 8,9 °C 4,8 km/h (1 Bft)
24.09.2018 14:51 8,8 °C 73 % 1029,7 hPa 0,0 mm 4,3 km/h (1 Bft) W-NW 300 ° 0 min 0,000 mm 1,9 UV-I 74 W/m² 4,2 °C 8,8 °C 8,0 km/h (2 Bft)
24.09.2018 14:52 8,8 °C 73 % 1029,8 hPa 0,0 mm 3,8 km/h (1 Bft) NW 313 ° 0 min 0,000 mm 1,5 UV-I 70 W/m² 4,2 °C 8,8 °C 6,4 km/h (2 Bft)
24.09.2018 14:53 8,8 °C 74 % 1029,7 hPa 0,0 mm 4,6 km/h (1 Bft) W 262 ° 0 min 0,000 mm 1,5 UV-I 67 W/m² 4,4 °C 8,5 °C 9,7 km/h (2 Bft)
24.09.2018 14:54 8,7 °C 73 % 1029,7 hPa 0,0 mm 5,0 km/h (1 Bft) W 269 ° 0 min 0,000 mm 1,5 UV-I 63 W/m² 4,1 °C 8,3 °C 9,7 km/h (2 Bft)
24.09.2018 14:55 8,7 °C 73 % 1029,7 hPa 0,0 mm 2,1 km/h (1 Bft) W 269 ° 0 min 0,000 mm 1,5 UV-I 62 W/m² 4,1 °C 8,7 °C 4,8 km/h (1 Bft)
24.09.2018 14:56 8,6 °C 73 % 1029,7 hPa 0,0 mm 1,5 km/h (1 Bft) W 269 ° 0 min 0,000 mm 1,5 UV-I 63 W/m² 4,0 °C 8,6 °C 3,2 km/h (1 Bft)
24.09.2018 14:57 8,6 °C 73 % 1029,7 hPa 0,0 mm 1,7 km/h (1 Bft) W 269 ° 0 min 0,000 mm 1,5 UV-I 67 W/m² 4,0 °C 8,6 °C 3,2 km/h (1 Bft)
24.09.2018 14:58 8,4 °C 73 % 1029,8 hPa 0,0 mm 2,7 km/h (1 Bft) W-NW 289 ° 0 min 0,000 mm 1,5 UV-I 63 W/m² 3,8 °C 8,4 °C 4,8 km/h (1 Bft)
24.09.2018 14:59 8,4 °C 73 % 1029,8 hPa 0,0 mm 4,8 km/h (1 Bft) W-NW 294 ° 0 min 0,000 mm 1,5 UV-I 60 W/m² 3,8 °C 8,0 °C 6,4 km/h (2 Bft)
24.09.2018 15:00 8,4 °C 73 % 1029,8 hPa 0,0 mm 4,5 km/h (1 Bft) W-NW 299 ° 0 min 0,000 mm 1,5 UV-I 56 W/m² 3,8 °C 8,4 °C 6,4 km/h (2 Bft)
24.09.2018 15:01 8,3 °C 73 % 1029,8 hPa 0,0 mm 3,6 km/h (1 Bft) W-NW 298 ° 0 min 0,152 mm 1,5 UV-I 56 W/m² 3,8 °C 8,3 °C 6,4 km/h (2 Bft)
24.09.2018 15:02 8,3 °C 74 % 1029,8 hPa 0,0 mm 1,3 km/h (1 Bft) W-NW 298 ° 0 min 0,000 mm 1,5 UV-I 62 W/m² 3,9 °C 8,3 °C 3,2 km/h (1 Bft)
24.09.2018 15:03 8,3 °C 75 % 1029,8 hPa 0,0 mm 1,3 km/h (1 Bft) W-NW 299 ° 0 min 0,000 mm 1,5 UV-I 65 W/m² 4,1 °C 8,3 °C 4,8 km/h (1 Bft)
24.09.2018 15:04 8,3 °C 75 % 1029,9 hPa 0,0 mm 2,1 km/h (1 Bft) W-NW 299 ° 0 min 0,000 mm 1,6 UV-I 69 W/m² 4,1 °C 8,3 °C 4,8 km/h (1 Bft)
24.09.2018 15:05 8,3 °C 75 % 1029,9 hPa 0,0 mm 4,6 km/h (1 Bft) W-SW 257 ° 0 min 0,000 mm 1,6 UV-I 70 W/m² 4,1 °C 8,0 °C 6,4 km/h (2 Bft)
24.09.2018 15:06 8,2 °C 78 % 1029,9 hPa 0,0 mm 4,1 km/h (1 Bft) W-NW 284 ° 0 min 0,000 mm 1,6 UV-I 74 W/m² 4,6 °C 8,2 °C 6,4 km/h (2 Bft)
24.09.2018 15:07 8,2 °C 77 % 1029,9 hPa 0,0 mm 2,9 km/h (1 Bft) W-NW 284 ° 0 min 0,000 mm 1,6 UV-I 79 W/m² 4,4 °C 8,2 °C 4,8 km/h (1 Bft)
24.09.2018 15:08 8,1 °C 77 % 1029,9 hPa 0,0 mm 3,0 km/h (1 Bft) W 273 ° 0 min 0,000 mm 1,6 UV-I 98 W/m² 4,3 °C 8,1 °C 4,8 km/h (1 Bft)
24.09.2018 15:09 8,1 °C 78 % 1029,9 hPa 0,0 mm 2,1 km/h (1 Bft) W 273 ° 0 min 0,000 mm 2,1 UV-I 98 W/m² 4,5 °C 8,1 °C 3,2 km/h (1 Bft)
24.09.2018 15:10 8,3 °C 79 % 1029,9 hPa 0,0 mm 3,8 km/h (1 Bft) W 273 ° 1 min 0,000 mm 3,2 UV-I 635 W/m² 4,9 °C 8,3 °C 4,8 km/h (1 Bft)
24.09.2018 15:11 8,4 °C 80 % 1029,8 hPa 0,0 mm 2,1 km/h (1 Bft) W 273 ° 1 min 0,000 mm 3,3 UV-I 636 W/m² 5,2 °C 8,4 °C 3,2 km/h (1 Bft)
24.09.2018 15:12 8,7 °C 77 % 1029,9 hPa 0,0 mm 5,4 km/h (1 Bft) W 272 ° 1 min 0,000 mm 3,3 UV-I 640 W/m² 4,9 °C 8,2 °C 9,7 km/h (2 Bft)
24.09.2018 15:13 8,9 °C 77 % 1029,9 hPa 0,0 mm 4,2 km/h (1 Bft) W 271 ° 1 min 0,000 mm 3,3 UV-I 643 W/m² 5,1 °C 8,9 °C 9,7 km/h (2 Bft)
24.09.2018 15:14 9,0 °C 75 % 1029,9 hPa 0,0 mm 0,2 km/h (0 Bft) W 270 ° 1 min 0,000 mm 3,3 UV-I 638 W/m² 4,8 °C 9,0 °C 3,2 km/h (1 Bft)
24.09.2018 15:15 9,1 °C 75 % 1029,9 hPa 0,0 mm 3,6 km/h (1 Bft) W 273 ° 1 min 0,000 mm 3,3 UV-I 636 W/m² 4,9 °C 9,1 °C 9,7 km/h (2 Bft)
24.09.2018 15:16 9,3 °C 76 % 1029,8 hPa 0,0 mm 4,8 km/h (1 Bft) SW 232 ° 1 min 0,000 mm 3,2 UV-I 636 W/m² 5,3 °C 9,0 °C 8,0 km/h (2 Bft)
24.09.2018 15:17 9,6 °C 76 % 1029,8 hPa 0,0 mm 2,9 km/h (1 Bft) W-SW 246 ° 1 min 0,000 mm 3,2 UV-I 635 W/m² 5,6 °C 9,6 °C 4,8 km/h (1 Bft)
24.09.2018 15:18 9,7 °C 74 % 1029,8 hPa 0,0 mm 5,1 km/h (1 Bft) W 269 ° 1 min 0,000 mm 3,2 UV-I 636 W/m² 5,3 °C 9,4 °C 12,9 km/h (3 Bft)
24.09.2018 15:19 9,8 °C 74 % 1029,8 hPa 0,0 mm 4,7 km/h (1 Bft) W 263 ° 1 min 0,000 mm 3,2 UV-I 640 W/m² 5,4 °C 9,6 °C 9,7 km/h (2 Bft)
24.09.2018 15:20 9,9 °C 73 % 1029,8 hPa 0,0 mm 6,2 km/h (2 Bft) S-SW 195 ° 1 min 0,000 mm 3,2 UV-I 645 W/m² 5,3 °C 9,3 °C 9,7 km/h (2 Bft)
24.09.2018 15:21 9,9 °C 70 % 1029,7 hPa 0,0 mm 4,0 km/h (1 Bft) SW 234 ° 1 min 0,000 mm 3,2 UV-I 649 W/m² 4,7 °C 9,9 °C 6,4 km/h (2 Bft)
24.09.2018 15:22 10,0 °C 71 % 1029,7 hPa 0,0 mm 1,9 km/h (1 Bft) SW 227 ° 1 min 0,000 mm 3,2 UV-I 647 W/m² 5,0 °C 10,0 °C 4,8 km/h (1 Bft)
24.09.2018 15:23 10,1 °C 69 % 1029,7 hPa 0,0 mm 5,4 km/h (1 Bft) S-SW 200 ° 1 min 0,000 mm 3,2 UV-I 650 W/m² 4,7 °C 10,1 °C 9,7 km/h (2 Bft)
24.09.2018 15:24 10,2 °C 71 % 1029,7 hPa 0,0 mm 4,7 km/h (1 Bft) W-NW 283 ° 1 min 0,000 mm 3,1 UV-I 652 W/m² 5,2 °C 10,2 °C 6,4 km/h (2 Bft)
24.09.2018 15:25 10,3 °C 70 % 1029,6 hPa 0,0 mm 4,3 km/h (1 Bft) W-NW 298 ° 1 min 0,000 mm 3,1 UV-I 656 W/m² 5,1 °C 10,3 °C 9,7 km/h (2 Bft)
24.09.2018 15:26 10,3 °C 66 % 1029,6 hPa 0,0 mm 5,4 km/h (1 Bft) W-NW 290 ° 1 min 0,000 mm 3,2 UV-I 684 W/m² 4,2 °C 10,3 °C 6,4 km/h (2 Bft)
24.09.2018 15:27 10,3 °C 66 % 1029,6 hPa 0,0 mm 4,2 km/h (1 Bft) W-NW 290 ° 1 min 0,000 mm 3,2 UV-I 691 W/m² 4,2 °C 10,3 °C 6,4 km/h (2 Bft)
24.09.2018 15:28 10,3 °C 66 % 1029,6 hPa 0,0 mm 5,4 km/h (1 Bft) W-NW 299 ° 1 min 0,000 mm 3,1 UV-I 693 W/m² 4,2 °C 10,3 °C 9,7 km/h (2 Bft)
24.09.2018 15:29 10,2 °C 67 % 1029,6 hPa 0,0 mm 4,4 km/h (1 Bft) W 266 ° 1 min 0,000 mm 3,1 UV-I 700 W/m² 4,4 °C 10,2 °C 6,4 km/h (2 Bft)
24.09.2018 15:30 10,3 °C 68 % 1029,7 hPa 0,0 mm 5,6 km/h (1 Bft) W 271 ° 1 min 0,000 mm 3,0 UV-I 710 W/m² 4,7 °C 10,3 °C 8,0 km/h (2 Bft)
24.09.2018 15:31 10,4 °C 65 % 1029,7 hPa 0,0 mm 4,8 km/h (1 Bft) W 276 ° 1 min 0,000 mm 2,9 UV-I 694 W/m² 4,1 °C 10,4 °C 6,4 km/h (2 Bft)
24.09.2018 15:32 10,4 °C 65 % 1029,7 hPa 0,0 mm 5,9 km/h (2 Bft) W 269 ° 1 min 0,000 mm 2,4 UV-I 682 W/m² 4,1 °C 10,4 °C 9,7 km/h (2 Bft)
24.09.2018 15:33 10,3 °C 64 % 1029,7 hPa 0,0 mm 5,6 km/h (1 Bft) W-SW 249 ° 0 min 0,000 mm 2,1 UV-I 278 W/m² 3,8 °C 10,3 °C 8,0 km/h (2 Bft)
24.09.2018 15:34 10,2 °C 66 % 1029,7 hPa 0,0 mm 7,5 km/h (2 Bft) W 274 ° 0 min 0,000 mm 2,7 UV-I 278 W/m² 4,1 °C 10,2 °C 9,7 km/h (2 Bft)
24.09.2018 15:35 10,2 °C 67 % 1029,7 hPa 0,0 mm 10,3 km/h (2 Bft) W-NW 296 ° 0 min 0,000 mm 2,7 UV-I 278 W/m² 4,4 °C 10,2 °C 14,5 km/h (3 Bft)
24.09.2018 15:36 10,2 °C 67 % 1029,7 hPa 0,0 mm 8,9 km/h (2 Bft) N-NW 330 ° 0 min 0,000 mm 1,6 UV-I 582 W/m² 4,4 °C 10,2 °C 16,1 km/h (3 Bft)
24.09.2018 15:37 10,2 °C 66 % 1029,7 hPa 0,0 mm 10,5 km/h (2 Bft) NW 310 ° 1 min 0,000 mm 2,6 UV-I 601 W/m² 4,1 °C 10,2 °C 12,9 km/h (3 Bft)
24.09.2018 15:38 10,3 °C 68 % 1029,8 hPa 0,0 mm 8,6 km/h (2 Bft) W-NW 294 ° 1 min 0,000 mm 1,6 UV-I 628 W/m² 4,7 °C 10,3 °C 12,9 km/h (3 Bft)
24.09.2018 15:39 10,3 °C 66 % 1029,8 hPa 0,0 mm 7,4 km/h (2 Bft) NW 325 ° 0 min 0,000 mm 1,6 UV-I 185 W/m² 4,2 °C 10,3 °C 11,3 km/h (2 Bft)
24.09.2018 15:40 10,2 °C 65 % 1029,8 hPa 0,0 mm 4,0 km/h (1 Bft) W-NW 298 ° 0 min 0,000 mm 2,2 UV-I 236 W/m² 3,9 °C 10,2 °C 6,4 km/h (2 Bft)
24.09.2018 15:41 10,1 °C 65 % 1029,8 hPa 0,0 mm 7,0 km/h (2 Bft) W-NW 295 ° 0 min 0,000 mm 2,4 UV-I 288 W/m² 3,8 °C 10,1 °C 11,3 km/h (2 Bft)
24.09.2018 15:42 10,0 °C 66 % 1029,7 hPa 0,0 mm 5,3 km/h (1 Bft) W-NW 286 ° 0 min 0,000 mm 2,8 UV-I 288 W/m² 3,9 °C 9,7 °C 8,0 km/h (2 Bft)
24.09.2018 15:43 9,9 °C 67 % 1029,8 hPa 0,0 mm 4,8 km/h (1 Bft) NW 304 ° 0 min 0,000 mm 2,0 UV-I 288 W/m² 4,1 °C 9,7 °C 6,4 km/h (2 Bft)
24.09.2018 15:44 9,9 °C 67 % 1029,7 hPa 0,0 mm 4,2 km/h (1 Bft) NW 307 ° 0 min 0,000 mm 2,2 UV-I 478 W/m² 4,1 °C 9,9 °C 6,4 km/h (2 Bft)
24.09.2018 15:45 9,9 °C 68 % 1029,7 hPa 0,0 mm 8,3 km/h (2 Bft) W 261 ° 0 min 0,000 mm 2,3 UV-I 380 W/m² 4,3 °C 8,8 °C 12,9 km/h (3 Bft)
24.09.2018 15:46 9,8 °C 66 % 1029,7 hPa 0,0 mm 6,8 km/h (2 Bft) W-NW 292 ° 0 min 0,000 mm 2,8 UV-I 380 W/m² 3,8 °C 9,0 °C 11,3 km/h (2 Bft)
24.09.2018 15:47 9,8 °C 66 % 1029,7 hPa 0,0 mm 5,3 km/h (1 Bft) W-NW 286 ° 1 min 0,000 mm 2,8 UV-I 613 W/m² 3,8 °C 9,4 °C 9,7 km/h (2 Bft)
24.09.2018 15:48 9,8 °C 68 % 1029,7 hPa 0,0 mm 3,8 km/h (1 Bft) W-NW 294 ° 1 min 0,000 mm 2,8 UV-I 603 W/m² 4,2 °C 9,8 °C 4,8 km/h (1 Bft)
24.09.2018 15:49 9,9 °C 66 % 1029,7 hPa 0,0 mm 5,1 km/h (1 Bft) W 265 ° 0 min 0,000 mm 2,8 UV-I 591 W/m² 3,9 °C 9,6 °C 11,3 km/h (2 Bft)
24.09.2018 15:50 9,9 °C 68 % 1029,7 hPa 0,0 mm 1,9 km/h (1 Bft) W-SW 255 ° 0 min 0,000 mm 2,7 UV-I 564 W/m² 4,3 °C 9,9 °C 4,8 km/h (1 Bft)
24.09.2018 15:51 9,9 °C 66 % 1029,7 hPa 0,0 mm 4,5 km/h (1 Bft) W 260 ° 0 min 0,000 mm 2,7 UV-I 557 W/m² 3,9 °C 9,9 °C 6,4 km/h (2 Bft)
24.09.2018 15:52 9,9 °C 68 % 1029,7 hPa 0,0 mm 6,7 km/h (2 Bft) W 267 ° 0 min 0,000 mm 2,7 UV-I 559 W/m² 4,3 °C 9,2 °C 11,3 km/h (2 Bft)
24.09.2018 15:53 10,0 °C 68 % 1029,7 hPa 0,0 mm 3,9 km/h (1 Bft) W-SW 240 ° 0 min 0,000 mm 2,6 UV-I 561 W/m² 4,4 °C 10,0 °C 8,0 km/h (2 Bft)
24.09.2018 15:54 10,1 °C 69 % 1029,7 hPa 0,0 mm 5,2 km/h (1 Bft) W-SW 253 ° 0 min 0,000 mm 2,6 UV-I 563 W/m² 4,7 °C 10,1 °C 9,7 km/h (2 Bft)
24.09.2018 15:55 10,1 °C 66 % 1029,6 hPa 0,0 mm 3,1 km/h (1 Bft) W-SW 247 ° 0 min 0,000 mm 2,6 UV-I 571 W/m² 4,0 °C 10,1 °C 4,8 km/h (1 Bft)
24.09.2018 15:56 10,1 °C 65 % 1029,6 hPa 0,0 mm 1,6 km/h (1 Bft) W-SW 247 ° 0 min 0,000 mm 2,5 UV-I 573 W/m² 3,8 °C 10,1 °C 4,8 km/h (1 Bft)
24.09.2018 15:57 10,1 °C 65 % 1029,6 hPa 0,0 mm 4,0 km/h (1 Bft) SW 232 ° 0 min 0,000 mm 2,4 UV-I 566 W/m² 3,8 °C 10,1 °C 6,4 km/h (2 Bft)
24.09.2018 15:58 10,1 °C 65 % 1029,7 hPa 0,0 mm 4,5 km/h (1 Bft) S-SW 204 ° 0 min 0,000 mm 2,4 UV-I 570 W/m² 3,8 °C 10,1 °C 6,4 km/h (2 Bft)
24.09.2018 15:59 10,1 °C 67 % 1029,7 hPa 0,0 mm 1,6 km/h (1 Bft) SW 232 ° 0 min 0,000 mm 2,1 UV-I 570 W/m² 4,3 °C 10,1 °C 3,2 km/h (1 Bft)
24.09.2018 16:00 10,2 °C 66 % 1029,6 hPa 0,0 mm 4,8 km/h (1 Bft) W 268 ° 0 min 0,000 mm 2,2 UV-I 570 W/m² 4,1 °C 10,2 °C 6,4 km/h (2 Bft)
24.09.2018 16:01 10,2 °C 67 % 1029,6 hPa 0,0 mm 8,9 km/h (2 Bft) W 272 ° 0 min 0,229 mm 2,2 UV-I 575 W/m² 4,4 °C 10,2 °C 14,5 km/h (3 Bft)
24.09.2018 16:02 10,2 °C 66 % 1029,6 hPa 0,0 mm 11,2 km/h (2 Bft) SW 230 ° 0 min 0,000 mm 2,1 UV-I 573 W/m² 4,1 °C 10,2 °C 14,5 km/h (3 Bft)
24.09.2018 16:03 10,2 °C 67 % 1029,6 hPa 0,0 mm 5,6 km/h (1 Bft) W 273 ° 0 min 0,000 mm 2,0 UV-I 577 W/m² 4,4 °C 10,2 °C 11,3 km/h (2 Bft)
24.09.2018 16:04 10,2 °C 64 % 1029,6 hPa 0,0 mm 6,9 km/h (2 Bft) SW 235 ° 0 min 0,000 mm 2,0 UV-I 577 W/m² 3,7 °C 10,2 °C 12,9 km/h (3 Bft)
24.09.2018 16:05 10,3 °C 66 % 1029,6 hPa 0,0 mm 3,9 km/h (1 Bft) W-NW 302 ° 0 min 0,000 mm 1,9 UV-I 577 W/m² 4,2 °C 10,3 °C 6,4 km/h (2 Bft)
24.09.2018 16:06 10,3 °C 65 % 1029,6 hPa 0,0 mm 1,8 km/h (1 Bft) W-NW 302 ° 0 min 0,000 mm 1,9 UV-I 570 W/m² 4,0 °C 10,3 °C 3,2 km/h (1 Bft)
24.09.2018 16:07 10,4 °C 66 % 1029,6 hPa 0,0 mm 4,7 km/h (1 Bft) N-NW 329 ° 0 min 0,000 mm 1,8 UV-I 559 W/m² 4,3 °C 10,4 °C 8,0 km/h (2 Bft)
24.09.2018 16:08 10,5 °C 66 % 1029,7 hPa 0,0 mm 7,4 km/h (2 Bft) NW 319 ° 0 min 0,000 mm 1,8 UV-I 555 W/m² 4,4 °C 10,5 °C 12,9 km/h (3 Bft)
24.09.2018 16:09 10,5 °C 65 % 1029,7 hPa 0,0 mm 6,6 km/h (2 Bft) N-NW 331 ° 0 min 0,000 mm 1,8 UV-I 555 W/m² 4,2 °C 10,5 °C 14,5 km/h (3 Bft)
24.09.2018 16:10 10,4 °C 62 % 1029,7 hPa 0,0 mm 6,6 km/h (2 Bft) N-NW 331 ° 0 min 0,000 mm 1,9 UV-I 559 W/m² 3,4 °C 10,4 °C 14,5 km/h (3 Bft)
24.09.2018 16:11 10,4 °C 63 % 1029,7 hPa 0,0 mm 8,8 km/h (2 Bft) N-NW 333 ° 0 min 0,000 mm 1,9 UV-I 557 W/m² 3,7 °C 10,4 °C 14,5 km/h (3 Bft)
24.09.2018 16:12 10,3 °C 63 % 1029,7 hPa 0,0 mm 8,4 km/h (2 Bft) NW 304 ° 0 min 0,000 mm 1,9 UV-I 563 W/m² 3,6 °C 10,3 °C 12,9 km/h (3 Bft)
24.09.2018 16:13 10,3 °C 60 % 1029,7 hPa 0,0 mm 8,3 km/h (2 Bft) N-NW 329 ° 0 min 0,000 mm 2,0 UV-I 573 W/m² 2,9 °C 10,3 °C 12,9 km/h (3 Bft)
24.09.2018 16:14 10,2 °C 60 % 1029,7 hPa 0,0 mm 6,4 km/h (2 Bft) NW 309 ° 0 min 0,000 mm 2,0 UV-I 568 W/m² 2,8 °C 10,2 °C 14,5 km/h (3 Bft)
24.09.2018 16:15 10,2 °C 63 % 1029,7 hPa 0,0 mm 7,8 km/h (2 Bft) NW 315 ° 0 min 0,000 mm 1,9 UV-I 561 W/m² 3,5 °C 10,2 °C 12,9 km/h (3 Bft)
24.09.2018 16:16 10,1 °C 63 % 1029,7 hPa 0,0 mm 4,5 km/h (1 Bft) N-NO 16 ° 0 min 0,000 mm 1,3 UV-I 561 W/m² 3,4 °C 10,1 °C 11,3 km/h (2 Bft)
24.09.2018 16:17 10,1 °C 62 % 1029,7 hPa 0,0 mm 8,4 km/h (2 Bft) N-NW 342 ° 0 min 0,000 mm 1,3 UV-I 144 W/m² 3,2 °C 10,1 °C 14,5 km/h (3 Bft)
24.09.2018 16:18 10,1 °C 64 % 1029,7 hPa 0,0 mm 6,2 km/h (2 Bft) N-NW 330 ° 0 min 0,000 mm 1,2 UV-I 132 W/m² 3,6 °C 10,1 °C 9,7 km/h (2 Bft)
24.09.2018 16:19 10,0 °C 63 % 1029,7 hPa 0,0 mm 6,2 km/h (2 Bft) NW 325 ° 0 min 0,000 mm 1,2 UV-I 118 W/m² 3,3 °C 9,4 °C 9,7 km/h (2 Bft)
24.09.2018 16:20 9,9 °C 62 % 1029,7 hPa 0,0 mm 6,6 km/h (2 Bft) NW 317 ° 0 min 0,000 mm 1,2 UV-I 107 W/m² 3,0 °C 9,2 °C 11,3 km/h (2 Bft)
24.09.2018 16:21 9,7 °C 62 % 1029,7 hPa 0,0 mm 5,8 km/h (2 Bft) N 351 ° 0 min 0,000 mm 1,2 UV-I 104 W/m² 2,8 °C 9,2 °C 6,4 km/h (2 Bft)
24.09.2018 16:22 9,6 °C 63 % 1029,8 hPa 0,0 mm 3,0 km/h (1 Bft) N-NW 344 ° 0 min 0,000 mm 1,2 UV-I 109 W/m² 2,9 °C 9,6 °C 4,8 km/h (1 Bft)
24.09.2018 16:23 9,5 °C 63 % 1029,8 hPa 0,0 mm 1,7 km/h (1 Bft) N-NW 336 ° 0 min 0,000 mm 1,2 UV-I 109 W/m² 2,8 °C 9,5 °C 4,8 km/h (1 Bft)
24.09.2018 16:24 9,4 °C 64 % 1029,8 hPa 0,0 mm 3,5 km/h (1 Bft) N-NW 336 ° 0 min 0,000 mm 1,2 UV-I 104 W/m² 2,9 °C 9,4 °C 4,8 km/h (1 Bft)
24.09.2018 16:25 9,4 °C 63 % 1029,8 hPa 0,0 mm 0,9 km/h (0 Bft) N-NW 336 ° 0 min 0,000 mm 1,2 UV-I 84 W/m² 2,7 °C 9,4 °C 3,2 km/h (1 Bft)
24.09.2018 16:26 9,3 °C 63 % 1029,7 hPa 0,0 mm 1,3 km/h (1 Bft) N-NW 336 ° 0 min 0,000 mm 1,2 UV-I 83 W/m² 2,6 °C 9,3 °C 3,2 km/h (1 Bft)
24.09.2018 16:27 9,3 °C 64 % 1029,7 hPa 0,0 mm 3,0 km/h (1 Bft) N-NW 336 ° 0 min 0,000 mm 1,2 UV-I 81 W/m² 2,8 °C 9,3 °C 4,8 km/h (1 Bft)
24.09.2018 16:28 9,3 °C 67 % 1029,7 hPa 0,0 mm 0,8 km/h (0 Bft) N-NW 336 ° 0 min 0,000 mm 1,1 UV-I 81 W/m² 3,5 °C 9,3 °C 4,8 km/h (1 Bft)
24.09.2018 16:29 9,3 °C 67 % 1029,8 hPa 0,0 mm 4,3 km/h (1 Bft) NW 307 ° 0 min 0,000 mm 1,1 UV-I 81 W/m² 3,5 °C 9,3 °C 4,8 km/h (1 Bft)
24.09.2018 16:30 9,3 °C 66 % 1029,8 hPa 0,0 mm 1,8 km/h (1 Bft) NW 308 ° 0 min 0,000 mm 1,1 UV-I 84 W/m² 3,3 °C 9,3 °C 3,2 km/h (1 Bft)
24.09.2018 16:31 9,3 °C 67 % 1029,8 hPa 0,0 mm 6,1 km/h (2 Bft) N 5 ° 0 min 0,000 mm 1,1 UV-I 100 W/m² 3,5 °C 8,6 °C 11,3 km/h (2 Bft)
24.09.2018 16:32 9,3 °C 66 % 1029,9 hPa 0,0 mm 2,7 km/h (1 Bft) N 355 ° 0 min 0,000 mm 1,1 UV-I 109 W/m² 3,3 °C 9,3 °C 4,8 km/h (1 Bft)
24.09.2018 16:33 9,3 °C 66 % 1029,8 hPa 0,0 mm 0,5 km/h (0 Bft) N 355 ° 0 min 0,000 mm 1,1 UV-I 116 W/m² 3,3 °C 9,3 °C 3,2 km/h (1 Bft)
24.09.2018 16:34 9,3 °C 65 % 1029,8 hPa 0,0 mm 2,1 km/h (1 Bft) N 355 ° 0 min 0,000 mm 1,2 UV-I 134 W/m² 3,1 °C 9,3 °C 3,2 km/h (1 Bft)
24.09.2018 16:35 9,4 °C 66 % 1029,9 hPa 0,0 mm 0,8 km/h (0 Bft) N 355 ° 0 min 0,000 mm 1,3 UV-I 158 W/m² 3,4 °C 9,4 °C 3,2 km/h (1 Bft)
24.09.2018 16:36 9,4 °C 66 % 1029,8 hPa 0,0 mm 0,4 km/h (0 Bft) N 355 ° 0 min 0,000 mm 1,2 UV-I 134 W/m² 3,4 °C 9,4 °C 1,6 km/h (1 Bft)
24.09.2018 16:37 9,4 °C 66 % 1029,9 hPa 0,0 mm 1,4 km/h (1 Bft) N 355 ° 0 min 0,000 mm 1,2 UV-I 141 W/m² 3,4 °C 9,4 °C 3,2 km/h (1 Bft)
24.09.2018 16:38 9,6 °C 66 % 1029,8 hPa 0,0 mm 3,5 km/h (1 Bft) W 273 ° 0 min 0,000 mm 1,2 UV-I 225 W/m² 3,6 °C 9,6 °C 6,4 km/h (2 Bft)
24.09.2018 16:39 9,6 °C 67 % 1029,8 hPa 0,0 mm 4,4 km/h (1 Bft) S 187 ° 0 min 0,000 mm 1,3 UV-I 272 W/m² 3,8 °C 9,6 °C 6,4 km/h (2 Bft)
24.09.2018 16:40 9,7 °C 66 % 1029,8 hPa 0,0 mm 4,4 km/h (1 Bft) W-SW 246 ° 0 min 0,000 mm 1,3 UV-I 202 W/m² 3,7 °C 9,7 °C 11,3 km/h (2 Bft)
24.09.2018 16:41 9,7 °C 65 % 1029,8 hPa 0,0 mm 4,5 km/h (1 Bft) W-NW 282 ° 0 min 0,000 mm 1,1 UV-I 202 W/m² 3,4 °C 9,7 °C 11,3 km/h (2 Bft)
24.09.2018 16:42 9,8 °C 68 % 1029,8 hPa 0,0 mm 6,5 km/h (2 Bft) W-NW 290 ° 0 min 0,000 mm 1,1 UV-I 97 W/m² 4,2 °C 9,1 °C 11,3 km/h (2 Bft)
24.09.2018 16:43 9,7 °C 66 % 1029,9 hPa 0,0 mm 5,5 km/h (1 Bft) W 279 ° 0 min 0,000 mm 1,1 UV-I 97 W/m² 3,7 °C 9,3 °C 9,7 km/h (2 Bft)
24.09.2018 16:44 9,7 °C 66 % 1029,8 hPa 0,0 mm 3,9 km/h (1 Bft) W 275 ° 0 min 0,000 mm 1,0 UV-I 97 W/m² 3,7 °C 9,7 °C 6,4 km/h (2 Bft)
24.09.2018 16:45 9,6 °C 65 % 1029,9 hPa 0,0 mm 4,5 km/h (1 Bft) W 275 ° 0 min 0,000 mm 1,0 UV-I 98 W/m² 3,4 °C 9,6 °C 6,4 km/h (2 Bft)
24.09.2018 16:46 9,6 °C 67 % 1029,8 hPa 0,0 mm 1,3 km/h (1 Bft) N-NW 344 ° 0 min 0,000 mm 1,0 UV-I 100 W/m² 3,8 °C 9,6 °C 3,2 km/h (1 Bft)
24.09.2018 16:47 9,6 °C 67 % 1029,9 hPa 0,0 mm 5,6 km/h (1 Bft) NW 326 ° 0 min 0,000 mm 0,9 UV-I 104 W/m² 3,8 °C 9,1 °C 8,0 km/h (2 Bft)
24.09.2018 16:48 9,6 °C 63 % 1029,9 hPa 0,0 mm 5,8 km/h (2 Bft) N-NW 340 ° 0 min 0,000 mm 0,9 UV-I 111 W/m² 2,9 °C 9,1 °C 12,9 km/h (3 Bft)
24.09.2018 16:49 9,7 °C 63 % 1029,9 hPa 0,0 mm 3,9 km/h (1 Bft) N-NO 14 ° 0 min 0,000 mm 0,9 UV-I 118 W/m² 3,0 °C 9,7 °C 6,4 km/h (2 Bft)
24.09.2018 16:50 9,7 °C 64 % 1029,8 hPa 0,0 mm 3,4 km/h (1 Bft) N-NO 17 ° 0 min 0,000 mm 0,9 UV-I 121 W/m² 3,2 °C 9,7 °C 4,8 km/h (1 Bft)
24.09.2018 16:51 9,8 °C 62 % 1029,8 hPa 0,0 mm 7,4 km/h (2 Bft) N-NW 346 ° 0 min 0,000 mm 0,9 UV-I 130 W/m² 2,9 °C 8,9 °C 12,9 km/h (3 Bft)
24.09.2018 16:52 9,8 °C 61 % 1029,8 hPa 0,0 mm 5,7 km/h (1 Bft) N 9 ° 0 min 0,000 mm 0,9 UV-I 139 W/m² 2,6 °C 9,3 °C 6,4 km/h (2 Bft)
24.09.2018 16:53 9,8 °C 61 % 1029,8 hPa 0,0 mm 4,5 km/h (1 Bft) N-NW 329 ° 0 min 0,000 mm 0,9 UV-I 137 W/m² 2,6 °C 9,8 °C 6,4 km/h (2 Bft)
24.09.2018 16:54 9,8 °C 60 % 1029,8 hPa 0,0 mm 3,4 km/h (1 Bft) NW 323 ° 0 min 0,000 mm 0,9 UV-I 134 W/m² 2,4 °C 9,8 °C 8,0 km/h (2 Bft)
24.09.2018 16:55 9,8 °C 61 % 1029,8 hPa 0,0 mm 4,4 km/h (1 Bft) N-NO 26 ° 0 min 0,000 mm 0,9 UV-I 132 W/m² 2,6 °C 9,8 °C 9,7 km/h (2 Bft)
24.09.2018 16:56 9,8 °C 62 % 1029,8 hPa 0,0 mm 6,0 km/h (2 Bft) NW 316 ° 0 min 0,000 mm 0,9 UV-I 130 W/m² 2,9 °C 9,2 °C 8,0 km/h (2 Bft)
24.09.2018 16:57 9,9 °C 65 % 1029,8 hPa 0,0 mm 3,6 km/h (1 Bft) N-NW 332 ° 0 min 0,000 mm 0,9 UV-I 132 W/m² 3,6 °C 9,9 °C 4,8 km/h (1 Bft)
24.09.2018 16:58 10,1 °C 65 % 1029,8 hPa 0,0 mm 8,2 km/h (2 Bft) NW 321 ° 0 min 0,000 mm 0,8 UV-I 134 W/m² 3,8 °C 10,1 °C 9,7 km/h (2 Bft)
24.09.2018 16:59 10,1 °C 64 % 1029,8 hPa 0,0 mm 6,9 km/h (2 Bft) NW 315 ° 0 min 0,000 mm 0,8 UV-I 135 W/m² 3,6 °C 10,1 °C 9,7 km/h (2 Bft)
24.09.2018 17:00 10,2 °C 63 % 1029,8 hPa 0,0 mm 5,4 km/h (1 Bft) NW 311 ° 0 min 0,127 mm 0,8 UV-I 139 W/m² 3,5 °C 10,2 °C 9,7 km/h (2 Bft)
24.09.2018 17:01 10,1 °C 61 % 1029,8 hPa 0,0 mm 6,3 km/h (2 Bft) NW 317 ° 0 min 0,000 mm 0,8 UV-I 139 W/m² 2,9 °C 10,1 °C 9,7 km/h (2 Bft)
24.09.2018 17:02 10,1 °C 58 % 1029,8 hPa 0,0 mm 3,5 km/h (1 Bft) N 355 ° 0 min 0,000 mm 0,8 UV-I 139 W/m² 2,2 °C 10,1 °C 9,7 km/h (2 Bft)
24.09.2018 17:03 10,1 °C 57 % 1029,9 hPa 0,0 mm 7,2 km/h (2 Bft) NW 321 ° 0 min 0,000 mm 0,8 UV-I 135 W/m² 2,0 °C 10,1 °C 9,7 km/h (2 Bft)
24.09.2018 17:04 9,9 °C 56 % 1029,8 hPa 0,0 mm 7,9 km/h (2 Bft) NW 305 ° 0 min 0,000 mm 0,7 UV-I 132 W/m² 1,5 °C 8,9 °C 11,3 km/h (2 Bft)
24.09.2018 17:05 10,0 °C 56 % 1029,8 hPa 0,0 mm 4,8 km/h (1 Bft) N-NO 12 ° 0 min 0,000 mm 0,7 UV-I 128 W/m² 1,6 °C 9,8 °C 8,0 km/h (2 Bft)
24.09.2018 17:06 10,0 °C 57 % 1029,9 hPa 0,0 mm 3,5 km/h (1 Bft) N 355 ° 0 min 0,000 mm 0,7 UV-I 134 W/m² 1,9 °C 10,0 °C 6,4 km/h (2 Bft)
24.09.2018 17:07 10,0 °C 59 % 1029,9 hPa 0,0 mm 5,4 km/h (1 Bft) NW 312 ° 0 min 0,000 mm 0,7 UV-I 137 W/m² 2,4 °C 9,6 °C 9,7 km/h (2 Bft)
24.09.2018 17:08 10,0 °C 58 % 1029,9 hPa 0,0 mm 5,0 km/h (1 Bft) N-NO 33 ° 0 min 0,000 mm 0,6 UV-I 135 W/m² 2,1 °C 9,8 °C 6,4 km/h (2 Bft)
24.09.2018 17:09 10,0 °C 59 % 1029,9 hPa 0,0 mm 7,0 km/h (2 Bft) N 5 ° 0 min 0,000 mm 0,6 UV-I 132 W/m² 2,4 °C 9,2 °C 9,7 km/h (2 Bft)
24.09.2018 17:10 10,1 °C 57 % 1029,9 hPa 0,0 mm 6,1 km/h (2 Bft) N-NW 335 ° 0 min 0,000 mm 0,6 UV-I 128 W/m² 2,0 °C 10,1 °C 8,0 km/h (2 Bft)
24.09.2018 17:11 10,0 °C 57 % 1029,9 hPa 0,0 mm 2,9 km/h (1 Bft) NW 323 ° 0 min 0,000 mm 0,6 UV-I 127 W/m² 1,9 °C 10,0 °C 4,8 km/h (1 Bft)
24.09.2018 17:12 10,0 °C 58 % 1029,9 hPa 0,0 mm 1,8 km/h (1 Bft) N-NW 327 ° 0 min 0,000 mm 0,6 UV-I 123 W/m² 2,1 °C 10,0 °C 4,8 km/h (1 Bft)
24.09.2018 17:13 10,0 °C 58 % 1029,9 hPa 0,0 mm 1,4 km/h (1 Bft) NW 309 ° 0 min 0,000 mm 0,6 UV-I 123 W/m² 2,1 °C 10,0 °C 4,8 km/h (1 Bft)
24.09.2018 17:14 10,0 °C 59 % 1029,9 hPa 0,0 mm 3,1 km/h (1 Bft) NW 323 ° 0 min 0,000 mm 0,7 UV-I 132 W/m² 2,4 °C 10,0 °C 4,8 km/h (1 Bft)
24.09.2018 17:15 9,9 °C 57 % 1029,9 hPa 0,0 mm 0,4 km/h (0 Bft) NW 323 ° 0 min 0,000 mm 0,7 UV-I 134 W/m² 1,8 °C 9,9 °C 1,6 km/h (1 Bft)
24.09.2018 17:16 9,8 °C 57 % 1029,9 hPa 0,0 mm 1,4 km/h (1 Bft) NW 323 ° 0 min 0,000 mm 0,7 UV-I 132 W/m² 1,7 °C 9,8 °C 3,2 km/h (1 Bft)
24.09.2018 17:17 9,8 °C 58 % 1029,9 hPa 0,0 mm 2,8 km/h (1 Bft) NW 317 ° 0 min 0,000 mm 0,7 UV-I 132 W/m² 1,9 °C 9,8 °C 4,8 km/h (1 Bft)
24.09.2018 17:18 9,7 °C 59 % 1029,9 hPa 0,0 mm 2,2 km/h (1 Bft) N-NW 341 ° 0 min 0,000 mm 0,7 UV-I 132 W/m² 2,1 °C 9,7 °C 3,2 km/h (1 Bft)
24.09.2018 17:19 9,8 °C 59 % 1029,9 hPa 0,0 mm 1,8 km/h (1 Bft) N-NO 17 ° 0 min 0,000 mm 0,7 UV-I 127 W/m² 2,2 °C 9,8 °C 4,8 km/h (1 Bft)
24.09.2018 17:20 9,8 °C 59 % 1030,0 hPa 0,0 mm 6,4 km/h (2 Bft) N-NO 14 ° 0 min 0,000 mm 0,7 UV-I 121 W/m² 2,2 °C 9,1 °C 9,7 km/h (2 Bft)
24.09.2018 17:21 9,9 °C 60 % 1029,9 hPa 0,0 mm 6,4 km/h (2 Bft) N-NW 345 ° 0 min 0,000 mm 0,7 UV-I 121 W/m² 2,5 °C 9,3 °C 12,9 km/h (3 Bft)
24.09.2018 17:22 9,9 °C 61 % 1030,0 hPa 0,0 mm 9,5 km/h (2 Bft) NW 317 ° 0 min 0,000 mm 0,7 UV-I 111 W/m² 2,7 °C 8,6 °C 16,1 km/h (3 Bft)
24.09.2018 17:23 9,9 °C 59 % 1030,0 hPa 0,0 mm 8,0 km/h (2 Bft) N 355 ° 0 min 0,000 mm 0,7 UV-I 98 W/m² 2,3 °C 8,9 °C 16,1 km/h (3 Bft)
24.09.2018 17:24 10,0 °C 59 % 1030,1 hPa 0,0 mm 8,3 km/h (2 Bft) NW 307 ° 0 min 0,000 mm 0,7 UV-I 93 W/m² 2,4 °C 8,9 °C 12,9 km/h (3 Bft)
24.09.2018 17:25 9,9 °C 60 % 1030,1 hPa 0,0 mm 7,4 km/h (2 Bft) N-NO 28 ° 0 min 0,000 mm 0,7 UV-I 90 W/m² 2,5 °C 9,0 °C 9,7 km/h (2 Bft)
24.09.2018 17:26 9,9 °C 58 % 1030,1 hPa 0,0 mm 6,3 km/h (2 Bft) NW 315 ° 0 min 0,000 mm 0,7 UV-I 88 W/m² 2,0 °C 9,3 °C 11,3 km/h (2 Bft)
24.09.2018 17:27 9,9 °C 60 % 1030,1 hPa 0,0 mm 11,9 km/h (2 Bft) N-NW 344 ° 0 min 0,000 mm 0,7 UV-I 84 W/m² 2,5 °C 8,2 °C 16,1 km/h (3 Bft)
24.09.2018 17:28 9,9 °C 59 % 1030,1 hPa 0,0 mm 8,2 km/h (2 Bft) NW 316 ° 0 min 0,000 mm 0,7 UV-I 83 W/m² 2,3 °C 8,8 °C 12,9 km/h (3 Bft)
24.09.2018 17:29 9,8 °C 61 % 1030,2 hPa 0,0 mm 6,6 km/h (2 Bft) N-NW 329 ° 0 min 0,000 mm 0,7 UV-I 83 W/m² 2,6 °C 9,1 °C 9,7 km/h (2 Bft)
24.09.2018 17:30 9,8 °C 61 % 1030,1 hPa 0,0 mm 4,3 km/h (1 Bft) NW 319 ° 0 min 0,000 mm 0,7 UV-I 81 W/m² 2,6 °C 9,8 °C 8,0 km/h (2 Bft)
24.09.2018 17:31 9,8 °C 60 % 1030,1 hPa 0,0 mm 8,0 km/h (2 Bft) NW 310 ° 0 min 0,000 mm 0,7 UV-I 79 W/m² 2,4 °C 8,8 °C 11,3 km/h (2 Bft)
24.09.2018 17:32 9,8 °C 60 % 1030,1 hPa 0,0 mm 8,8 km/h (2 Bft) N-NW 339 ° 0 min 0,000 mm 0,7 UV-I 81 W/m² 2,4 °C 8,6 °C 12,9 km/h (3 Bft)
24.09.2018 17:33 9,7 °C 58 % 1030,1 hPa 0,0 mm 7,8 km/h (2 Bft) N 349 ° 0 min 0,000 mm 0,7 UV-I 76 W/m² 1,8 °C 8,7 °C 14,5 km/h (3 Bft)
24.09.2018 17:34 9,7 °C 59 % 1030,2 hPa 0,0 mm 6,0 km/h (2 Bft) N 360 ° 0 min 0,000 mm 0,7 UV-I 74 W/m² 2,1 °C 9,1 °C 9,7 km/h (2 Bft)
24.09.2018 17:35 9,7 °C 60 % 1030,2 hPa 0,0 mm 4,3 km/h (1 Bft) NW 324 ° 0 min 0,000 mm 0,7 UV-I 74 W/m² 2,3 °C 9,7 °C 9,7 km/h (2 Bft)
24.09.2018 17:36 9,7 °C 60 % 1030,1 hPa 0,0 mm 9,7 km/h (2 Bft) N-NW 344 ° 0 min 0,000 mm 0,7 UV-I 74 W/m² 2,3 °C 8,3 °C 17,7 km/h (3 Bft)
24.09.2018 17:37 9,6 °C 60 % 1030,2 hPa 0,0 mm 5,9 km/h (2 Bft) N-NW 342 ° 0 min 0,000 mm 0,7 UV-I 74 W/m² 2,2 °C 9,0 °C 8,0 km/h (2 Bft)
24.09.2018 17:38 9,6 °C 61 % 1030,2 hPa 0,0 mm 4,4 km/h (1 Bft) W-NW 303 ° 0 min 0,000 mm 0,6 UV-I 69 W/m² 2,5 °C 9,6 °C 8,0 km/h (2 Bft)
24.09.2018 17:39 9,6 °C 61 % 1030,2 hPa 0,0 mm 4,8 km/h (1 Bft) N-NW 335 ° 0 min 0,000 mm 0,6 UV-I 67 W/m² 2,5 °C 9,4 °C 8,0 km/h (2 Bft)
24.09.2018 17:40 9,5 °C 61 % 1030,2 hPa 0,0 mm 5,2 km/h (1 Bft) NW 311 ° 0 min 0,000 mm 0,6 UV-I 62 W/m² 2,4 °C 9,1 °C 9,7 km/h (2 Bft)
24.09.2018 17:41 9,4 °C 59 % 1030,2 hPa 0,0 mm 4,9 km/h (1 Bft) N-NW 331 ° 0 min 0,000 mm 0,6 UV-I 58 W/m² 1,8 °C 9,1 °C 6,4 km/h (2 Bft)
24.09.2018 17:42 9,4 °C 60 % 1030,2 hPa 0,0 mm 4,5 km/h (1 Bft) NW 325 ° 0 min 0,000 mm 0,6 UV-I 58 W/m² 2,0 °C 9,4 °C 8,0 km/h (2 Bft)
24.09.2018 17:43 9,3 °C 59 % 1030,2 hPa 0,0 mm 5,9 km/h (2 Bft) N 355 ° 0 min 0,000 mm 0,0 UV-I 54 W/m² 1,7 °C 8,7 °C 8,0 km/h (2 Bft)
24.09.2018 17:44 9,3 °C 59 % 1030,3 hPa 0,0 mm 9,1 km/h (2 Bft) N-NW 332 ° 0 min 0,000 mm 0,0 UV-I 51 W/m² 1,7 °C 8,0 °C 14,5 km/h (3 Bft)
24.09.2018 17:45 9,3 °C 59 % 1030,3 hPa 0,0 mm 7,4 km/h (2 Bft) NW 306 ° 0 min 0,000 mm 0,0 UV-I 47 W/m² 1,7 °C 8,3 °C 12,9 km/h (3 Bft)
24.09.2018 17:46 9,3 °C 59 % 1030,2 hPa 0,0 mm 5,5 km/h (1 Bft) NW 321 ° 0 min 0,000 mm 0,0 UV-I 44 W/m² 1,7 °C 8,8 °C 6,4 km/h (2 Bft)
24.09.2018 17:47 9,3 °C 59 % 1030,2 hPa 0,0 mm 4,2 km/h (1 Bft) NW 324 ° 0 min 0,000 mm 0,0 UV-I 35 W/m² 1,7 °C 9,3 °C 8,0 km/h (2 Bft)
24.09.2018 17:48 9,3 °C 58 % 1030,2 hPa 0,0 mm 4,9 km/h (1 Bft) NW 311 ° 0 min 0,000 mm 0,0 UV-I 32 W/m² 1,5 °C 9,0 °C 6,4 km/h (2 Bft)
24.09.2018 17:49 9,3 °C 59 % 1030,2 hPa 0,0 mm 4,8 km/h (1 Bft) NW 315 ° 0 min 0,000 mm 0,0 UV-I 30 W/m² 1,7 °C 9,0 °C 8,0 km/h (2 Bft)
24.09.2018 17:50 9,3 °C 61 % 1030,2 hPa 0,0 mm 3,3 km/h (1 Bft) W-NW 298 ° 0 min 0,000 mm 0,0 UV-I 30 W/m² 2,2 °C 9,3 °C 4,8 km/h (1 Bft)
24.09.2018 17:51 9,2 °C 58 % 1030,2 hPa 0,0 mm 1,2 km/h (1 Bft) NW 317 ° 0 min 0,000 mm 0,0 UV-I 28 W/m² 1,4 °C 9,2 °C 4,8 km/h (1 Bft)
24.09.2018 17:52 9,1 °C 59 % 1030,2 hPa 0,0 mm 4,0 km/h (1 Bft) NW 313 ° 0 min 0,000 mm 0,0 UV-I 28 W/m² 1,5 °C 9,1 °C 6,4 km/h (2 Bft)
24.09.2018 17:53 9,1 °C 58 % 1030,2 hPa 0,0 mm 2,1 km/h (1 Bft) N-NW 329 ° 0 min 0,000 mm 0,0 UV-I 26 W/m² 1,3 °C 9,1 °C 3,2 km/h (1 Bft)
24.09.2018 17:54 9,1 °C 58 % 1030,2 hPa 0,0 mm 5,0 km/h (1 Bft) NW 313 ° 0 min 0,000 mm 0,0 UV-I 26 W/m² 1,3 °C 8,7 °C 8,0 km/h (2 Bft)
24.09.2018 17:55 9,1 °C 58 % 1030,2 hPa 0,0 mm 6,0 km/h (2 Bft) W 271 ° 0 min 0,000 mm 0,0 UV-I 25 W/m² 1,3 °C 8,4 °C 11,3 km/h (2 Bft)
24.09.2018 17:56 9,1 °C 59 % 1030,1 hPa 0,0 mm 4,2 km/h (1 Bft) NW 306 ° 0 min 0,000 mm 0,0 UV-I 23 W/m² 1,5 °C 9,1 °C 6,4 km/h (2 Bft)
24.09.2018 17:57 9,1 °C 58 % 1030,2 hPa 0,0 mm 5,0 km/h (1 Bft) NW 306 ° 0 min 0,000 mm 0,0 UV-I 21 W/m² 1,3 °C 8,7 °C 8,0 km/h (2 Bft)
24.09.2018 17:58 9,0 °C 60 % 1030,2 hPa 0,0 mm 2,1 km/h (1 Bft) NW 306 ° 0 min 0,000 mm 0,0 UV-I 21 W/m² 1,7 °C 9,0 °C 3,2 km/h (1 Bft)
24.09.2018 17:59 8,9 °C 60 % 1030,2 hPa 0,0 mm 3,9 km/h (1 Bft) NW 325 ° 0 min 0,000 mm 0,0 UV-I 21 W/m² 1,6 °C 8,9 °C 8,0 km/h (2 Bft)
24.09.2018 18:00 8,9 °C 60 % 1030,2 hPa 0,0 mm 1,3 km/h (1 Bft) NW 325 ° 0 min 0,000 mm 0,0 UV-I 23 W/m² 1,6 °C 8,9 °C 3,2 km/h (1 Bft)
24.09.2018 18:01 8,9 °C 59 % 1030,2 hPa 0,0 mm 2,6 km/h (1 Bft) NW 325 ° 0 min 0,076 mm 0,0 UV-I 25 W/m² 1,3 °C 8,9 °C 4,8 km/h (1 Bft)
24.09.2018 18:02 8,9 °C 60 % 1030,2 hPa 0,0 mm 3,8 km/h (1 Bft) NW 322 ° 0 min 0,000 mm 0,0 UV-I 25 W/m² 1,6 °C 8,9 °C 6,4 km/h (2 Bft)
24.09.2018 18:03 8,9 °C 61 % 1030,2 hPa 0,0 mm 4,8 km/h (1 Bft) N-NW 328 ° 0 min 0,000 mm 0,0 UV-I 25 W/m² 1,8 °C 8,6 °C 9,7 km/h (2 Bft)
24.09.2018 18:04 8,8 °C 62 % 1030,2 hPa 0,0 mm 1,6 km/h (1 Bft) N-NW 328 ° 0 min 0,000 mm 0,0 UV-I 23 W/m² 1,9 °C 8,8 °C 3,2 km/h (1 Bft)
24.09.2018 18:05 8,8 °C 64 % 1030,3 hPa 0,0 mm 2,8 km/h (1 Bft) NW 315 ° 0 min 0,000 mm 0,0 UV-I 25 W/m² 2,4 °C 8,8 °C 6,4 km/h (2 Bft)
24.09.2018 18:06 8,7 °C 63 % 1030,3 hPa 0,0 mm 3,8 km/h (1 Bft) N-NW 331 ° 0 min 0,000 mm 0,0 UV-I 25 W/m² 2,1 °C 8,7 °C 6,4 km/h (2 Bft)
24.09.2018 18:07 8,7 °C 62 % 1030,3 hPa 0,0 mm 4,5 km/h (1 Bft) NW 320 ° 0 min 0,000 mm 0,0 UV-I 25 W/m² 1,8 °C 8,7 °C 6,4 km/h (2 Bft)
24.09.2018 18:08 8,7 °C 62 % 1030,3 hPa 0,0 mm 1,7 km/h (1 Bft) NW 320 ° 0 min 0,000 mm 0,0 UV-I 25 W/m² 1,8 °C 8,7 °C 3,2 km/h (1 Bft)
24.09.2018 18:09 8,6 °C 62 % 1030,3 hPa 0,0 mm 2,7 km/h (1 Bft) NW 320 ° 0 min 0,000 mm 0,0 UV-I 25 W/m² 1,7 °C 8,6 °C 4,8 km/h (1 Bft)
24.09.2018 18:10 8,6 °C 63 % 1030,4 hPa 0,0 mm 2,3 km/h (1 Bft) NW 320 ° 0 min 0,000 mm 0,0 UV-I 23 W/m² 2,0 °C 8,6 °C 3,2 km/h (1 Bft)
24.09.2018 18:11 8,5 °C 63 % 1030,5 hPa 0,0 mm 2,0 km/h (1 Bft) NW 317 ° 0 min 0,000 mm 0,0 UV-I 25 W/m² 1,9 °C 8,5 °C 3,2 km/h (1 Bft)
24.09.2018 18:12 8,5 °C 63 % 1030,5 hPa 0,0 mm 3,8 km/h (1 Bft) W-NW 289 ° 0 min 0,000 mm 0,0 UV-I 23 W/m² 1,9 °C 8,5 °C 4,8 km/h (1 Bft)
24.09.2018 18:13 8,4 °C 63 % 1030,5 hPa 0,0 mm 2,8 km/h (1 Bft) W-NW 289 ° 0 min 0,000 mm 0,0 UV-I 21 W/m² 1,8 °C 8,4 °C 4,8 km/h (1 Bft)
24.09.2018 18:14 8,4 °C 61 % 1030,5 hPa 0,0 mm 2,9 km/h (1 Bft) W-NW 289 ° 0 min 0,000 mm 0,0 UV-I 21 W/m² 1,3 °C 8,4 °C 3,2 km/h (1 Bft)
24.09.2018 18:15 8,5 °C 61 % 1030,5 hPa 0,0 mm 2,2 km/h (1 Bft) W-NW 289 ° 0 min 0,000 mm 0,0 UV-I 21 W/m² 1,4 °C 8,5 °C 4,8 km/h (1 Bft)
24.09.2018 18:16 8,4 °C 61 % 1030,5 hPa 0,0 mm 1,6 km/h (1 Bft) W-NW 289 ° 0 min 0,000 mm 0,0 UV-I 21 W/m² 1,3 °C 8,4 °C 4,8 km/h (1 Bft)
24.09.2018 18:17 8,4 °C 60 % 1030,5 hPa 0,0 mm 1,4 km/h (1 Bft) W-NW 289 ° 0 min 0,000 mm 0,0 UV-I 19 W/m² 1,1 °C 8,4 °C 1,6 km/h (1 Bft)
24.09.2018 18:18 8,4 °C 61 % 1030,6 hPa 0,0 mm 0,5 km/h (0 Bft) W-NW 289 ° 0 min 0,000 mm 0,0 UV-I 19 W/m² 1,3 °C 8,4 °C 1,6 km/h (1 Bft)
24.09.2018 18:19 8,3 °C 62 % 1030,6 hPa 0,0 mm 0,0 km/h (0 Bft) W-NW 289 ° 0 min 0,000 mm 0,0 UV-I 21 W/m² 1,5 °C 8,3 °C 0,0 km/h (0 Bft)
24.09.2018 18:20 8,3 °C 61 % 1030,6 hPa 0,0 mm 1,5 km/h (1 Bft) W-NW 289 ° 0 min 0,000 mm 0,0 UV-I 21 W/m² 1,2 °C 8,3 °C 3,2 km/h (1 Bft)
24.09.2018 18:21 8,2 °C 61 % 1030,6 hPa 0,0 mm 0,6 km/h (0 Bft) W-NW 289 ° 0 min 0,000 mm 0,0 UV-I 21 W/m² 1,1 °C 8,2 °C 1,6 km/h (1 Bft)
24.09.2018 18:22 8,2 °C 62 % 1030,6 hPa 0,0 mm 0,1 km/h (0 Bft) W-NW 289 ° 0 min 0,000 mm 0,0 UV-I 19 W/m² 1,4 °C 8,2 °C 1,6 km/h (1 Bft)
24.09.2018 18:23 8,1 °C 62 % 1030,6 hPa 0,0 mm 1,8 km/h (1 Bft) W-NW 289 ° 0 min 0,000 mm 0,0 UV-I 19 W/m² 1,3 °C 8,1 °C 3,2 km/h (1 Bft)
24.09.2018 18:24 8,1 °C 62 % 1030,6 hPa 0,0 mm 1,2 km/h (1 Bft) W-NW 289 ° 0 min 0,000 mm 0,0 UV-I 19 W/m² 1,3 °C 8,1 °C 1,6 km/h (1 Bft)
24.09.2018 18:25 8,0 °C 63 % 1030,6 hPa 0,0 mm 0,7 km/h (0 Bft) W-NW 289 ° 0 min 0,000 mm 0,0 UV-I 19 W/m² 1,4 °C 8,0 °C 1,6 km/h (1 Bft)
24.09.2018 18:26 7,9 °C 63 % 1030,6 hPa 0,0 mm 0,0 km/h (0 Bft) W-NW 289 ° 0 min 0,000 mm 0,0 UV-I 19 W/m² 1,3 °C 7,9 °C 0,0 km/h (0 Bft)
24.09.2018 18:27 7,9 °C 64 % 1030,6 hPa 0,0 mm 1,6 km/h (1 Bft) W-NW 289 ° 0 min 0,000 mm 0,0 UV-I 18 W/m² 1,5 °C 7,9 °C 3,2 km/h (1 Bft)
24.09.2018 18:28 7,8 °C 67 % 1030,7 hPa 0,0 mm 2,2 km/h (1 Bft) W-NW 289 ° 0 min 0,000 mm 0,0 UV-I 16 W/m² 2,1 °C 7,8 °C 3,2 km/h (1 Bft)
24.09.2018 18:29 7,7 °C 70 % 1030,7 hPa 0,0 mm 3,3 km/h (1 Bft) W-NW 289 ° 0 min 0,000 mm 0,0 UV-I 16 W/m² 2,6 °C 7,7 °C 4,8 km/h (1 Bft)
24.09.2018 18:30 7,6 °C 72 % 1030,7 hPa 0,0 mm 2,8 km/h (1 Bft) W-NW 289 ° 0 min 0,000 mm 0,0 UV-I 18 W/m² 2,9 °C 7,6 °C 4,8 km/h (1 Bft)
24.09.2018 18:31 7,5 °C 72 % 1030,7 hPa 0,0 mm 2,5 km/h (1 Bft) W-NW 289 ° 0 min 0,000 mm 0,0 UV-I 18 W/m² 2,8 °C 7,5 °C 4,8 km/h (1 Bft)
24.09.2018 18:32 7,4 °C 73 % 1030,6 hPa 0,0 mm 2,8 km/h (1 Bft) W-NW 289 ° 0 min 0,000 mm 0,0 UV-I 18 W/m² 2,9 °C 7,4 °C 4,8 km/h (1 Bft)
24.09.2018 18:33 7,4 °C 73 % 1030,7 hPa 0,0 mm 3,0 km/h (1 Bft) W-NW 289 ° 0 min 0,000 mm 0,0 UV-I 16 W/m² 2,9 °C 7,4 °C 4,8 km/h (1 Bft)
24.09.2018 18:34 7,3 °C 74 % 1030,7 hPa 0,0 mm 3,5 km/h (1 Bft) W-NW 289 ° 0 min 0,000 mm 0,0 UV-I 16 W/m² 3,0 °C 7,3 °C 4,8 km/h (1 Bft)
24.09.2018 18:35 7,2 °C 74 % 1030,7 hPa 0,0 mm 2,8 km/h (1 Bft) W-NW 288 ° 0 min 0,000 mm 0,0 UV-I 16 W/m² 2,9 °C 7,2 °C 3,2 km/h (1 Bft)
24.09.2018 18:36 7,2 °C 74 % 1030,7 hPa 0,0 mm 3,5 km/h (1 Bft) W-NW 288 ° 0 min 0,000 mm 0,0 UV-I 16 W/m² 2,9 °C 7,2 °C 4,8 km/h (1 Bft)
24.09.2018 18:37 7,2 °C 73 % 1030,7 hPa 0,0 mm 3,6 km/h (1 Bft) W-SW 239 ° 0 min 0,000 mm 0,0 UV-I 14 W/m² 2,7 °C 7,2 °C 6,4 km/h (2 Bft)
24.09.2018 18:38 7,2 °C 74 % 1030,7 hPa 0,0 mm 3,3 km/h (1 Bft) SW 229 ° 0 min 0,000 mm 0,0 UV-I 14 W/m² 2,9 °C 7,2 °C 4,8 km/h (1 Bft)
24.09.2018 18:39 7,1 °C 75 % 1030,7 hPa 0,0 mm 2,8 km/h (1 Bft) SW 229 ° 0 min 0,000 mm 0,0 UV-I 14 W/m² 3,0 °C 7,1 °C 4,8 km/h (1 Bft)
24.09.2018 18:40 7,1 °C 75 % 1030,7 hPa 0,0 mm 2,7 km/h (1 Bft) S-SW 211 ° 0 min 0,000 mm 0,0 UV-I 14 W/m² 3,0 °C 7,1 °C 6,4 km/h (2 Bft)
24.09.2018 18:41 7,0 °C 74 % 1030,7 hPa 0,0 mm 3,0 km/h (1 Bft) S-SW 200 ° 0 min 0,000 mm 0,0 UV-I 14 W/m² 2,7 °C 7,0 °C 6,4 km/h (2 Bft)
24.09.2018 18:42 6,9 °C 76 % 1030,7 hPa 0,0 mm 5,1 km/h (1 Bft) S-SW 198 ° 0 min 0,000 mm 0,0 UV-I 14 W/m² 3,0 °C 6,2 °C 8,0 km/h (2 Bft)
24.09.2018 18:43 6,9 °C 76 % 1030,7 hPa 0,0 mm 4,2 km/h (1 Bft) S-SW 200 ° 0 min 0,000 mm 0,0 UV-I 14 W/m² 3,0 °C 6,9 °C 6,4 km/h (2 Bft)
24.09.2018 18:44 6,8 °C 77 % 1030,7 hPa 0,0 mm 3,0 km/h (1 Bft) S-SW 200 ° 0 min 0,000 mm 0,0 UV-I 14 W/m² 3,1 °C 6,8 °C 4,8 km/h (1 Bft)
24.09.2018 18:45 6,8 °C 77 % 1030,7 hPa 0,0 mm 3,6 km/h (1 Bft) S-SW 200 ° 0 min 0,000 mm 0,0 UV-I 12 W/m² 3,1 °C 6,8 °C 6,4 km/h (2 Bft)
24.09.2018 18:46 6,7 °C 78 % 1030,7 hPa 0,0 mm 3,0 km/h (1 Bft) S-SW 200 ° 0 min 0,000 mm 0,0 UV-I 12 W/m² 3,1 °C 6,7 °C 4,8 km/h (1 Bft)
24.09.2018 18:47 6,7 °C 79 % 1030,7 hPa 0,0 mm 3,6 km/h (1 Bft) S-SW 200 ° 0 min 0,000 mm 0,0 UV-I 12 W/m² 3,3 °C 6,7 °C 4,8 km/h (1 Bft)
24.09.2018 18:48 6,6 °C 79 % 1030,7 hPa 0,0 mm 2,9 km/h (1 Bft) S-SW 200 ° 0 min 0,000 mm 0,0 UV-I 11 W/m² 3,2 °C 6,6 °C 3,2 km/h (1 Bft)
24.09.2018 18:49 6,5 °C 79 % 1030,7 hPa 0,0 mm 2,8 km/h (1 Bft) S-SW 200 ° 0 min 0,000 mm 0,0 UV-I 11 W/m² 3,1 °C 6,5 °C 4,8 km/h (1 Bft)
24.09.2018 18:50 6,4 °C 80 % 1030,7 hPa 0,0 mm 3,3 km/h (1 Bft) S-SW 200 ° 0 min 0,000 mm 0,0 UV-I 11 W/m² 3,2 °C 6,4 °C 4,8 km/h (1 Bft)
24.09.2018 18:51 6,3 °C 80 % 1030,7 hPa 0,0 mm 3,7 km/h (1 Bft) S-SW 200 ° 0 min 0,000 mm 0,0 UV-I 11 W/m² 3,1 °C 6,3 °C 4,8 km/h (1 Bft)
24.09.2018 18:52 6,3 °C 80 % 1030,8 hPa 0,0 mm 3,4 km/h (1 Bft) S-SW 200 ° 0 min 0,000 mm 0,0 UV-I 11 W/m² 3,1 °C 6,3 °C 4,8 km/h (1 Bft)
24.09.2018 18:53 6,2 °C 81 % 1030,7 hPa 0,0 mm 3,2 km/h (1 Bft) S-SW 200 ° 0 min 0,000 mm 0,0 UV-I 11 W/m² 3,2 °C 6,2 °C 4,8 km/h (1 Bft)
24.09.2018 18:54 6,1 °C 81 % 1030,8 hPa 0,0 mm 2,9 km/h (1 Bft) S-SW 200 ° 0 min 0,000 mm 0,0 UV-I 11 W/m² 3,1 °C 6,1 °C 4,8 km/h (1 Bft)
24.09.2018 18:55 6,1 °C 81 % 1030,8 hPa 0,0 mm 2,7 km/h (1 Bft) S-SW 200 ° 0 min 0,000 mm 0,0 UV-I 9 W/m² 3,1 °C 6,1 °C 4,8 km/h (1 Bft)
24.09.2018 18:56 6,1 °C 81 % 1030,8 hPa 0,0 mm 3,3 km/h (1 Bft) S-SW 200 ° 0 min 0,000 mm 0,0 UV-I 9 W/m² 3,1 °C 6,1 °C 4,8 km/h (1 Bft)
24.09.2018 18:57 6,0 °C 82 % 1030,8 hPa 0,0 mm 2,7 km/h (1 Bft) S-SW 200 ° 0 min 0,000 mm 0,0 UV-I 9 W/m² 3,2 °C 6,0 °C 4,8 km/h (1 Bft)
24.09.2018 18:58 5,9 °C 82 % 1030,9 hPa 0,0 mm 2,7 km/h (1 Bft) S-SW 200 ° 0 min 0,000 mm 0,0 UV-I 7 W/m² 3,1 °C 5,9 °C 4,8 km/h (1 Bft)
24.09.2018 18:59 5,8 °C 82 % 1030,8 hPa 0,0 mm 3,2 km/h (1 Bft) S-SW 200 ° 0 min 0,000 mm 0,0 UV-I 7 W/m² 3,0 °C 5,8 °C 4,8 km/h (1 Bft)
24.09.2018 19:00 5,8 °C 83 % 1030,9 hPa 0,0 mm 2,7 km/h (1 Bft) S-SW 200 ° 0 min 0,000 mm 0,0 UV-I 7 W/m² 3,1 °C 5,8 °C 4,8 km/h (1 Bft)
24.09.2018 19:01 5,7 °C 83 % 1031,0 hPa 0,0 mm 3,7 km/h (1 Bft) S-SW 200 ° 0 min 0,025 mm 0,0 UV-I 7 W/m² 3,0 °C 5,7 °C 6,4 km/h (2 Bft)
24.09.2018 19:02 5,6 °C 83 % 1031,0 hPa 0,0 mm 1,9 km/h (1 Bft) S-SW 200 ° 0 min 0,000 mm 0,0 UV-I 7 W/m² 2,9 °C 5,6 °C 3,2 km/h (1 Bft)
24.09.2018 19:03 5,5 °C 83 % 1031,0 hPa 0,0 mm 2,3 km/h (1 Bft) S-SW 200 ° 0 min 0,000 mm 0,0 UV-I 5 W/m² 2,8 °C 5,5 °C 4,8 km/h (1 Bft)
24.09.2018 19:04 5,4 °C 83 % 1031,0 hPa 0,0 mm 2,0 km/h (1 Bft) S-SW 200 ° 0 min 0,000 mm 0,0 UV-I 5 W/m² 2,7 °C 5,4 °C 3,2 km/h (1 Bft)
24.09.2018 19:05 5,4 °C 85 % 1031,0 hPa 0,0 mm 2,6 km/h (1 Bft) S-SW 200 ° 0 min 0,000 mm 0,0 UV-I 5 W/m² 3,1 °C 5,4 °C 4,8 km/h (1 Bft)
24.09.2018 19:06 5,4 °C 84 % 1031,0 hPa 0,0 mm 1,3 km/h (1 Bft) S-SW 200 ° 0 min 0,000 mm 0,0 UV-I 5 W/m² 2,9 °C 5,4 °C 3,2 km/h (1 Bft)
24.09.2018 19:07 5,3 °C 84 % 1031,1 hPa 0,0 mm 2,5 km/h (1 Bft) S-SW 200 ° 0 min 0,000 mm 0,0 UV-I 5 W/m² 2,8 °C 5,3 °C 4,8 km/h (1 Bft)
24.09.2018 19:08 5,3 °C 84 % 1031,1 hPa 0,0 mm 3,2 km/h (1 Bft) S-SW 200 ° 0 min 0,000 mm 0,0 UV-I 0 W/m² 2,8 °C 5,3 °C 4,8 km/h (1 Bft)
24.09.2018 19:09 5,3 °C 84 % 1031,2 hPa 0,0 mm 1,7 km/h (1 Bft) S-SW 200 ° 0 min 0,000 mm 0,0 UV-I 0 W/m² 2,8 °C 5,3 °C 3,2 km/h (1 Bft)
24.09.2018 19:10 5,2 °C 84 % 1031,2 hPa 0,0 mm 3,5 km/h (1 Bft) S-SW 200 ° 0 min 0,000 mm 0,0 UV-I 0 W/m² 2,7 °C 5,2 °C 4,8 km/h (1 Bft)
24.09.2018 19:11 5,1 °C 84 % 1031,2 hPa 0,0 mm 2,7 km/h (1 Bft) S-SW 200 ° 0 min 0,000 mm 0,0 UV-I 0 W/m² 2,6 °C 5,1 °C 4,8 km/h (1 Bft)
24.09.2018 19:12 5,1 °C 84 % 1031,2 hPa 0,0 mm 4,1 km/h (1 Bft) S-SW 200 ° 0 min 0,000 mm 0,0 UV-I 0 W/m² 2,6 °C 5,1 °C 6,4 km/h (2 Bft)
24.09.2018 19:13 5,0 °C 85 % 1031,2 hPa 0,0 mm 3,2 km/h (1 Bft) S-SW 200 ° 0 min 0,000 mm 0,0 UV-I 0 W/m² 2,7 °C 5,0 °C 4,8 km/h (1 Bft)
24.09.2018 19:14 4,9 °C 84 % 1031,3 hPa 0,0 mm 2,8 km/h (1 Bft) S-SW 200 ° 0 min 0,000 mm 0,0 UV-I 0 W/m² 2,4 °C 4,9 °C 4,8 km/h (1 Bft)
24.09.2018 19:15 4,9 °C 85 % 1031,3 hPa 0,0 mm 2,5 km/h (1 Bft) S-SW 200 ° 0 min 0,000 mm 0,0 UV-I 0 W/m² 2,6 °C 4,9 °C 4,8 km/h (1 Bft)
24.09.2018 19:16 4,9 °C 85 % 1031,3 hPa 0,0 mm 2,4 km/h (1 Bft) S-SW 200 ° 0 min 0,000 mm 0,0 UV-I 0 W/m² 2,6 °C 4,9 °C 3,2 km/h (1 Bft)
24.09.2018 19:17 4,9 °C 85 % 1031,3 hPa 0,0 mm 1,0 km/h (0 Bft) S-SW 200 ° 0 min 0,000 mm 0,0 UV-I 0 W/m² 2,6 °C 4,9 °C 3,2 km/h (1 Bft)
24.09.2018 19:18 5,0 °C 84 % 1031,3 hPa 0,0 mm 3,1 km/h (1 Bft) S-SW 200 ° 0 min 0,000 mm 0,0 UV-I 0 W/m² 2,5 °C 5,0 °C 4,8 km/h (1 Bft)
24.09.2018 19:19 5,0 °C 85 % 1031,4 hPa 0,0 mm 4,8 km/h (1 Bft) S-SW 200 ° 0 min 0,000 mm 0,0 UV-I 0 W/m² 2,7 °C 4,2 °C 6,4 km/h (2 Bft)
24.09.2018 19:20 5,1 °C 85 % 1031,4 hPa 0,0 mm 4,2 km/h (1 Bft) S-SW 200 ° 0 min 0,000 mm 0,0 UV-I 0 W/m² 2,8 °C 5,1 °C 6,4 km/h (2 Bft)
24.09.2018 19:21 5,1 °C 85 % 1031,4 hPa 0,0 mm 3,2 km/h (1 Bft) S-SW 200 ° 0 min 0,000 mm 0,0 UV-I 0 W/m² 2,8 °C 5,1 °C 4,8 km/h (1 Bft)
24.09.2018 19:22 5,2 °C 84 % 1031,4 hPa 0,0 mm 3,3 km/h (1 Bft) S-SW 200 ° 0 min 0,000 mm 0,0 UV-I 0 W/m² 2,7 °C 5,2 °C 4,8 km/h (1 Bft)
24.09.2018 19:23 5,2 °C 84 % 1031,4 hPa 0,0 mm 3,8 km/h (1 Bft) S-SW 200 ° 0 min 0,000 mm 0,0 UV-I 0 W/m² 2,7 °C 5,2 °C 4,8 km/h (1 Bft)
24.09.2018 19:24 5,2 °C 84 % 1031,4 hPa 0,0 mm 2,6 km/h (1 Bft) S-SW 200 ° 0 min 0,000 mm 0,0 UV-I 0 W/m² 2,7 °C 5,2 °C 4,8 km/h (1 Bft)
24.09.2018 19:25 5,3 °C 84 % 1031,4 hPa 0,0 mm 3,3 km/h (1 Bft) S-SW 200 ° 0 min 0,000 mm 0,0 UV-I 0 W/m² 2,8 °C 5,3 °C 4,8 km/h (1 Bft)
24.09.2018 19:26 5,3 °C 83 % 1031,5 hPa 0,0 mm 3,5 km/h (1 Bft) S-SW 200 ° 0 min 0,000 mm 0,0 UV-I 0 W/m² 2,7 °C 5,3 °C 6,4 km/h (2 Bft)
24.09.2018 19:27 5,3 °C 83 % 1031,5 hPa 0,0 mm 3,1 km/h (1 Bft) S-SW 200 ° 0 min 0,000 mm 0,0 UV-I 0 W/m² 2,7 °C 5,3 °C 6,4 km/h (2 Bft)
24.09.2018 19:28 5,3 °C 83 % 1031,5 hPa 0,0 mm 2,1 km/h (1 Bft) S-SW 200 ° 0 min 0,000 mm 0,0 UV-I 0 W/m² 2,7 °C 5,3 °C 4,8 km/h (1 Bft)
24.09.2018 19:29 5,2 °C 83 % 1031,5 hPa 0,0 mm 2,7 km/h (1 Bft) S-SW 200 ° 0 min 0,000 mm 0,0 UV-I 0 W/m² 2,6 °C 5,2 °C 4,8 km/h (1 Bft)
24.09.2018 19:30 5,2 °C 83 % 1031,5 hPa 0,0 mm 3,7 km/h (1 Bft) S-SW 200 ° 0 min 0,000 mm 0,0 UV-I 0 W/m² 2,6 °C 5,2 °C 6,4 km/h (2 Bft)
24.09.2018 19:31 5,1 °C 83 % 1031,6 hPa 0,0 mm 5,4 km/h (1 Bft) S-SW 200 ° 0 min 0,000 mm 0,0 UV-I 0 W/m² 2,5 °C 4,0 °C 6,4 km/h (2 Bft)
24.09.2018 19:32 4,9 °C 83 % 1031,6 hPa 0,0 mm 4,0 km/h (1 Bft) S-SW 200 ° 0 min 0,000 mm 0,0 UV-I 0 W/m² 2,3 °C 4,9 °C 6,4 km/h (2 Bft)
24.09.2018 19:33 4,8 °C 84 % 1031,6 hPa 0,0 mm 5,4 km/h (1 Bft) S-SW 200 ° 0 min 0,000 mm 0,0 UV-I 0 W/m² 2,3 °C 3,7 °C 6,4 km/h (2 Bft)
24.09.2018 19:34 4,7 °C 84 % 1031,6 hPa 0,0 mm 4,9 km/h (1 Bft) S-SW 200 ° 0 min 0,000 mm 0,0 UV-I 0 W/m² 2,2 °C 3,8 °C 6,4 km/h (2 Bft)
24.09.2018 19:35 4,7 °C 85 % 1031,6 hPa 0,0 mm 3,7 km/h (1 Bft) S-SW 200 ° 0 min 0,000 mm 0,0 UV-I 0 W/m² 2,4 °C 4,7 °C 4,8 km/h (1 Bft)
24.09.2018 19:36 4,7 °C 86 % 1031,6 hPa 0,0 mm 4,3 km/h (1 Bft) S-SW 200 ° 0 min 0,000 mm 0,0 UV-I 0 W/m² 2,6 °C 4,7 °C 6,4 km/h (2 Bft)
24.09.2018 19:37 4,6 °C 86 % 1031,7 hPa 0,0 mm 2,9 km/h (1 Bft) S-SW 200 ° 0 min 0,000 mm 0,0 UV-I 0 W/m² 2,5 °C 4,6 °C 4,8 km/h (1 Bft)
24.09.2018 19:38 4,6 °C 86 % 1031,7 hPa 0,0 mm 3,4 km/h (1 Bft) S-SW 200 ° 0 min 0,000 mm 0,0 UV-I 0 W/m² 2,5 °C 4,6 °C 4,8 km/h (1 Bft)
24.09.2018 19:39 4,6 °C 86 % 1031,7 hPa 0,0 mm 4,2 km/h (1 Bft) S-SW 200 ° 0 min 0,000 mm 0,0 UV-I 0 W/m² 2,5 °C 4,6 °C 4,8 km/h (1 Bft)
24.09.2018 19:40 4,5 °C 86 % 1031,7 hPa 0,0 mm 4,5 km/h (1 Bft) S-SW 200 ° 0 min 0,000 mm 0,0 UV-I 0 W/m² 2,4 °C 4,5 °C 6,4 km/h (2 Bft)
24.09.2018 19:41 4,4 °C 86 % 1031,8 hPa 0,0 mm 4,1 km/h (1 Bft) S-SW 200 ° 0 min 0,000 mm 0,0 UV-I 0 W/m² 2,3 °C 4,4 °C 4,8 km/h (1 Bft)
24.09.2018 19:42 4,5 °C 86 % 1031,8 hPa 0,0 mm 3,9 km/h (1 Bft) S-SW 200 ° 0 min 0,000 mm 0,0 UV-I 0 W/m² 2,4 °C 4,5 °C 6,4 km/h (2 Bft)
24.09.2018 19:43 4,5 °C 86 % 1031,8 hPa 0,0 mm 5,1 km/h (1 Bft) S-SW 200 ° 0 min 0,000 mm 0,0 UV-I 0 W/m² 2,4 °C 3,5 °C 8,0 km/h (2 Bft)
24.09.2018 19:44 4,6 °C 86 % 1031,8 hPa 0,0 mm 6,2 km/h (2 Bft) S-SW 200 ° 0 min 0,000 mm 0,0 UV-I 0 W/m² 2,5 °C 3,2 °C 8,0 km/h (2 Bft)
24.09.2018 19:45 4,6 °C 86 % 1031,8 hPa 0,0 mm 6,3 km/h (2 Bft) S-SW 200 ° 0 min 0,000 mm 0,0 UV-I 0 W/m² 2,5 °C 3,2 °C 8,0 km/h (2 Bft)
24.09.2018 19:46 4,6 °C 86 % 1031,9 hPa 0,0 mm 6,7 km/h (2 Bft) S-SW 200 ° 0 min 0,000 mm 0,0 UV-I 0 W/m² 2,5 °C 3,0 °C 8,0 km/h (2 Bft)
24.09.2018 19:47 4,6 °C 86 % 1031,9 hPa 0,0 mm 6,8 km/h (2 Bft) S-SW 205 ° 0 min 0,000 mm 0,0 UV-I 0 W/m² 2,5 °C 3,0 °C 9,7 km/h (2 Bft)
24.09.2018 19:48 4,6 °C 86 % 1031,9 hPa 0,0 mm 4,9 km/h (1 Bft) S-SW 205 ° 0 min 0,000 mm 0,0 UV-I 0 W/m² 2,5 °C 3,7 °C 6,4 km/h (2 Bft)
24.09.2018 19:49 4,5 °C 85 % 1031,9 hPa 0,0 mm 4,0 km/h (1 Bft) S-SW 205 ° 0 min 0,000 mm 0,0 UV-I 0 W/m² 2,2 °C 4,5 °C 4,8 km/h (1 Bft)
24.09.2018 19:50 4,4 °C 86 % 1032,0 hPa 0,0 mm 2,9 km/h (1 Bft) S-SW 200 ° 0 min 0,000 mm 0,0 UV-I 0 W/m² 2,3 °C 4,4 °C 4,8 km/h (1 Bft)
24.09.2018 19:51 4,4 °C 85 % 1031,9 hPa 0,0 mm 2,1 km/h (1 Bft) S-SW 200 ° 0 min 0,000 mm 0,0 UV-I 0 W/m² 2,1 °C 4,4 °C 3,2 km/h (1 Bft)
24.09.2018 19:52 4,4 °C 86 % 1032,0 hPa 0,0 mm 4,2 km/h (1 Bft) S-SW 200 ° 0 min 0,000 mm 0,0 UV-I 0 W/m² 2,3 °C 4,4 °C 6,4 km/h (2 Bft)
24.09.2018 19:53 4,4 °C 86 % 1032,0 hPa 0,0 mm 3,4 km/h (1 Bft) S-SW 197 ° 0 min 0,000 mm 0,0 UV-I 0 W/m² 2,3 °C 4,4 °C 6,4 km/h (2 Bft)
24.09.2018 19:54 4,4 °C 86 % 1032,0 hPa 0,0 mm 2,9 km/h (1 Bft) S-SW 197 ° 0 min 0,000 mm 0,0 UV-I 0 W/m² 2,3 °C 4,4 °C 4,8 km/h (1 Bft)
24.09.2018 19:55 4,4 °C 86 % 1032,0 hPa 0,0 mm 1,5 km/h (1 Bft) S-SW 197 ° 0 min 0,000 mm 0,0 UV-I 0 W/m² 2,3 °C 4,4 °C 3,2 km/h (1 Bft)
24.09.2018 19:56 4,5 °C 86 % 1032,0 hPa 0,0 mm 3,5 km/h (1 Bft) S-SW 197 ° 0 min 0,000 mm 0,0 UV-I 0 W/m² 2,4 °C 4,5 °C 4,8 km/h (1 Bft)
24.09.2018 19:57 4,5 °C 86 % 1032,1 hPa 0,0 mm 3,1 km/h (1 Bft) S-SW 197 ° 0 min 0,000 mm 0,0 UV-I 0 W/m² 2,4 °C 4,5 °C 4,8 km/h (1 Bft)
24.09.2018 19:58 4,5 °C 86 % 1032,1 hPa 0,0 mm 1,9 km/h (1 Bft) S-SW 197 ° 0 min 0,000 mm 0,0 UV-I 0 W/m² 2,4 °C 4,5 °C 3,2 km/h (1 Bft)
24.09.2018 19:59 4,5 °C 87 % 1032,1 hPa 0,0 mm 2,0 km/h (1 Bft) S-SW 197 ° 0 min 0,000 mm 0,0 UV-I 0 W/m² 2,5 °C 4,5 °C 3,2 km/h (1 Bft)
24.09.2018 20:00 4,4 °C 87 % 1032,1 hPa 0,0 mm 2,5 km/h (1 Bft) S-SW 197 ° 0 min 0,000 mm 0,0 UV-I 0 W/m² 2,4 °C 4,4 °C 4,8 km/h (1 Bft)
24.09.2018 20:01 4,4 °C 87 % 1032,1 hPa 0,0 mm 2,9 km/h (1 Bft) S-SW 197 ° 0 min 0,000 mm 0,0 UV-I 0 W/m² 2,4 °C 4,4 °C 3,2 km/h (1 Bft)
24.09.2018 20:02 4,4 °C 87 % 1032,1 hPa 0,0 mm 2,8 km/h (1 Bft) S-SW 197 ° 0 min 0,000 mm 0,0 UV-I 0 W/m² 2,4 °C 4,4 °C 4,8 km/h (1 Bft)
24.09.2018 20:03 4,4 °C 87 % 1032,1 hPa 0,0 mm 2,5 km/h (1 Bft) S-SW 197 ° 0 min 0,000 mm 0,0 UV-I 0 W/m² 2,4 °C 4,4 °C 4,8 km/h (1 Bft)
24.09.2018 20:04 4,5 °C 87 % 1032,1 hPa 0,0 mm 2,5 km/h (1 Bft) S-SW 197 ° 0 min 0,000 mm 0,0 UV-I 0 W/m² 2,5 °C 4,5 °C 3,2 km/h (1 Bft)
24.09.2018 20:05 4,5 °C 87 % 1032,1 hPa 0,0 mm 2,3 km/h (1 Bft) S-SW 197 ° 0 min 0,000 mm 0,0 UV-I 0 W/m² 2,5 °C 4,5 °C 3,2 km/h (1 Bft)
24.09.2018 20:06 4,5 °C 87 % 1032,1 hPa 0,0 mm 3,5 km/h (1 Bft) S-SW 195 ° 0 min 0,000 mm 0,0 UV-I 0 W/m² 2,5 °C 4,5 °C 6,4 km/h (2 Bft)
24.09.2018 20:07 4,4 °C 87 % 1032,1 hPa 0,0 mm 3,4 km/h (1 Bft) S-SW 203 ° 0 min 0,000 mm 0,0 UV-I 0 W/m² 2,4 °C 4,4 °C 6,4 km/h (2 Bft)
24.09.2018 20:08 4,4 °C 87 % 1032,1 hPa 0,0 mm 1,5 km/h (1 Bft) S-SW 203 ° 0 min 0,000 mm 0,0 UV-I 0 W/m² 2,4 °C 4,4 °C 3,2 km/h (1 Bft)
24.09.2018 20:09 4,4 °C 88 % 1032,2 hPa 0,0 mm 0,3 km/h (0 Bft) S-SW 203 ° 0 min 0,000 mm 0,0 UV-I 0 W/m² 2,6 °C 4,4 °C 1,6 km/h (1 Bft)
24.09.2018 20:10 4,4 °C 88 % 1032,2 hPa 0,0 mm 0,3 km/h (0 Bft) S-SW 203 ° 0 min 0,000 mm 0,0 UV-I 0 W/m² 2,6 °C 4,4 °C 1,6 km/h (1 Bft)
24.09.2018 20:11 4,3 °C 88 % 1032,2 hPa 0,0 mm 0,1 km/h (0 Bft) S-SW 203 ° 0 min 0,000 mm 0,0 UV-I 0 W/m² 2,5 °C 4,3 °C 1,6 km/h (1 Bft)
24.09.2018 20:12 4,3 °C 87 % 1032,2 hPa 0,0 mm 0,6 km/h (0 Bft) S-SW 203 ° 0 min 0,000 mm 0,0 UV-I 0 W/m² 2,3 °C 4,3 °C 3,2 km/h (1 Bft)
24.09.2018 20:13 4,2 °C 87 % 1032,2 hPa 0,0 mm 1,5 km/h (1 Bft) S-SW 203 ° 0 min 0,000 mm 0,0 UV-I 0 W/m² 2,2 °C 4,2 °C 4,8 km/h (1 Bft)
24.09.2018 20:14 4,2 °C 88 % 1032,3 hPa 0,0 mm 2,2 km/h (1 Bft) S-SW 203 ° 0 min 0,000 mm 0,0 UV-I 0 W/m² 2,4 °C 4,2 °C 4,8 km/h (1 Bft)
24.09.2018 20:15 4,1 °C 88 % 1032,3 hPa 0,0 mm 2,3 km/h (1 Bft) S-SW 203 ° 0 min 0,000 mm 0,0 UV-I 0 W/m² 2,3 °C 4,1 °C 3,2 km/h (1 Bft)
24.09.2018 20:16 4,1 °C 88 % 1032,3 hPa 0,0 mm 2,3 km/h (1 Bft) S-SW 203 ° 0 min 0,000 mm 0,0 UV-I 0 W/m² 2,3 °C 4,1 °C 4,8 km/h (1 Bft)
24.09.2018 20:17 4,0 °C 88 % 1032,3 hPa 0,0 mm 2,2 km/h (1 Bft) S-SW 203 ° 0 min 0,000 mm 0,0 UV-I 0 W/m² 2,2 °C 4,0 °C 4,8 km/h (1 Bft)
24.09.2018 20:18 4,0 °C 88 % 1032,3 hPa 0,0 mm 1,1 km/h (1 Bft) S-SW 203 ° 0 min 0,000 mm 0,0 UV-I 0 W/m² 2,2 °C 4,0 °C 3,2 km/h (1 Bft)
24.09.2018 20:19 4,0 °C 88 % 1032,4 hPa 0,0 mm 1,8 km/h (1 Bft) S-SW 203 ° 0 min 0,000 mm 0,0 UV-I 0 W/m² 2,2 °C 4,0 °C 3,2 km/h (1 Bft)
24.09.2018 20:20 3,9 °C 88 % 1032,4 hPa 0,0 mm 2,3 km/h (1 Bft) S-SW 203 ° 0 min 0,000 mm 0,0 UV-I 0 W/m² 2,1 °C 3,9 °C 3,2 km/h (1 Bft)
24.09.2018 20:21 3,9 °C 88 % 1032,4 hPa 0,0 mm 2,3 km/h (1 Bft) S-SW 203 ° 0 min 0,000 mm 0,0 UV-I 0 W/m² 2,1 °C 3,9 °C 4,8 km/h (1 Bft)
24.09.2018 20:22 3,9 °C 88 % 1032,4 hPa 0,0 mm 2,6 km/h (1 Bft) S-SW 203 ° 0 min 0,000 mm 0,0 UV-I 0 W/m² 2,1 °C 3,9 °C 4,8 km/h (1 Bft)
24.09.2018 20:23 3,8 °C 88 % 1032,4 hPa 0,0 mm 3,2 km/h (1 Bft) S-SW 203 ° 0 min 0,000 mm 0,0 UV-I 0 W/m² 2,0 °C 3,8 °C 4,8 km/h (1 Bft)
24.09.2018 20:24 3,8 °C 88 % 1032,4 hPa 0,0 mm 1,7 km/h (1 Bft) S-SW 203 ° 0 min 0,000 mm 0,0 UV-I 0 W/m² 2,0 °C 3,8 °C 4,8 km/h (1 Bft)
24.09.2018 20:25 3,8 °C 88 % 1032,4 hPa 0,0 mm 3,5 km/h (1 Bft) S-SW 203 ° 0 min 0,000 mm 0,0 UV-I 0 W/m² 2,0 °C 3,8 °C 4,8 km/h (1 Bft)
24.09.2018 20:26 3,8 °C 89 % 1032,5 hPa 0,0 mm 2,8 km/h (1 Bft) S-SW 203 ° 0 min 0,000 mm 0,0 UV-I 0 W/m² 2,2 °C 3,8 °C 3,2 km/h (1 Bft)
24.09.2018 20:27 3,8 °C 89 % 1032,5 hPa 0,0 mm 2,2 km/h (1 Bft) S-SW 203 ° 0 min 0,000 mm 0,0 UV-I 0 W/m² 2,2 °C 3,8 °C 4,8 km/h (1 Bft)
24.09.2018 20:28 3,8 °C 89 % 1032,5 hPa 0,0 mm 2,6 km/h (1 Bft) S-SW 203 ° 0 min 0,000 mm 0,0 UV-I 0 W/m² 2,2 °C 3,8 °C 4,8 km/h (1 Bft)
24.09.2018 20:29 3,8 °C 89 % 1032,5 hPa 0,0 mm 3,3 km/h (1 Bft) S-SW 203 ° 0 min 0,000 mm 0,0 UV-I 0 W/m² 2,2 °C 3,8 °C 4,8 km/h (1 Bft)
24.09.2018 20:30 3,8 °C 89 % 1032,5 hPa 0,0 mm 2,2 km/h (1 Bft) S-SW 203 ° 0 min 0,000 mm 0,0 UV-I 0 W/m² 2,2 °C 3,8 °C 4,8 km/h (1 Bft)
24.09.2018 20:31 3,8 °C 89 % 1032,5 hPa 0,0 mm 2,3 km/h (1 Bft) S-SW 203 ° 0 min 0,000 mm 0,0 UV-I 0 W/m² 2,2 °C 3,8 °C 4,8 km/h (1 Bft)
24.09.2018 20:32 3,9 °C 89 % 1032,6 hPa 0,0 mm 1,7 km/h (1 Bft) S-SW 203 ° 0 min 0,000 mm 0,0 UV-I 0 W/m² 2,3 °C 3,9 °C 3,2 km/h (1 Bft)
24.09.2018 20:33 3,9 °C 89 % 1032,6 hPa 0,0 mm 2,3 km/h (1 Bft) S-SW 203 ° 0 min 0,000 mm 0,0 UV-I 0 W/m² 2,3 °C 3,9 °C 4,8 km/h (1 Bft)
24.09.2018 20:34 3,9 °C 89 % 1032,6 hPa 0,0 mm 0,8 km/h (0 Bft) S-SW 203 ° 0 min 0,000 mm 0,0 UV-I 0 W/m² 2,3 °C 3,9 °C 3,2 km/h (1 Bft)
24.09.2018 20:35 3,8 °C 88 % 1032,6 hPa 0,0 mm 1,5 km/h (1 Bft) S-SW 203 ° 0 min 0,000 mm 0,0 UV-I 0 W/m² 2,0 °C 3,8 °C 3,2 km/h (1 Bft)
24.09.2018 20:36 3,8 °C 88 % 1032,6 hPa 0,0 mm 1,5 km/h (1 Bft) S-SW 203 ° 0 min 0,000 mm 0,0 UV-I 0 W/m² 2,0 °C 3,8 °C 3,2 km/h (1 Bft)
24.09.2018 20:37 3,8 °C 88 % 1032,6 hPa 0,0 mm 2,3 km/h (1 Bft) S-SW 203 ° 0 min 0,000 mm 0,0 UV-I 0 W/m² 2,0 °C 3,8 °C 4,8 km/h (1 Bft)
24.09.2018 20:38 3,8 °C 88 % 1032,7 hPa 0,0 mm 0,7 km/h (0 Bft) S-SW 203 ° 0 min 0,000 mm 0,0 UV-I 0 W/m² 2,0 °C 3,8 °C 1,6 km/h (1 Bft)
24.09.2018 20:39 3,8 °C 88 % 1032,7 hPa 0,0 mm 2,1 km/h (1 Bft) S-SW 203 ° 0 min 0,000 mm 0,0 UV-I 0 W/m² 2,0 °C 3,8 °C 4,8 km/h (1 Bft)
24.09.2018 20:40 3,8 °C 88 % 1032,7 hPa 0,0 mm 1,1 km/h (1 Bft) S-SW 203 ° 0 min 0,000 mm 0,0 UV-I 0 W/m² 2,0 °C 3,8 °C 3,2 km/h (1 Bft)
24.09.2018 20:41 3,8 °C 89 % 1032,7 hPa 0,0 mm 2,1 km/h (1 Bft) S-SW 203 ° 0 min 0,000 mm 0,0 UV-I 0 W/m² 2,2 °C 3,8 °C 3,2 km/h (1 Bft)
24.09.2018 20:42 3,8 °C 89 % 1032,7 hPa 0,0 mm 1,1 km/h (1 Bft) S-SW 203 ° 0 min 0,000 mm 0,0 UV-I 0 W/m² 2,2 °C 3,8 °C 3,2 km/h (1 Bft)
24.09.2018 20:43 3,8 °C 88 % 1032,7 hPa 0,0 mm 1,5 km/h (1 Bft) S-SW 203 ° 0 min 0,000 mm 0,0 UV-I 0 W/m² 2,0 °C 3,8 °C 3,2 km/h (1 Bft)
24.09.2018 20:44 3,8 °C 89 % 1032,7 hPa 0,0 mm 2,9 km/h (1 Bft) S-SW 203 ° 0 min 0,000 mm 0,0 UV-I 0 W/m² 2,2 °C 3,8 °C 4,8 km/h (1 Bft)
24.09.2018 20:45 3,9 °C 89 % 1032,7 hPa 0,0 mm 2,2 km/h (1 Bft) S-SW 203 ° 0 min 0,000 mm 0,0 UV-I 0 W/m² 2,3 °C 3,9 °C 3,2 km/h (1 Bft)
24.09.2018 20:46 3,8 °C 88 % 1032,8 hPa 0,0 mm 2,1 km/h (1 Bft) S-SW 203 ° 0 min 0,000 mm 0,0 UV-I 0 W/m² 2,0 °C 3,8 °C 3,2 km/h (1 Bft)
24.09.2018 20:47 3,9 °C 88 % 1032,8 hPa 0,0 mm 1,1 km/h (1 Bft) S-SW 203 ° 0 min 0,000 mm 0,0 UV-I 0 W/m² 2,1 °C 3,9 °C 3,2 km/h (1 Bft)
24.09.2018 20:48 3,8 °C 88 % 1032,8 hPa 0,0 mm 2,0 km/h (1 Bft) S-SW 203 ° 0 min 0,000 mm 0,0 UV-I 0 W/m² 2,0 °C 3,8 °C 3,2 km/h (1 Bft)
24.09.2018 20:49 3,7 °C 88 % 1032,8 hPa 0,0 mm 1,3 km/h (1 Bft) S-SW 203 ° 0 min 0,000 mm 0,0 UV-I 0 W/m² 1,9 °C 3,7 °C 3,2 km/h (1 Bft)
24.09.2018 20:50 3,6 °C 88 % 1032,9 hPa 0,0 mm 0,7 km/h (0 Bft) S-SW 203 ° 0 min 0,000 mm 0,0 UV-I 0 W/m² 1,8 °C 3,6 °C 3,2 km/h (1 Bft)
24.09.2018 20:51 3,6 °C 88 % 1032,8 hPa 0,0 mm 1,2 km/h (1 Bft) S-SW 203 ° 0 min 0,000 mm 0,0 UV-I 0 W/m² 1,8 °C 3,6 °C 1,6 km/h (1 Bft)
24.09.2018 20:52 3,6 °C 88 % 1032,9 hPa 0,0 mm 0,0 km/h (0 Bft) S-SW 203 ° 0 min 0,000 mm 0,0 UV-I 0 W/m² 1,8 °C 3,6 °C 0,0 km/h (0 Bft)
24.09.2018 20:53 3,5 °C 89 % 1032,9 hPa 0,0 mm 0,4 km/h (0 Bft) S-SW 203 ° 0 min 0,000 mm 0,0 UV-I 0 W/m² 1,9 °C 3,5 °C 1,6 km/h (1 Bft)
24.09.2018 20:54 3,5 °C 89 % 1032,9 hPa 0,0 mm 2,1 km/h (1 Bft) S-SW 203 ° 0 min 0,000 mm 0,0 UV-I 0 W/m² 1,9 °C 3,5 °C 3,2 km/h (1 Bft)
24.09.2018 20:55 3,5 °C 89 % 1032,9 hPa 0,0 mm 1,5 km/h (1 Bft) S-SW 203 ° 0 min 0,000 mm 0,0 UV-I 0 W/m² 1,9 °C 3,5 °C 4,8 km/h (1 Bft)
24.09.2018 20:56 3,5 °C 89 % 1032,9 hPa 0,0 mm 2,2 km/h (1 Bft) S-SW 203 ° 0 min 0,000 mm 0,0 UV-I 0 W/m² 1,9 °C 3,5 °C 3,2 km/h (1 Bft)
24.09.2018 20:57 3,6 °C 89 % 1032,9 hPa 0,0 mm 2,0 km/h (1 Bft) S-SW 203 ° 0 min 0,000 mm 0,0 UV-I 0 W/m² 2,0 °C 3,6 °C 4,8 km/h (1 Bft)
24.09.2018 20:58 3,6 °C 89 % 1032,9 hPa 0,0 mm 2,1 km/h (1 Bft) S-SW 203 ° 0 min 0,000 mm 0,0 UV-I 0 W/m² 2,0 °C 3,6 °C 3,2 km/h (1 Bft)
24.09.2018 20:59 3,6 °C 89 % 1032,9 hPa 0,0 mm 1,9 km/h (1 Bft) S-SW 203 ° 0 min 0,000 mm 0,0 UV-I 0 W/m² 2,0 °C 3,6 °C 3,2 km/h (1 Bft)
24.09.2018 21:00 3,7 °C 89 % 1032,9 hPa 0,0 mm 1,2 km/h (1 Bft) S-SW 203 ° 0 min 0,000 mm 0,0 UV-I 0 W/m² 2,1 °C 3,7 °C 3,2 km/h (1 Bft)
24.09.2018 21:01 3,7 °C 89 % 1032,8 hPa 0,0 mm 1,9 km/h (1 Bft) S-SW 203 ° 0 min 0,000 mm 0,0 UV-I 0 W/m² 2,1 °C 3,7 °C 4,8 km/h (1 Bft)
24.09.2018 21:02 3,7 °C 89 % 1032,9 hPa 0,0 mm 2,4 km/h (1 Bft) S-SW 203 ° 0 min 0,000 mm 0,0 UV-I 0 W/m² 2,1 °C 3,7 °C 3,2 km/h (1 Bft)
24.09.2018 21:03 3,7 °C 89 % 1032,9 hPa 0,0 mm 1,7 km/h (1 Bft) S-SW 203 ° 0 min 0,000 mm 0,0 UV-I 0 W/m² 2,1 °C 3,7 °C 3,2 km/h (1 Bft)
24.09.2018 21:04 3,7 °C 88 % 1032,9 hPa 0,0 mm 1,7 km/h (1 Bft) S-SW 203 ° 0 min 0,000 mm 0,0 UV-I 0 W/m² 1,9 °C 3,7 °C 3,2 km/h (1 Bft)
24.09.2018 21:05 3,7 °C 88 % 1032,9 hPa 0,0 mm 1,2 km/h (1 Bft) S-SW 203 ° 0 min 0,000 mm 0,0 UV-I 0 W/m² 1,9 °C 3,7 °C 3,2 km/h (1 Bft)
24.09.2018 21:06 3,7 °C 89 % 1032,9 hPa 0,0 mm 2,6 km/h (1 Bft) S-SW 203 ° 0 min 0,000 mm 0,0 UV-I 0 W/m² 2,1 °C 3,7 °C 4,8 km/h (1 Bft)
24.09.2018 21:07 3,7 °C 89 % 1032,9 hPa 0,0 mm 3,2 km/h (1 Bft) S-SW 203 ° 0 min 0,000 mm 0,0 UV-I 0 W/m² 2,1 °C 3,7 °C 4,8 km/h (1 Bft)
24.09.2018 21:08 3,7 °C 89 % 1032,9 hPa 0,0 mm 3,1 km/h (1 Bft) S-SW 203 ° 0 min 0,000 mm 0,0 UV-I 0 W/m² 2,1 °C 3,7 °C 4,8 km/h (1 Bft)
24.09.2018 21:09 3,7 °C 88 % 1032,9 hPa 0,0 mm 2,3 km/h (1 Bft) S-SW 203 ° 0 min 0,000 mm 0,0 UV-I 0 W/m² 1,9 °C 3,7 °C 4,8 km/h (1 Bft)
24.09.2018 21:10 3,6 °C 88 % 1032,8 hPa 0,0 mm 2,0 km/h (1 Bft) S-SW 203 ° 0 min 0,000 mm 0,0 UV-I 0 W/m² 1,8 °C 3,6 °C 4,8 km/h (1 Bft)
24.09.2018 21:11 3,6 °C 89 % 1032,9 hPa 0,0 mm 2,0 km/h (1 Bft) S-SW 203 ° 0 min 0,000 mm 0,0 UV-I 0 W/m² 2,0 °C 3,6 °C 3,2 km/h (1 Bft)
24.09.2018 21:12 3,6 °C 89 % 1032,9 hPa 0,0 mm 0,8 km/h (0 Bft) S-SW 203 ° 0 min 0,000 mm 0,0 UV-I 0 W/m² 2,0 °C 3,6 °C 3,2 km/h (1 Bft)
24.09.2018 21:13 3,5 °C 89 % 1032,9 hPa 0,0 mm 0,7 km/h (0 Bft) S-SW 203 ° 0 min 0,000 mm 0,0 UV-I 0 W/m² 1,9 °C 3,5 °C 1,6 km/h (1 Bft)
24.09.2018 21:14 3,4 °C 89 % 1032,9 hPa 0,0 mm 1,0 km/h (0 Bft) S-SW 203 ° 0 min 0,000 mm 0,0 UV-I 0 W/m² 1,8 °C 3,4 °C 1,6 km/h (1 Bft)
24.09.2018 21:15 3,4 °C 89 % 1032,9 hPa 0,0 mm 2,3 km/h (1 Bft) S-SW 203 ° 0 min 0,000 mm 0,0 UV-I 0 W/m² 1,8 °C 3,4 °C 3,2 km/h (1 Bft)
24.09.2018 21:16 3,4 °C 89 % 1033,0 hPa 0,0 mm 0,6 km/h (0 Bft) S-SW 203 ° 0 min 0,000 mm 0,0 UV-I 0 W/m² 1,8 °C 3,4 °C 3,2 km/h (1 Bft)
24.09.2018 21:17 3,4 °C 89 % 1033,0 hPa 0,0 mm 1,2 km/h (1 Bft) S-SW 203 ° 0 min 0,000 mm 0,0 UV-I 0 W/m² 1,8 °C 3,4 °C 3,2 km/h (1 Bft)
24.09.2018 21:18 3,4 °C 89 % 1033,0 hPa 0,0 mm 1,6 km/h (1 Bft) S-SW 203 ° 0 min 0,000 mm 0,0 UV-I 0 W/m² 1,8 °C 3,4 °C 3,2 km/h (1 Bft)
24.09.2018 21:19 3,4 °C 89 % 1033,0 hPa 0,0 mm 1,0 km/h (0 Bft) S-SW 203 ° 0 min 0,000 mm 0,0 UV-I 0 W/m² 1,8 °C 3,4 °C 3,2 km/h (1 Bft)
24.09.2018 21:20 3,4 °C 89 % 1033,0 hPa 0,0 mm 1,8 km/h (1 Bft) S-SW 203 ° 0 min 0,000 mm 0,0 UV-I 0 W/m² 1,8 °C 3,4 °C 4,8 km/h (1 Bft)
24.09.2018 21:21 3,4 °C 89 % 1033,0 hPa 0,0 mm 0,5 km/h (0 Bft) S-SW 203 ° 0 min 0,000 mm 0,0 UV-I 0 W/m² 1,8 °C 3,4 °C 1,6 km/h (1 Bft)
24.09.2018 21:22 3,5 °C 89 % 1033,0 hPa 0,0 mm 2,3 km/h (1 Bft) S-SW 203 ° 0 min 0,000 mm 0,0 UV-I 0 W/m² 1,9 °C 3,5 °C 4,8 km/h (1 Bft)
24.09.2018 21:23 3,5 °C 89 % 1033,1 hPa 0,0 mm 1,0 km/h (0 Bft) S-SW 203 ° 0 min 0,000 mm 0,0 UV-I 0 W/m² 1,9 °C 3,5 °C 3,2 km/h (1 Bft)
24.09.2018 21:24 3,5 °C 89 % 1033,0 hPa 0,0 mm 0,3 km/h (0 Bft) S-SW 203 ° 0 min 0,000 mm 0,0 UV-I 0 W/m² 1,9 °C 3,5 °C 3,2 km/h (1 Bft)
24.09.2018 21:25 3,5 °C 89 % 1033,0 hPa 0,0 mm 0,3 km/h (0 Bft) S-SW 203 ° 0 min 0,000 mm 0,0 UV-I 0 W/m² 1,9 °C 3,5 °C 3,2 km/h (1 Bft)
24.09.2018 21:26 3,5 °C 89 % 1033,0 hPa 0,0 mm 1,5 km/h (1 Bft) S-SW 203 ° 0 min 0,000 mm 0,0 UV-I 0 W/m² 1,9 °C 3,5 °C 4,8 km/h (1 Bft)
24.09.2018 21:27 3,5 °C 89 % 1033,0 hPa 0,0 mm 0,6 km/h (0 Bft) S-SW 203 ° 0 min 0,000 mm 0,0 UV-I 0 W/m² 1,9 °C 3,5 °C 3,2 km/h (1 Bft)
24.09.2018 21:28 3,6 °C 89 % 1033,0 hPa 0,0 mm 0,0 km/h (0 Bft) S-SW 203 ° 0 min 0,000 mm 0,0 UV-I 0 W/m² 2,0 °C 3,6 °C 0,0 km/h (0 Bft)
24.09.2018 21:29 3,6 °C 89 % 1033,0 hPa 0,0 mm 0,6 km/h (0 Bft) S-SW 203 ° 0 min 0,000 mm 0,0 UV-I 0 W/m² 2,0 °C 3,6 °C 3,2 km/h (1 Bft)
24.09.2018 21:30 3,6 °C 89 % 1033,0 hPa 0,0 mm 0,1 km/h (0 Bft) S-SW 203 ° 0 min 0,000 mm 0,0 UV-I 0 W/m² 2,0 °C 3,6 °C 1,6 km/h (1 Bft)
24.09.2018 21:31 3,6 °C 89 % 1033,0 hPa 0,0 mm 0,0 km/h (0 Bft) S-SW 203 ° 0 min 0,000 mm 0,0 UV-I 0 W/m² 2,0 °C 3,6 °C 0,0 km/h (0 Bft)
24.09.2018 21:32 3,6 °C 89 % 1033,0 hPa 0,0 mm 0,0 km/h (0 Bft) S-SW 203 ° 0 min 0,000 mm 0,0 UV-I 0 W/m² 2,0 °C 3,6 °C 0,0 km/h (0 Bft)
24.09.2018 21:33 3,6 °C 89 % 1033,0 hPa 0,0 mm 0,0 km/h (0 Bft) S-SW 203 ° 0 min 0,000 mm 0,0 UV-I 0 W/m² 2,0 °C 3,6 °C 0,0 km/h (0 Bft)
24.09.2018 21:34 3,6 °C 89 % 1033,1 hPa 0,0 mm 0,1 km/h (0 Bft) S-SW 203 ° 0 min 0,000 mm 0,0 UV-I 0 W/m² 2,0 °C 3,6 °C 1,6 km/h (1 Bft)
24.09.2018 21:35 3,6 °C 89 % 1033,1 hPa 0,0 mm 1,7 km/h (1 Bft) W 263 ° 0 min 0,000 mm 0,0 UV-I 0 W/m² 2,0 °C 3,6 °C 4,8 km/h (1 Bft)
24.09.2018 21:36 3,6 °C 89 % 1033,1 hPa 0,0 mm 2,3 km/h (1 Bft) SW 225 ° 0 min 0,000 mm 0,0 UV-I 0 W/m² 2,0 °C 3,6 °C 4,8 km/h (1 Bft)
24.09.2018 21:37 3,6 °C 89 % 1033,1 hPa 0,0 mm 0,1 km/h (0 Bft) SW 225 ° 0 min 0,000 mm 0,0 UV-I 0 W/m² 2,0 °C 3,6 °C 1,6 km/h (1 Bft)
24.09.2018 21:38 3,6 °C 89 % 1033,1 hPa 0,0 mm 2,7 km/h (1 Bft) W-SW 250 ° 0 min 0,000 mm 0,0 UV-I 0 W/m² 2,0 °C 3,6 °C 3,2 km/h (1 Bft)
24.09.2018 21:39 3,6 °C 89 % 1033,1 hPa 0,0 mm 1,2 km/h (1 Bft) W-SW 251 ° 0 min 0,000 mm 0,0 UV-I 0 W/m² 2,0 °C 3,6 °C 3,2 km/h (1 Bft)
24.09.2018 21:40 3,7 °C 89 % 1033,2 hPa 0,0 mm 0,8 km/h (0 Bft) W-SW 251 ° 0 min 0,000 mm 0,0 UV-I 0 W/m² 2,1 °C 3,7 °C 1,6 km/h (1 Bft)
24.09.2018 21:41 3,7 °C 89 % 1033,2 hPa 0,0 mm 0,5 km/h (0 Bft) W-SW 251 ° 0 min 0,000 mm 0,0 UV-I 0 W/m² 2,1 °C 3,7 °C 1,6 km/h (1 Bft)
24.09.2018 21:42 3,6 °C 89 % 1033,2 hPa 0,0 mm 0,0 km/h (0 Bft) W-SW 251 ° 0 min 0,000 mm 0,0 UV-I 0 W/m² 2,0 °C 3,6 °C 0,0 km/h (0 Bft)
24.09.2018 21:43 3,7 °C 89 % 1033,2 hPa 0,0 mm 0,2 km/h (0 Bft) W-SW 251 ° 0 min 0,000 mm 0,0 UV-I 0 W/m² 2,1 °C 3,7 °C 1,6 km/h (1 Bft)
24.09.2018 21:44 3,7 °C 89 % 1033,3 hPa 0,0 mm 0,1 km/h (0 Bft) W-SW 251 ° 0 min 0,000 mm 0,0 UV-I 0 W/m² 2,1 °C 3,7 °C 1,6 km/h (1 Bft)
24.09.2018 21:45 3,7 °C 89 % 1033,2 hPa 0,0 mm 1,3 km/h (1 Bft) S-SW 200 ° 0 min 0,000 mm 0,0 UV-I 0 W/m² 2,1 °C 3,7 °C 4,8 km/h (1 Bft)
24.09.2018 21:46 3,6 °C 89 % 1033,3 hPa 0,0 mm 0,4 km/h (0 Bft) S-SW 200 ° 0 min 0,000 mm 0,0 UV-I 0 W/m² 2,0 °C 3,6 °C 1,6 km/h (1 Bft)
24.09.2018 21:47 3,6 °C 89 % 1033,3 hPa 0,0 mm 0,3 km/h (0 Bft) S-SW 200 ° 0 min 0,000 mm 0,0 UV-I 0 W/m² 2,0 °C 3,6 °C 1,6 km/h (1 Bft)
24.09.2018 21:48 3,6 °C 89 % 1033,3 hPa 0,0 mm 0,3 km/h (0 Bft) S-SW 200 ° 0 min 0,000 mm 0,0 UV-I 0 W/m² 2,0 °C 3,6 °C 1,6 km/h (1 Bft)
24.09.2018 21:49 3,6 °C 89 % 1033,3 hPa 0,0 mm 0,1 km/h (0 Bft) S-SW 200 ° 0 min 0,000 mm 0,0 UV-I 0 W/m² 2,0 °C 3,6 °C 1,6 km/h (1 Bft)
24.09.2018 21:50 3,6 °C 89 % 1033,4 hPa 0,0 mm 0,0 km/h (0 Bft) S-SW 200 ° 0 min 0,000 mm 0,0 UV-I 0 W/m² 2,0 °C 3,6 °C 0,0 km/h (0 Bft)
24.09.2018 21:51 3,6 °C 89 % 1033,3 hPa 0,0 mm 0,0 km/h (0 Bft) S-SW 200 ° 0 min 0,000 mm 0,0 UV-I 0 W/m² 2,0 °C 3,6 °C 0,0 km/h (0 Bft)
24.09.2018 21:52 3,5 °C 89 % 1033,3 hPa 0,0 mm 0,4 km/h (0 Bft) S-SW 200 ° 0 min 0,000 mm 0,0 UV-I 0 W/m² 1,9 °C 3,5 °C 3,2 km/h (1 Bft)
24.09.2018 21:53 3,5 °C 89 % 1033,3 hPa 0,0 mm 0,1 km/h (0 Bft) S-SW 200 ° 0 min 0,000 mm 0,0 UV-I 0 W/m² 1,9 °C 3,5 °C 1,6 km/h (1 Bft)
24.09.2018 21:54 3,4 °C 89 % 1033,4 hPa 0,0 mm 0,0 km/h (0 Bft) S-SW 200 ° 0 min 0,000 mm 0,0 UV-I 0 W/m² 1,8 °C 3,4 °C 0,0 km/h (0 Bft)
24.09.2018 21:55 3,5 °C 90 % 1033,4 hPa 0,0 mm 0,9 km/h (0 Bft) S-SW 200 ° 0 min 0,000 mm 0,0 UV-I 0 W/m² 2,0 °C 3,5 °C 1,6 km/h (1 Bft)
24.09.2018 21:56 3,4 °C 90 % 1033,4 hPa 0,0 mm 0,1 km/h (0 Bft) S-SW 200 ° 0 min 0,000 mm 0,0 UV-I 0 W/m² 1,9 °C 3,4 °C 1,6 km/h (1 Bft)
24.09.2018 21:57 3,4 °C 89 % 1033,4 hPa 0,0 mm 0,0 km/h (0 Bft) S-SW 200 ° 0 min 0,000 mm 0,0 UV-I 0 W/m² 1,8 °C 3,4 °C 0,0 km/h (0 Bft)
24.09.2018 21:58 3,4 °C 90 % 1033,4 hPa 0,0 mm 0,0 km/h (0 Bft) S-SW 200 ° 0 min 0,000 mm 0,0 UV-I 0 W/m² 1,9 °C 3,4 °C 0,0 km/h (0 Bft)
24.09.2018 21:59 3,4 °C 90 % 1033,5 hPa 0,0 mm 0,2 km/h (0 Bft) S-SW 200 ° 0 min 0,000 mm 0,0 UV-I 0 W/m² 1,9 °C 3,4 °C 1,6 km/h (1 Bft)
24.09.2018 22:00 3,4 °C 90 % 1033,5 hPa 0,0 mm 0,0 km/h (0 Bft) S-SW 200 ° 0 min 0,000 mm 0,0 UV-I 0 W/m² 1,9 °C 3,4 °C 0,0 km/h (0 Bft)
24.09.2018 22:01 3,4 °C 90 % 1033,5 hPa 0,0 mm 0,0 km/h (0 Bft) S-SW 200 ° 0 min 0,000 mm 0,0 UV-I 0 W/m² 1,9 °C 3,4 °C 0,0 km/h (0 Bft)
24.09.2018 22:02 3,4 °C 90 % 1033,5 hPa 0,0 mm 1,9 km/h (1 Bft) S-SW 200 ° 0 min 0,000 mm 0,0 UV-I 0 W/m² 1,9 °C 3,4 °C 3,2 km/h (1 Bft)
24.09.2018 22:03 3,4 °C 90 % 1033,5 hPa 0,0 mm 0,8 km/h (0 Bft) S 191 ° 0 min 0,000 mm 0,0 UV-I 0 W/m² 1,9 °C 3,4 °C 3,2 km/h (1 Bft)
24.09.2018 22:04 3,4 °C 90 % 1033,5 hPa 0,0 mm 0,0 km/h (0 Bft) S 191 ° 0 min 0,000 mm 0,0 UV-I 0 W/m² 1,9 °C 3,4 °C 0,0 km/h (0 Bft)
24.09.2018 22:05 3,3 °C 90 % 1033,6 hPa 0,0 mm 0,0 km/h (0 Bft) S 191 ° 0 min 0,000 mm 0,0 UV-I 0 W/m² 1,8 °C 3,3 °C 0,0 km/h (0 Bft)
24.09.2018 22:06 3,3 °C 90 % 1033,6 hPa 0,0 mm 0,0 km/h (0 Bft) S 191 ° 0 min 0,000 mm 0,0 UV-I 0 W/m² 1,8 °C 3,3 °C 0,0 km/h (0 Bft)
24.09.2018 22:07 3,3 °C 90 % 1033,5 hPa 0,0 mm 0,0 km/h (0 Bft) S 191 ° 0 min 0,000 mm 0,0 UV-I 0 W/m² 1,8 °C 3,3 °C 0,0 km/h (0 Bft)
24.09.2018 22:08 3,2 °C 90 % 1033,5 hPa 0,0 mm 0,0 km/h (0 Bft) S 191 ° 0 min 0,000 mm 0,0 UV-I 0 W/m² 1,7 °C 3,2 °C 0,0 km/h (0 Bft)
24.09.2018 22:09 3,2 °C 90 % 1033,5 hPa 0,0 mm 0,0 km/h (0 Bft) S 191 ° 0 min 0,000 mm 0,0 UV-I 0 W/m² 1,7 °C 3,2 °C 0,0 km/h (0 Bft)
24.09.2018 22:10 3,2 °C 90 % 1033,5 hPa 0,0 mm 0,0 km/h (0 Bft) S 191 ° 0 min 0,000 mm 0,0 UV-I 0 W/m² 1,7 °C 3,2 °C 0,0 km/h (0 Bft)
24.09.2018 22:11 3,1 °C 90 % 1033,5 hPa 0,0 mm 0,0 km/h (0 Bft) S 191 ° 0 min 0,000 mm 0,0 UV-I 0 W/m² 1,6 °C 3,1 °C 0,0 km/h (0 Bft)
24.09.2018 22:12 3,1 °C 90 % 1033,6 hPa 0,0 mm 0,0 km/h (0 Bft) S 191 ° 0 min 0,000 mm 0,0 UV-I 0 W/m² 1,6 °C 3,1 °C 0,0 km/h (0 Bft)
24.09.2018 22:13 3,0 °C 90 % 1033,6 hPa 0,0 mm 0,0 km/h (0 Bft) S 191 ° 0 min 0,000 mm 0,0 UV-I 0 W/m² 1,5 °C 3,0 °C 0,0 km/h (0 Bft)
24.09.2018 22:14 3,0 °C 91 % 1033,6 hPa 0,0 mm 0,0 km/h (0 Bft) S 191 ° 0 min 0,000 mm 0,0 UV-I 0 W/m² 1,7 °C 3,0 °C 0,0 km/h (0 Bft)
24.09.2018 22:15 3,0 °C 90 % 1033,6 hPa 0,0 mm 0,0 km/h (0 Bft) S 191 ° 0 min 0,000 mm 0,0 UV-I 0 W/m² 1,5 °C 3,0 °C 0,0 km/h (0 Bft)
24.09.2018 22:16 2,9 °C 90 % 1033,6 hPa 0,0 mm 0,0 km/h (0 Bft) S 191 ° 0 min 0,000 mm 0,0 UV-I 0 W/m² 1,4 °C 2,9 °C 0,0 km/h (0 Bft)
24.09.2018 22:17 2,9 °C 90 % 1033,6 hPa 0,0 mm 0,2 km/h (0 Bft) S 191 ° 0 min 0,000 mm 0,0 UV-I 0 W/m² 1,4 °C 2,9 °C 1,6 km/h (1 Bft)
24.09.2018 22:18 2,9 °C 91 % 1033,6 hPa 0,0 mm 0,1 km/h (0 Bft) S 191 ° 0 min 0,000 mm 0,0 UV-I 0 W/m² 1,6 °C 2,9 °C 1,6 km/h (1 Bft)
24.09.2018 22:19 2,9 °C 91 % 1033,6 hPa 0,0 mm 0,0 km/h (0 Bft) S 191 ° 0 min 0,000 mm 0,0 UV-I 0 W/m² 1,6 °C 2,9 °C 0,0 km/h (0 Bft)
24.09.2018 22:21 2,9 °C 91 % 1033,6 hPa 0,0 mm 0,0 km/h (0 Bft) S 191 ° 0 min 0,000 mm 0,0 UV-I 0 W/m² 1,6 °C 2,9 °C 0,0 km/h (0 Bft)
24.09.2018 22:22 2,9 °C 91 % 1033,6 hPa 0,0 mm 0,0 km/h (0 Bft) S 191 ° 0 min 0,000 mm 0,0 UV-I 0 W/m² 1,6 °C 2,9 °C 0,0 km/h (0 Bft)
24.09.2018 22:23 2,9 °C 91 % 1033,6 hPa 0,0 mm 0,0 km/h (0 Bft) S 191 ° 0 min 0,000 mm 0,0 UV-I 0 W/m² 1,6 °C 2,9 °C 0,0 km/h (0 Bft)
24.09.2018 22:24 2,8 °C 91 % 1033,7 hPa 0,0 mm 0,0 km/h (0 Bft) S 191 ° 0 min 0,000 mm 0,0 UV-I 0 W/m² 1,5 °C 2,8 °C 0,0 km/h (0 Bft)
24.09.2018 22:25 2,8 °C 91 % 1033,7 hPa 0,0 mm 0,0 km/h (0 Bft) S 191 ° 0 min 0,000 mm 0,0 UV-I 0 W/m² 1,5 °C 2,8 °C 0,0 km/h (0 Bft)
24.09.2018 22:26 2,8 °C 91 % 1033,7 hPa 0,0 mm 0,0 km/h (0 Bft) S 191 ° 0 min 0,000 mm 0,0 UV-I 0 W/m² 1,5 °C 2,8 °C 0,0 km/h (0 Bft)
24.09.2018 22:27 2,8 °C 91 % 1033,7 hPa 0,0 mm 0,0 km/h (0 Bft) S 191 ° 0 min 0,000 mm 0,0 UV-I 0 W/m² 1,5 °C 2,8 °C 0,0 km/h (0 Bft)
24.09.2018 22:28 2,8 °C 91 % 1033,7 hPa 0,0 mm 0,0 km/h (0 Bft) S 191 ° 0 min 0,000 mm 0,0 UV-I 0 W/m² 1,5 °C 2,8 °C 0,0 km/h (0 Bft)
24.09.2018 22:29 2,7 °C 91 % 1033,7 hPa 0,0 mm 0,0 km/h (0 Bft) S 191 ° 0 min 0,000 mm 0,0 UV-I 0 W/m² 1,4 °C 2,7 °C 0,0 km/h (0 Bft)
24.09.2018 22:30 2,7 °C 91 % 1033,7 hPa 0,0 mm 0,0 km/h (0 Bft) S 191 ° 0 min 0,000 mm 0,0 UV-I 0 W/m² 1,4 °C 2,7 °C 0,0 km/h (0 Bft)
24.09.2018 22:31 2,7 °C 91 % 1033,7 hPa 0,0 mm 0,0 km/h (0 Bft) S 191 ° 0 min 0,000 mm 0,0 UV-I 0 W/m² 1,4 °C 2,7 °C 0,0 km/h (0 Bft)
24.09.2018 22:32 2,7 °C 91 % 1033,7 hPa 0,0 mm 0,0 km/h (0 Bft) S 191 ° 0 min 0,000 mm 0,0 UV-I 0 W/m² 1,4 °C 2,7 °C 0,0 km/h (0 Bft)
24.09.2018 22:33 2,7 °C 91 % 1033,7 hPa 0,0 mm 0,0 km/h (0 Bft) S 191 ° 0 min 0,000 mm 0,0 UV-I 0 W/m² 1,4 °C 2,7 °C 0,0 km/h (0 Bft)
24.09.2018 22:34 2,7 °C 91 % 1033,8 hPa 0,0 mm 0,0 km/h (0 Bft) S 191 ° 0 min 0,000 mm 0,0 UV-I 0 W/m² 1,4 °C 2,7 °C 0,0 km/h (0 Bft)
24.09.2018 22:35 2,7 °C 91 % 1033,7 hPa 0,0 mm 0,0 km/h (0 Bft) S 191 ° 0 min 0,000 mm 0,0 UV-I 0 W/m² 1,4 °C 2,7 °C 0,0 km/h (0 Bft)
24.09.2018 22:36 2,7 °C 91 % 1033,7 hPa 0,0 mm 0,0 km/h (0 Bft) S 191 ° 0 min 0,000 mm 0,0 UV-I 0 W/m² 1,4 °C 2,7 °C 0,0 km/h (0 Bft)
24.09.2018 22:37 2,7 °C 92 % 1033,7 hPa 0,0 mm 0,0 km/h (0 Bft) S 191 ° 0 min 0,000 mm 0,0 UV-I 0 W/m² 1,5 °C 2,7 °C 0,0 km/h (0 Bft)
24.09.2018 22:38 2,6 °C 92 % 1033,7 hPa 0,0 mm 0,0 km/h (0 Bft) S 191 ° 0 min 0,000 mm 0,0 UV-I 0 W/m² 1,4 °C 2,6 °C 0,0 km/h (0 Bft)
24.09.2018 22:39 2,6 °C 92 % 1033,7 hPa 0,0 mm 0,0 km/h (0 Bft) S 191 ° 0 min 0,000 mm 0,0 UV-I 0 W/m² 1,4 °C 2,6 °C 0,0 km/h (0 Bft)
24.09.2018 22:40 2,6 °C 92 % 1033,8 hPa 0,0 mm 0,0 km/h (0 Bft) S 191 ° 0 min 0,000 mm 0,0 UV-I 0 W/m² 1,4 °C 2,6 °C 0,0 km/h (0 Bft)
24.09.2018 22:41 2,7 °C 91 % 1033,8 hPa 0,0 mm 0,0 km/h (0 Bft) S 191 ° 0 min 0,000 mm 0,0 UV-I 0 W/m² 1,4 °C 2,7 °C 0,0 km/h (0 Bft)
24.09.2018 22:42 2,7 °C 92 % 1033,8 hPa 0,0 mm 0,0 km/h (0 Bft) S 191 ° 0 min 0,000 mm 0,0 UV-I 0 W/m² 1,5 °C 2,7 °C 0,0 km/h (0 Bft)
24.09.2018 22:43 2,8 °C 92 % 1033,8 hPa 0,0 mm 0,0 km/h (0 Bft) S 191 ° 0 min 0,000 mm 0,0 UV-I 0 W/m² 1,6 °C 2,8 °C 0,0 km/h (0 Bft)
24.09.2018 22:44 2,8 °C 92 % 1033,8 hPa 0,0 mm 0,0 km/h (0 Bft) S 191 ° 0 min 0,000 mm 0,0 UV-I 0 W/m² 1,6 °C 2,8 °C 0,0 km/h (0 Bft)
24.09.2018 22:45 2,8 °C 91 % 1033,8 hPa 0,0 mm 0,0 km/h (0 Bft) S 191 ° 0 min 0,000 mm 0,0 UV-I 0 W/m² 1,5 °C 2,8 °C 0,0 km/h (0 Bft)
24.09.2018 22:46 2,8 °C 91 % 1033,8 hPa 0,0 mm 0,0 km/h (0 Bft) S 191 ° 0 min 0,000 mm 0,0 UV-I 0 W/m² 1,5 °C 2,8 °C 0,0 km/h (0 Bft)
24.09.2018 22:47 2,8 °C 91 % 1033,8 hPa 0,0 mm 0,0 km/h (0 Bft) S 191 ° 0 min 0,000 mm 0,0 UV-I 0 W/m² 1,5 °C 2,8 °C 0,0 km/h (0 Bft)
24.09.2018 22:48 2,9 °C 91 % 1033,9 hPa 0,0 mm 0,0 km/h (0 Bft) S 191 ° 0 min 0,000 mm 0,0 UV-I 0 W/m² 1,6 °C 2,9 °C 0,0 km/h (0 Bft)
24.09.2018 22:49 2,9 °C 91 % 1033,8 hPa 0,0 mm 0,0 km/h (0 Bft) S 191 ° 0 min 0,000 mm 0,0 UV-I 0 W/m² 1,6 °C 2,9 °C 0,0 km/h (0 Bft)
24.09.2018 22:50 2,9 °C 91 % 1033,8 hPa 0,0 mm 0,0 km/h (0 Bft) S 191 ° 0 min 0,000 mm 0,0 UV-I 0 W/m² 1,6 °C 2,9 °C 0,0 km/h (0 Bft)
24.09.2018 22:51 2,9 °C 91 % 1033,9 hPa 0,0 mm 0,0 km/h (0 Bft) S 191 ° 0 min 0,000 mm 0,0 UV-I 0 W/m² 1,6 °C 2,9 °C 0,0 km/h (0 Bft)
24.09.2018 22:52 2,9 °C 91 % 1033,8 hPa 0,0 mm 0,0 km/h (0 Bft) S 191 ° 0 min 0,000 mm 0,0 UV-I 0 W/m² 1,6 °C 2,9 °C 0,0 km/h (0 Bft)
24.09.2018 22:53 2,9 °C 91 % 1033,9 hPa 0,0 mm 0,0 km/h (0 Bft) S 191 ° 0 min 0,000 mm 0,0 UV-I 0 W/m² 1,6 °C 2,9 °C 0,0 km/h (0 Bft)
24.09.2018 22:54 2,9 °C 91 % 1033,9 hPa 0,0 mm 0,0 km/h (0 Bft) S 191 ° 0 min 0,000 mm 0,0 UV-I 0 W/m² 1,6 °C 2,9 °C 0,0 km/h (0 Bft)
24.09.2018 22:55 2,9 °C 91 % 1033,9 hPa 0,0 mm 0,0 km/h (0 Bft) S 191 ° 0 min 0,000 mm 0,0 UV-I 0 W/m² 1,6 °C 2,9 °C 0,0 km/h (0 Bft)
24.09.2018 22:56 2,9 °C 91 % 1033,9 hPa 0,0 mm 0,0 km/h (0 Bft) S 191 ° 0 min 0,000 mm 0,0 UV-I 0 W/m² 1,6 °C 2,9 °C 0,0 km/h (0 Bft)
24.09.2018 22:57 2,9 °C 91 % 1033,9 hPa 0,0 mm 0,0 km/h (0 Bft) S 191 ° 0 min 0,000 mm 0,0 UV-I 0 W/m² 1,6 °C 2,9 °C 0,0 km/h (0 Bft)
24.09.2018 22:58 2,9 °C 91 % 1033,9 hPa 0,0 mm 0,0 km/h (0 Bft) S 191 ° 0 min 0,000 mm 0,0 UV-I 0 W/m² 1,6 °C 2,9 °C 0,0 km/h (0 Bft)
24.09.2018 22:59 2,9 °C 91 % 1033,9 hPa 0,0 mm 0,0 km/h (0 Bft) S 191 ° 0 min 0,000 mm 0,0 UV-I 0 W/m² 1,6 °C 2,9 °C 0,0 km/h (0 Bft)
24.09.2018 23:00 2,9 °C 91 % 1033,9 hPa 0,0 mm 0,0 km/h (0 Bft) S 191 ° 0 min 0,000 mm 0,0 UV-I 0 W/m² 1,6 °C 2,9 °C 0,0 km/h (0 Bft)
24.09.2018 23:01 2,9 °C 91 % 1033,9 hPa 0,0 mm 0,0 km/h (0 Bft) S 191 ° 0 min 0,000 mm 0,0 UV-I 0 W/m² 1,6 °C 2,9 °C 0,0 km/h (0 Bft)
24.09.2018 23:02 2,9 °C 91 % 1034,0 hPa 0,0 mm 0,0 km/h (0 Bft) S 191 ° 0 min 0,000 mm 0,0 UV-I 0 W/m² 1,6 °C 2,9 °C 0,0 km/h (0 Bft)
24.09.2018 23:03 2,9 °C 91 % 1034,0 hPa 0,0 mm 0,0 km/h (0 Bft) S 191 ° 0 min 0,000 mm 0,0 UV-I 0 W/m² 1,6 °C 2,9 °C 0,0 km/h (0 Bft)
24.09.2018 23:04 2,9 °C 91 % 1034,0 hPa 0,0 mm 0,0 km/h (0 Bft) S 191 ° 0 min 0,000 mm 0,0 UV-I 0 W/m² 1,6 °C 2,9 °C 0,0 km/h (0 Bft)
24.09.2018 23:05 2,9 °C 91 % 1034,0 hPa 0,0 mm 0,0 km/h (0 Bft) S 191 ° 0 min 0,000 mm 0,0 UV-I 0 W/m² 1,6 °C 2,9 °C 0,0 km/h (0 Bft)
24.09.2018 23:06 2,9 °C 91 % 1034,0 hPa 0,0 mm 0,0 km/h (0 Bft) S 191 ° 0 min 0,000 mm 0,0 UV-I 0 W/m² 1,6 °C 2,9 °C 0,0 km/h (0 Bft)
24.09.2018 23:07 2,9 °C 91 % 1034,1 hPa 0,0 mm 0,0 km/h (0 Bft) S 191 ° 0 min 0,000 mm 0,0 UV-I 0 W/m² 1,6 °C 2,9 °C 0,0 km/h (0 Bft)
24.09.2018 23:08 2,9 °C 91 % 1034,1 hPa 0,0 mm 0,0 km/h (0 Bft) S 191 ° 0 min 0,000 mm 0,0 UV-I 0 W/m² 1,6 °C 2,9 °C 0,0 km/h (0 Bft)
24.09.2018 23:09 2,9 °C 91 % 1034,1 hPa 0,0 mm 0,0 km/h (0 Bft) S 191 ° 0 min 0,000 mm 0,0 UV-I 0 W/m² 1,6 °C 2,9 °C 0,0 km/h (0 Bft)
24.09.2018 23:10 2,9 °C 91 % 1034,1 hPa 0,0 mm 0,0 km/h (0 Bft) S 191 ° 0 min 0,000 mm 0,0 UV-I 0 W/m² 1,6 °C 2,9 °C 0,0 km/h (0 Bft)
24.09.2018 23:11 2,9 °C 91 % 1034,1 hPa 0,0 mm 0,0 km/h (0 Bft) S 191 ° 0 min 0,000 mm 0,0 UV-I 0 W/m² 1,6 °C 2,9 °C 0,0 km/h (0 Bft)
24.09.2018 23:12 2,9 °C 91 % 1034,1 hPa 0,0 mm 0,0 km/h (0 Bft) S 191 ° 0 min 0,000 mm 0,0 UV-I 0 W/m² 1,6 °C 2,9 °C 0,0 km/h (0 Bft)
24.09.2018 23:13 2,8 °C 91 % 1034,2 hPa 0,0 mm 0,0 km/h (0 Bft) S 191 ° 0 min 0,000 mm 0,0 UV-I 0 W/m² 1,5 °C 2,8 °C 0,0 km/h (0 Bft)
24.09.2018 23:14 2,9 °C 91 % 1034,2 hPa 0,0 mm 0,0 km/h (0 Bft) S 191 ° 0 min 0,000 mm 0,0 UV-I 0 W/m² 1,6 °C 2,9 °C 0,0 km/h (0 Bft)
24.09.2018 23:15 2,8 °C 91 % 1034,2 hPa 0,0 mm 0,0 km/h (0 Bft) S 191 ° 0 min 0,000 mm 0,0 UV-I 0 W/m² 1,5 °C 2,8 °C 0,0 km/h (0 Bft)
24.09.2018 23:16 2,9 °C 91 % 1034,2 hPa 0,0 mm 0,0 km/h (0 Bft) S 191 ° 0 min 0,000 mm 0,0 UV-I 0 W/m² 1,6 °C 2,9 °C 0,0 km/h (0 Bft)
24.09.2018 23:17 2,9 °C 91 % 1034,2 hPa 0,0 mm 0,0 km/h (0 Bft) S 191 ° 0 min 0,000 mm 0,0 UV-I 0 W/m² 1,6 °C 2,9 °C 0,0 km/h (0 Bft)
24.09.2018 23:18 2,8 °C 91 % 1034,2 hPa 0,0 mm 0,0 km/h (0 Bft) S 191 ° 0 min 0,000 mm 0,0 UV-I 0 W/m² 1,5 °C 2,8 °C 0,0 km/h (0 Bft)
24.09.2018 23:19 2,8 °C 91 % 1034,3 hPa 0,0 mm 0,0 km/h (0 Bft) S 191 ° 0 min 0,000 mm 0,0 UV-I 0 W/m² 1,5 °C 2,8 °C 0,0 km/h (0 Bft)
24.09.2018 23:20 2,8 °C 91 % 1034,2 hPa 0,0 mm 0,0 km/h (0 Bft) S 191 ° 0 min 0,000 mm 0,0 UV-I 0 W/m² 1,5 °C 2,8 °C 0,0 km/h (0 Bft)
24.09.2018 23:21 2,8 °C 91 % 1034,2 hPa 0,0 mm 0,0 km/h (0 Bft) S 191 ° 0 min 0,000 mm 0,0 UV-I 0 W/m² 1,5 °C 2,8 °C 0,0 km/h (0 Bft)
24.09.2018 23:22 2,8 °C 91 % 1034,2 hPa 0,0 mm 0,0 km/h (0 Bft) S 191 ° 0 min 0,000 mm 0,0 UV-I 0 W/m² 1,5 °C 2,8 °C 0,0 km/h (0 Bft)
24.09.2018 23:23 2,8 °C 91 % 1034,2 hPa 0,0 mm 0,0 km/h (0 Bft) S 191 ° 0 min 0,000 mm 0,0 UV-I 0 W/m² 1,5 °C 2,8 °C 0,0 km/h (0 Bft)
24.09.2018 23:24 2,8 °C 91 % 1034,2 hPa 0,0 mm 0,0 km/h (0 Bft) S 191 ° 0 min 0,000 mm 0,0 UV-I 0 W/m² 1,5 °C 2,8 °C 0,0 km/h (0 Bft)
24.09.2018 23:25 2,9 °C 91 % 1034,2 hPa 0,0 mm 0,0 km/h (0 Bft) S 191 ° 0 min 0,000 mm 0,0 UV-I 0 W/m² 1,6 °C 2,9 °C 0,0 km/h (0 Bft)
24.09.2018 23:26 2,9 °C 91 % 1034,2 hPa 0,0 mm 0,0 km/h (0 Bft) S 191 ° 0 min 0,000 mm 0,0 UV-I 0 W/m² 1,6 °C 2,9 °C 0,0 km/h (0 Bft)
24.09.2018 23:27 2,9 °C 91 % 1034,3 hPa 0,0 mm 0,0 km/h (0 Bft) S 191 ° 0 min 0,000 mm 0,0 UV-I 0 W/m² 1,6 °C 2,9 °C 0,0 km/h (0 Bft)
24.09.2018 23:28 2,9 °C 91 % 1034,3 hPa 0,0 mm 0,4 km/h (0 Bft) S 191 ° 0 min 0,000 mm 0,0 UV-I 0 W/m² 1,6 °C 2,9 °C 1,6 km/h (1 Bft)
24.09.2018 23:29 2,9 °C 91 % 1034,3 hPa 0,0 mm 0,0 km/h (0 Bft) S 191 ° 0 min 0,000 mm 0,0 UV-I 0 W/m² 1,6 °C 2,9 °C 0,0 km/h (0 Bft)
24.09.2018 23:30 2,9 °C 91 % 1034,3 hPa 0,0 mm 0,0 km/h (0 Bft) S 191 ° 0 min 0,000 mm 0,0 UV-I 0 W/m² 1,6 °C 2,9 °C 0,0 km/h (0 Bft)
24.09.2018 23:31 2,9 °C 91 % 1034,3 hPa 0,0 mm 0,0 km/h (0 Bft) S 191 ° 0 min 0,000 mm 0,0 UV-I 0 W/m² 1,6 °C 2,9 °C 0,0 km/h (0 Bft)
24.09.2018 23:32 2,9 °C 91 % 1034,3 hPa 0,0 mm 0,0 km/h (0 Bft) S 191 ° 0 min 0,000 mm 0,0 UV-I 0 W/m² 1,6 °C 2,9 °C 0,0 km/h (0 Bft)
24.09.2018 23:33 2,9 °C 91 % 1034,3 hPa 0,0 mm 0,1 km/h (0 Bft) S 191 ° 0 min 0,000 mm 0,0 UV-I 0 W/m² 1,6 °C 2,9 °C 1,6 km/h (1 Bft)
24.09.2018 23:34 2,9 °C 91 % 1034,3 hPa 0,0 mm 0,5 km/h (0 Bft) S 191 ° 0 min 0,000 mm 0,0 UV-I 0 W/m² 1,6 °C 2,9 °C 1,6 km/h (1 Bft)
24.09.2018 23:35 2,9 °C 91 % 1034,3 hPa 0,0 mm 0,0 km/h (0 Bft) S 191 ° 0 min 0,000 mm 0,0 UV-I 0 W/m² 1,6 °C 2,9 °C 0,0 km/h (0 Bft)
24.09.2018 23:36 2,9 °C 91 % 1034,3 hPa 0,0 mm 0,0 km/h (0 Bft) S 191 ° 0 min 0,000 mm 0,0 UV-I 0 W/m² 1,6 °C 2,9 °C 0,0 km/h (0 Bft)
24.09.2018 23:37 3,0 °C 91 % 1034,3 hPa 0,0 mm 0,0 km/h (0 Bft) S 191 ° 0 min 0,000 mm 0,0 UV-I 0 W/m² 1,7 °C 3,0 °C 0,0 km/h (0 Bft)
24.09.2018 23:38 3,0 °C 91 % 1034,4 hPa 0,0 mm 0,0 km/h (0 Bft) S 191 ° 0 min 0,000 mm 0,0 UV-I 0 W/m² 1,7 °C 3,0 °C 0,0 km/h (0 Bft)
24.09.2018 23:39 3,1 °C 91 % 1034,4 hPa 0,0 mm 0,0 km/h (0 Bft) S 191 ° 0 min 0,000 mm 0,0 UV-I 0 W/m² 1,8 °C 3,1 °C 0,0 km/h (0 Bft)
24.09.2018 23:40 3,1 °C 91 % 1034,4 hPa 0,0 mm 0,4 km/h (0 Bft) S 191 ° 0 min 0,000 mm 0,0 UV-I 0 W/m² 1,8 °C 3,1 °C 1,6 km/h (1 Bft)
24.09.2018 23:41 3,1 °C 91 % 1034,4 hPa 0,0 mm 0,2 km/h (0 Bft) S 191 ° 0 min 0,000 mm 0,0 UV-I 0 W/m² 1,8 °C 3,1 °C 1,6 km/h (1 Bft)
24.09.2018 23:42 3,1 °C 91 % 1034,4 hPa 0,0 mm 0,0 km/h (0 Bft) S 191 ° 0 min 0,000 mm 0,0 UV-I 0 W/m² 1,8 °C 3,1 °C 0,0 km/h (0 Bft)
24.09.2018 23:43 3,1 °C 91 % 1034,5 hPa 0,0 mm 0,0 km/h (0 Bft) S 191 ° 0 min 0,000 mm 0,0 UV-I 0 W/m² 1,8 °C 3,1 °C 0,0 km/h (0 Bft)
24.09.2018 23:44 3,2 °C 91 % 1034,4 hPa 0,0 mm 0,0 km/h (0 Bft) S 191 ° 0 min 0,000 mm 0,0 UV-I 0 W/m² 1,9 °C 3,2 °C 0,0 km/h (0 Bft)
24.09.2018 23:45 3,2 °C 91 % 1034,5 hPa 0,0 mm 0,0 km/h (0 Bft) S 191 ° 0 min 0,000 mm 0,0 UV-I 0 W/m² 1,9 °C 3,2 °C 0,0 km/h (0 Bft)
24.09.2018 23:46 3,2 °C 91 % 1034,5 hPa 0,0 mm 0,0 km/h (0 Bft) S 191 ° 0 min 0,000 mm 0,0 UV-I 0 W/m² 1,9 °C 3,2 °C 0,0 km/h (0 Bft)
24.09.2018 23:47 3,2 °C 91 % 1034,5 hPa 0,0 mm 0,0 km/h (0 Bft) S 191 ° 0 min 0,000 mm 0,0 UV-I 0 W/m² 1,9 °C 3,2 °C 0,0 km/h (0 Bft)
24.09.2018 23:48 3,3 °C 91 % 1034,5 hPa 0,0 mm 0,1 km/h (0 Bft) S 191 ° 0 min 0,000 mm 0,0 UV-I 0 W/m² 2,0 °C 3,3 °C 1,6 km/h (1 Bft)
24.09.2018 23:49 3,3 °C 91 % 1034,5 hPa 0,0 mm 0,0 km/h (0 Bft) S 191 ° 0 min 0,000 mm 0,0 UV-I 0 W/m² 2,0 °C 3,3 °C 0,0 km/h (0 Bft)
24.09.2018 23:50 3,3 °C 91 % 1034,6 hPa 0,0 mm 0,7 km/h (0 Bft) S 191 ° 0 min 0,000 mm 0,0 UV-I 0 W/m² 2,0 °C 3,3 °C 1,6 km/h (1 Bft)
24.09.2018 23:51 3,3 °C 91 % 1034,6 hPa 0,0 mm 2,1 km/h (1 Bft) SW 223 ° 0 min 0,000 mm 0,0 UV-I 0 W/m² 2,0 °C 3,3 °C 3,2 km/h (1 Bft)
24.09.2018 23:52 3,3 °C 91 % 1034,6 hPa 0,0 mm 1,3 km/h (1 Bft) SW 223 ° 0 min 0,000 mm 0,0 UV-I 0 W/m² 2,0 °C 3,3 °C 3,2 km/h (1 Bft)
24.09.2018 23:53 3,3 °C 91 % 1034,6 hPa 0,0 mm 0,0 km/h (0 Bft) SW 223 ° 0 min 0,000 mm 0,0 UV-I 0 W/m² 2,0 °C 3,3 °C 0,0 km/h (0 Bft)
24.09.2018 23:54 3,3 °C 91 % 1034,6 hPa 0,0 mm 0,1 km/h (0 Bft) SW 223 ° 0 min 0,000 mm 0,0 UV-I 0 W/m² 2,0 °C 3,3 °C 1,6 km/h (1 Bft)
24.09.2018 23:55 3,2 °C 91 % 1034,6 hPa 0,0 mm 0,0 km/h (0 Bft) SW 223 ° 0 min 0,000 mm 0,0 UV-I 0 W/m² 1,9 °C 3,2 °C 0,0 km/h (0 Bft)
24.09.2018 23:56 3,2 °C 91 % 1034,6 hPa 0,0 mm 0,0 km/h (0 Bft) SW 223 ° 0 min 0,000 mm 0,0 UV-I 0 W/m² 1,9 °C 3,2 °C 0,0 km/h (0 Bft)
24.09.2018 23:57 3,2 °C 91 % 1034,6 hPa 0,0 mm 0,0 km/h (0 Bft) SW 223 ° 0 min 0,000 mm 0,0 UV-I 0 W/m² 1,9 °C 3,2 °C 0,0 km/h (0 Bft)
24.09.2018 23:58 3,2 °C 91 % 1034,6 hPa 0,0 mm 0,0 km/h (0 Bft) SW 223 ° 0 min 0,000 mm 0,0 UV-I 0 W/m² 1,9 °C 3,2 °C 0,0 km/h (0 Bft)
24.09.2018 23:59 3,1 °C 91 % 1034,7 hPa 0,0 mm 0,0 km/h (0 Bft) SW 223 ° 0 min 0,000 mm 0,0 UV-I 0 W/m² 1,8 °C 3,1 °C 0,0 km/h (0 Bft)
_ Min-Zeit 22:40 17:05 00:00 - 23:59 - - - - - - 18:17 22:40 23:59
Minimum _ 2,6 °C 56 % 1015,4 hPa - 0,0 km/h (0 Bft) - - - - - - 1,1 °C 2,6 °C 0,0 km/h (0 Bft)
_ Max-Zeit 00:00 07:34 23:59 00:07 00:30 - - 15:48 14:01 13:27 13:39 00:14 00:11 00:23
Maximum _ 10,8 °C 93 % 1034,7 hPa 0,4 mm 24,1 km/h
W-NW (4 Bft)
- - 1 min 0,254 mm 4,8 UV-I 956 W/m² 9,4 °C 10,7 °C 37,0 km/h
W (5 Bft)
Durchschnitt _ 6,9 °C 85 % 1027,2 hPa #6,2 mm 4,8 km/h (1 Bft) W-NW - #1:00 h #1,168 mm 1,8 UV-I 94 W/m² 4,4 °C 6,4 °C 8,0 km/h (2 Bft)